     2              OBSERVATION DATA    GPS                 RINEX VERSION / TYPE
teqc 2002Apr3 20051206 01:26:17UTC                          PGM / RUN BY / DATE
                                                            COMMENT
L2: 1 -> 1; 150 -> 5; 250 -> 9                              COMMENT
L2: 1 -> 1; 150 -> 5; 250 -> 9                              COMMENT
L2: 1 -> 1; 150 -> 5; 250 -> 9                              COMMENT
L2: 1 -> 1; 150 -> 5; 250 -> 9                              COMMENT
L2: 1 -> 1; 150 -> 5; 250 -> 9                              COMMENT
Original Marker Name: U471                                  COMMENT
Campaign Name: CSUSB 2005                                   COMMENT
4-Character Station Name: U471                              COMMENT
6-Character Antenna Code: DMRCHT                            COMMENT
Vertical Measurement Point: BCR                             COMMENT
Vertical Offset to Rinex Ref. Point: 0.0348                 COMMENT
Radial Measurement Point: ECF                               COMMENT
Radial Offset to Rinex Ref. Point: 0.1897                   COMMENT
Antenna Height from Field Measurement: 1.6160 m             COMMENT
Additional Antenna Identification Info.:                    COMMENT
Turborogue and Ashtech Choke Ring                           COMMENT
Original XYZ: -2424929.3200 -4697555.4400 3556893.4500      COMMENT
New XYZ position is based on association with SCEC monument COMMENT
E1D0S4K0+0011. Position of that monument is believed to be  COMMENT
valid to within 1 m horizontally; vertical accuracy         COMMENT
should be no worse than 3-times this value.                 COMMENT
                                                            COMMENT
Revised Rinex header created by UCSD GPS archive for        COMMENT
GSAC on 01-Apr-2006 (2006:091) 00:16:19 GMT                 COMMENT
For assistance contact dagnew@ucsd.edu                      COMMENT
or anderson@python.ucsd.edu                                 COMMENT
                                                            COMMENT
U471                                                        MARKER NAME
___ CSUSB                                                   OBSERVER / AGENCY
1224 ASHTECH Z-X ZB00                                       REC # / TYPE / VERS
1401 DORNE-MARGOL. TYPE T                                   ANT # / TYPE
 -2424947.0000 -4697568.0000  3556921.0000                  APPROX POSITION XYZ
        1.5700        0.0000        0.0000                  ANTENNA: DELTA H/E/N
     1     1     0                                          WAVELENGTH FACT L1/2
     7    C1    L1    L2    P1    P2    S1    S2            # / TYPES OF OBSERV
     0                                                      INTERVAL
  2005     6    27    15    43   30.000000                  TIME OF FIRST OBS
  2005     6    27    23    56    0.000000                  TIME OF LAST OBS
                                                            END OF HEADER
 05  6 27 15 43 30.0000000  0  5G22G21G 3G18G15
  21001374.3764    -492143.88053   -379606.82752  21001374.9134   21001367.3534
        56.0004         50.0004
  20743080.0524    -458260.81754   -356659.16552  20743085.8094   20743079.0874
        57.0004         50.0004
  22910440.553
        47.000
  20661006.0124    -458251.78454   -356814.81052  20661005.7624   20660998.7444
        57.0004         51.0004
  20519763.7334    -490653.38654   -373800.20652  20519761.0104   20519755.2264
        58.0004         50.0004
 05  6 27 15 44  0.0000000  0  6G22G21G 3G18G15G14
  20994203.8114    -529822.74944   -408966.96942  20994205.5734   20994197.6154
        57.0004         50.0004
  20745756.6054    -444223.23544   -345720.72942  20745756.5494   20745748.9084
        57.0004         50.0004
  22895745.6334    -592343.43153   -456741.51952  22895746.1954   22895740.2104
        50.0004         43.0004
  20663417.0704    -445575.47544   -346937.11542  20663418.2924   20663410.6924
        57.0004         51.0004
  20510723.2084    -538132.62144   -410797.01442  20510725.5464   20510719.5694
        57.0004         50.0004
  23602636.9814    -507440.08153   -380161.16052  23602636.3554   23602632.3594
        48.0004         40.0004
 05  6 27 15 44 30.0000000  0  7G22G21G 3G18G15G14G26
  20988822.2384    -558104.81544   -431004.94042  20988823.5634   20988815.9304
        58.0004         50.0004
  20750212.4354    -420799.55844   -327468.53542  20750213.8364   20750206.8754
        57.0004         50.0004
  22882854.0494    -660077.08543   -509521.02442  22882856.3924   22882851.7294
        49.0004         43.0004
  20667608.4954    -423545.06044   -329770.56742  20667610.1564   20667603.4014
        57.0004         51.0004
  20503461.1374    -576301.58044   -440539.06842  20503462.0294   20503456.3544
        58.0004         50.0004
  23581728.1424    -617309.53643   -465773.60642  23581730.0444   23581727.0594
        48.0004         41.0004
  23447993.7934    -247847.33253   -200967.84652  23447995.2594   23447990.5324
        47.0004         40.0004
 05  6 27 15 45  0.0000000  0  8G22G21G 3G18G 6G15G14G26
  20983449.8054    -586336.63144   -453003.76142  20983450.6224   20983442.8824
        57.0004         50.0004
  20754678.1534    -397334.87444   -309184.39042  20754679.0384   20754671.5524
        57.0004         50.0004
  22869994.5414    -727662.03043   -562184.60542  22869996.0244   22869991.2734
        50.0004         43.0004
  20671802.0334    -401508.08043   -312598.90942  20671803.4384   20671796.7174
        56.0004         51.0004
  23402464.1884    -172280.70853   -169559.75852  23402466.2624   23402463.5074
        45.0004         37.0004
  20496190.5914    -614504.74544   -470307.77142  20496191.9774   20496186.8234
        57.0004         50.0004
  23560794.2964    -727311.57743   -551489.42642  23560796.5954   23560793.3014
        47.0004         41.0004
  23466845.4444    -148772.85243   -123766.97542  23466847.2964   23466844.2524
        46.0004         40.0004
 05  6 27 15 45 30.0000000  0  8G22G21G 3G18G 6G15G14G26
  20978137.3024    -614256.72144   -474759.69142  20978137.6684   20978130.2614
        57.0004         50.0004
  20759199.9894    -373566.60344   -290663.66842  20759201.8244   20759194.9314
        57.0004         50.0004
  22857211.3424    -794833.97843   -614526.37642  22857213.7444   22857208.3574
        50.0004         43.0004
  20676046.4574    -379203.63444   -295218.83742  20676048.0064   20676041.0084
        57.0004         51.0004
  23422871.1194     -65047.02643    -86001.17342  23422873.4384   23422868.5664
        45.0004         38.0004
  20488965.8344    -652478.87744   -499898.01242  20488966.5734   20488960.4274
        58.0004         50.0004
  23539887.8844    -837181.69343   -637102.44842  23539888.9014   23539882.7734
        48.0004         41.0004
  23485764.2584     -49350.61943    -46295.15642  23485766.4814   23485762.8804
        46.0004         40.0004
 05  6 27 15 46  0.0000000  0  8G22G21G 3G18G 6G15G14G26
  20972884.9354    -641859.39844   -496268.27842  20972885.3714   20972877.0914
        58.0004         50.0004
  20763782.6624    -349487.63944   -271900.85042  20763783.6354   20763777.2934
        57.0004         50.0004
  22844511.4154    -861584.29743   -666539.61342  22844512.0734   22844506.8734
        51.0004         43.0004
  20680342.8764    -356626.60144   -277626.36742  20680344.5314   20680337.4554
        57.0004         51.0004
  23443301.4914      42314.73143     -2342.82742  23443302.4614   23443300.8084
        44.0004         37.0004
  20481784.1464    -690215.89144   -529303.47242  20481784.9774   20481779.2054
        58.0004         50.0004
  23519006.1604    -946910.87643   -722605.65842  23519006.7474   23519004.3854
        48.0004         41.0004
  23504750.0514      50422.74543     31450.27842  23504752.8264   23504751.0304
        45.0004         40.0004
 05  6 27 15 46 30.0000000  0  8G22G21G 3G18G 6G15G14G26
  20967691.6764    -669148.03444   -517532.15242  20967692.4984   20967684.9014
        57.0004         50.0004
  20768423.8684    -325099.54444   -252897.16642  20768425.0034   20768417.7774
        57.0004         50.0004
  22831887.6884    -927913.76843   -718224.91242  22831889.1414   22831885.5414
        51.0004         44.0004
  20684689.9804    -333780.88043   -259824.52442  20684691.8884   20684685.1544
        56.0004         51.0004
  23463755.0424     149799.28243     81411.22342  23463756.2914   23463753.8024
        44.0004         37.0004
  20474647.3674    -727717.12644   -558525.21842  20474648.5914   20474643.0934
        57.0004         50.0004
  23498152.8034   -1056499.24743   -807999.11342  23498154.2384   23498148.2874
        48.0004         41.0004
  23523806.0774     150541.13943    109464.52742  23523805.9364   23523801.4674
        47.0004         41.0004
 05  6 27 15 47  0.0000000  0  8G22G21G 3G18G 6G15G14G26
  20962560.0244    -696117.69444   -538547.47142  20962560.7614   20962552.5174
        57.0004         50.0004
  20773124.5834    -300396.39444   -233647.97742  20773125.9554   20773118.6154
        57.0004         50.0004
  22819348.7814    -993814.63743   -769576.23042  22819350.3034   22819343.8784
        51.0004         44.0004
  20689089.1494    -310662.24943   -241810.02342  20689090.6394   20689084.3894
        56.0004         50.0004
  23484231.5944     257409.86843    165263.44442  23484233.1914   23484230.7894
        43.0004         36.0004
  20467557.9734    -764975.58544   -587557.80242  20467559.0324   20467553.2474
        58.0004         51.0004
  23477328.0274   -1165938.19643   -893276.17042  23477329.4574   23477323.1304
        49.0004         41.0004
  23542921.8314     251006.93643    187749.49342  23542923.5824   23542919.3214
        46.0004         41.0004
 05  6 27 15 47 30.0000000  0  8G22G21G 3G18G 6G15G14G26
  20957486.5104    -722778.23244   -559321.91442  20957487.3794   20957478.8644
        58.0004         50.0004
  20777883.2704    -275386.81944   -214160.01642  20777885.1204   20777878.4774
        57.0004         50.0004
  22806887.1154   -1059294.22343   -820599.28242  22806889.5794   22806884.4274
        51.0004         44.0004
  20693538.5874    -287281.52943   -223591.29742  20693540.1684   20693533.4254
        56.0004         50.0004
  23504732.5024     365134.41543    249204.50842  23504735.2804   23504729.2294
        44.0004         36.0004
  20460512.5864    -801999.44544   -616407.58142  20460513.3644   20460508.5014
        58.0004         51.0004
  23456528.4794   -1275234.53643   -978442.07742  23456530.6624   23456526.5494
        49.0004         42.0004
  23562103.3124     351807.62043    266295.45442  23562106.2034   23562100.5024
        46.0004         41.0004
 05  6 27 15 48  0.0000000  0  8G22G21G 3G18G 6G15G14G26
  20952474.1204    -749119.56244   -579847.63042  20952474.8734   20952466.1964
        58.0004         50.0004
  20782702.9334    -250059.27544   -194424.28542  20782704.5454   20782697.3414
        57.0004         50.0004
  22794510.0564   -1124339.65343   -871284.05942  22794511.0774   22794507.3084
        50.0004         43.0004
  20698039.9744    -263629.37943   -205161.07742  20698041.2144   20698034.1914
        56.0004         50.0004
  23525255.5424     472981.42343    333240.97242  23525258.1954   23525253.6854
        45.0004         37.0004
  20453513.6034    -838776.35444   -645064.92642  20453514.4354   20453510.0584
        57.0004         51.0004
  23435759.3934   -1384374.93543  -1063486.48842  23435761.0674   23435757.5864
        48.0004         42.0004
  23581349.8264     452950.86443    345108.29242  23581354.2314   23581349.1564
        46.0004         41.0004
 05  6 27 15 48 30.0000000  0  8G22G21G 3G18G 6G15G14G26
  20947520.2524    -775148.37044   -600129.81742  20947521.3684   20947513.8534
        57.0004         50.0004
  20787582.1264    -224418.84844   -174444.74242  20787583.5514   20787576.8054
        57.0004         50.0004
  22782213.7804   -1188954.79943   -921633.52842  22782215.1694   22782209.5614
        50.0004         43.0004
  20702590.7754    -239712.72043   -186524.73542  20702592.1224   20702585.6884
        56.0004         50.0004
  23545798.2534     580942.15643    417366.08142  23545800.7674   23545798.4414
        44.0004         37.0004
  20446561.5024    -875310.97044   -673533.46442  20446562.1924   20446557.3504
        57.0004         50.0004
  23415020.6674   -1493362.77443  -1148412.04042  23415021.6844   23415018.1034
        48.0004         42.0004
  23600662.8754     554427.40843    424180.88442  23600664.4854   23600659.2304
        47.0004         41.0004
 05  6 27 15 49  0.0000000  0  8G22G21G 3G18G 6G15G14G26
  20942627.4114    -800860.83644   -620165.50742  20942627.9104   20942620.3914
        57.0004         50.0004
  20792522.3894    -198460.98344   -154217.85442  20792523.7404   20792516.9324
        57.0004         50.0004
  22769999.6194   -1253133.36943   -971642.78442  22770001.9594   22769997.5724
        50.0004         43.0004
  20707192.9064    -215528.52544   -167679.93042  20707194.4894   20707187.9854
        57.0004         51.0004
  23566363.4864     689018.48543    501581.23842  23566365.6074   23566362.5994
        42.0004         36.0004
  20439656.9514    -911597.47144   -701808.67642  20439657.4644   20439652.0194
        57.0004         50.0004
  23394311.4544   -1602190.64643  -1233212.92442  23394314.5414   23394306.1804
        49.0004         42.0004
  23620034.2834     656238.21943    503513.93642  23620037.5954   23620032.2974
        46.0004         40.0004
 05  6 27 15 49 30.0000000  0  8G22G21G 3G18G 6G15G14G26
  20937794.0334    -826262.59044   -639959.09242  20937794.5434   20937785.9704
        57.0004         50.0004
  20797520.8704    -172189.28043   -133746.42542  20797522.5894   20797516.1164
        56.0004         49.0004
  22757870.5174   -1316878.20443  -1021314.07742  22757872.4744   22757867.5584
        50.0004         44.0004
  20711844.5984    -191082.76244   -148631.30042  20711846.8454   20711839.9434
        57.0004         51.0004
  23586952.3964     797203.38943    585880.98042  23586953.3104   23586951.1744
        42.0004         36.0004
  20432797.5264    -947639.11544   -729893.08242  20432798.8284   20432793.2604
        57.0004         50.0004
  23373632.3104   -1710861.13643  -1317891.21842  23373633.8364   23373627.9634
        49.0004         41.0004
  23639469.5554     758375.41143    583101.30142  23639473.3974   23639470.1984
        45.0004         40.0004
 05  6 27 15 50  0.0000000  0  8G22G21G 3G18G 6G15G14G26
  20933019.8324    -851354.22444   -659511.02842  20933019.9374   20933012.5024
        57.0004         50.0004
  20802580.1094    -145603.01344   -113029.86942  20802581.6034   20802573.8264
        57.0004         49.0004
  22745823.7114   -1380186.81543  -1070645.46242  22745825.5424   22745820.0074
        51.0004         44.0004
  20716546.3164    -166376.75644   -129379.88742  20716548.0354   20716541.1354
        57.0004         51.0004
  23607560.0354     905494.25343    670263.33342  23607562.1684   23607559.9794
        43.0004         37.0004
  20425987.5004    -983434.22344   -757785.38742  20425988.3894   20425981.9064
        58.0004         50.0004
  23352981.6424   -1819371.36843  -1402444.59542  23352983.7184   23352980.3324
        48.0004         41.0004
  23658968.5094     860835.94843    662940.61842  23658971.1534   23658964.4264
        45.0004         40.0004
 05  6 27 15 50 30.0000000  0  8G22G21G 3G18G 6G15G14G26
  20928304.0044    -876132.68544   -678818.91742  20928304.6084   20928297.0944
        58.0004         50.0004
  20807701.0904    -118697.84844    -92064.82742  20807702.1654   20807695.3154
        57.0004         49.0004
  22733860.6714   -1443053.40343  -1119632.41442  22733862.6904   22733858.3104
        51.0004         45.0004
  20721297.7714    -141408.16244   -109923.85742  20721299.2554   20721292.1144
        57.0004         50.0004
  23628187.7224    1013892.69643    754729.46842  23628190.0334   23628188.0044
        43.0004         37.0004
  20419222.3824   -1018977.52744   -785481.47742  20419223.7274   20419217.9584
        57.0004         50.0004
  23332365.3164   -1927714.56243  -1486867.83442  23332367.7754   23332362.3704
        48.0004         40.0004
  23678528.7714     963620.68043    743032.53842  23678532.2874   23678524.5874
        45.0004         40.0004
 05  6 27 15 51  0.0000000  0  8G22G21G 3G18G 6G15G14G26
  20923647.2314    -900605.50744   -697888.65942  20923647.9544   20923639.5824
        58.0004         51.0004
  20812879.3504     -91480.10344    -70856.21342  20812881.2394   20812874.2564
        57.0004         49.0004
  22721980.6584   -1505483.29043  -1168279.07342  22721982.7674   22721978.3314
        51.0004         45.0004
  20726096.9954    -116185.43343    -90269.80142  20726098.7244   20726092.3764
        56.0004         50.0004
  23648834.4414    1122388.74043    839271.67242  23648834.6994   23648832.6284
        44.0004         38.0004
  20412505.4124   -1054275.02344   -812986.01842  20412506.3234   20412501.6544
        57.0004         50.0004
  23311778.1464   -2035895.57143  -1571164.67942  23311780.0774   23311776.1684
        47.0004         40.0004
  23698148.1654    1066718.87943    823368.73842  23698150.2284   23698145.2034
        46.0004         40.0004
 05  6 27 15 51 30.0000000  0  8G22G21G 3G18G 6G15G14G26
  20919049.3314    -924768.33144   -716716.84842  20919049.8784   20919042.2004
        58.0004         51.0004
  20818120.0474     -63944.08144    -49399.58742  20818121.2874   20818114.1614
        57.0004         49.0004
  22710184.0684   -1567469.27643  -1216579.84342  22710185.9444   22710181.6924
        51.0004         44.0004
  20730945.9534     -90704.68143    -70414.67642  20730947.6314   20730940.9544
        56.0004         50.0004
  23669499.5764    1230985.22743    923892.18642  23669501.2314   23669499.6814
        43.0004         37.0004
  20405836.3754   -1089319.93844   -840293.74642  20405837.4974   20405833.0894
        57.0004         50.0004
  23291225.3874   -2143906.60543  -1655329.05542  23291225.0734   23291221.3214
        48.0004         41.0004
  23717826.5544    1170132.56043    903950.76642  23717829.2584   23717822.8604
        46.0004         40.0004
 05  6 27 15 52  0.0000000  0  8G22G21G 3G18G 6G15G14G26
  20914511.1524    -948613.01144   -735297.11142  20914512.0774   20914503.8354
        57.0004         50.0004
  20823422.0904     -36080.10144    -27687.41542  20823423.3824   20823416.2994
        57.0004         49.0004
  22698476.1334   -1629000.32843  -1264526.14142  22698478.0624   22698472.6494
        51.0004         44.0004
  20735845.8364     -64958.12243    -50352.44942  20735847.3174   20735839.5574
        56.0004         50.0004
  23690185.1034    1339688.65343   1008596.02242  23690188.0394   23690184.9644
        42.0004         37.0004
  20399218.0384   -1124102.02344   -867396.67942  20399218.9084   20399213.8254
        57.0004         51.0004
  23270706.0674   -2251735.98243  -1739351.88642  23270708.7114   23270701.4874
        48.0004         41.0004
  23737567.5234    1273867.63143    984783.20842  23737569.1314   23737563.8184
        47.0004         39.0004
 05  6 27 15 52 30.0000000  0  8G22G21G 3G18G 6G15G14G26
  20910031.8564    -972155.07444   -753641.58842  20910032.5814   20910023.5744
        57.0004         50.0004
  20828784.1424      -7902.08344     -5730.54942  20828785.6354   20828778.6344
        57.0004         49.0004
  22686851.3794   -1690089.25843  -1312127.91442  22686853.5234   22686847.6414
        52.0004         44.0004
  20740792.6774     -38961.92143    -30095.68342  20740793.8804   20740787.5174
        56.0004         50.0004
  23710889.6994    1448481.76643   1093369.71842  23710890.3434   23710886.3494
        43.0004         36.0004
  20392647.6944   -1158634.28844   -894304.95942  20392648.3044   20392642.6674
        57.0004         50.0004
  23250219.2454   -2359395.36543  -1823242.27042  23250220.6544   23250216.5474
        49.0004         41.0004
  23757364.1564    1377906.02643   1065852.02942  23757366.5984   23757361.7714
        46.0004         39.0004
 05  6 27 15 53  0.0000000  0  8G22G21G 3G18G 6G15G14G26
  20905610.4154    -995388.72444   -771745.73042  20905610.9804   20905602.9024
        57.0004         49.0004
  20834207.3664      20597.06844     16476.55142  20834208.9184   20834202.0314
        57.0004         49.0004
  22675312.0844   -1750727.62143  -1359378.58742  22675314.4124   22675308.4574
        52.0004         44.0004
  20745788.4854     -12710.82444     -9640.29442  20745789.9094   20745783.0344
        57.0004         50.0004
  23731608.1334    1557368.59043   1178216.44242  23731611.1404   23731607.0134
        41.0004         35.0004
  20386125.0964   -1192908.77844   -921012.35742  20386125.9974   20386120.0194
        58.0004         50.0004
  23229765.4334   -2466876.01743  -1906993.35642  23229768.5604   23229762.5104
        48.0004         41.0004
  23777220.3294    1482250.92443   1147159.71642  23777222.6164   23777218.7284
        46.0004         39.0004
 05  6 27 15 53 30.0000000  0  8G22G21G 3G18G 6G15G14G26
  20901247.8334   -1018313.21744   -789608.96242  20901248.4814   20901240.7524
        57.0004         50.0004
  20839692.2654      49419.23844     38935.35742  20839693.7824   20839686.8604
        57.0004         49.0004
  22663858.7694   -1810912.24343  -1406275.68942  22663861.2114   22663856.6894
        51.0004         44.0004
  20750831.7144      13795.20644     11013.74342  20750833.7724   20750826.2074
        57.0004         50.0004
  23752342.4214      90927.57243     35534.98442  23752346.4034   23752348.8314
        39.0004         35.0004
  20379651.4344   -1226922.84044   -947516.82942  20379652.2704   20379647.4264
        57.0004         50.0004
  23209348.2124   -2574173.82543  -1990601.97342  23209349.1354   23209345.4094
        50.0004         42.0004
  23797133.4564    1586900.61643   1228704.87142  23797136.1514   23797133.4524
        46.0004         39.0004
 05  6 27 15 54  0.0000000  0  8G22G21G 3G18G 6G15G14G26
  20896943.7784   -1040932.23844   -807234.18142  20896944.4804   20896936.8244
        57.0004         50.0004
  20845237.9934      78562.02844     61643.99742  20845239.2574   20845232.1304
        57.0004         49.0004
  22652492.7534   -1870644.06243  -1452819.96442  22652494.0504   22652489.0824
        51.0004         44.0004
  20755923.2244      40551.82244     31863.03442  20755924.9934   20755918.3944
        57.0004         50.0004
  23773101.7944     199994.11043    120521.76942  23773102.7384   23773102.3414
        40.0004         35.0004
  20373227.9714   -1260678.16744   -973819.68742  20373229.3494   20373224.8124
        57.0004         50.0004
  23188963.8994   -2681289.22843  -2074068.47342  23188965.7224   23188960.3554
        49.0004         42.0004
  23817105.2674    1691848.93843   1310482.71742  23817107.2664   23817101.2874
        46.0004         39.0004
 05  6 27 15 54 30.0000000  0  8G22G21G 3G18G 6G15G14G26
  20892696.7444   -1063250.86244   -824625.31642  20892697.5354   20892689.4174
        57.0004         50.0004
  20850843.6894     108022.14344     84599.90542  20850845.2524   20850838.3624
        57.0004         49.0004
  22641211.3844   -1929925.32843  -1499013.15442  22641213.1694   22641209.4164
        50.0004         44.0004
  20761062.0884      67553.53744     52903.32642  20761063.6464   20761056.9504
        57.0004         51.0004
  23793873.8574     309140.93043    205571.10642  23793871.1564   23793871.7434
        42.0004         35.0004
  20366854.3284   -1294177.34744   -999922.95242  20366855.1014   20366849.7434
        58.0004         50.0004
  23168616.2704   -2788223.52843  -2157393.84742  23168615.7054   23168612.6734
        49.0004         42.0004
  23837133.7134    1797088.44843   1392487.50542  23837135.5804   23837128.8834
        48.0004         39.0004
 05  6 27 15 55  0.0000000  0  8G22G21G 3G18G 6G15G14G26
  20888507.7344   -1085265.10944   -841779.26642  20888508.4434   20888500.2704
        57.0004         51.0004
  20856511.8114     137804.11444    107806.60142  20856513.0114   20856506.1704
        57.0004         49.0004
  22630020.3144   -1988749.55843  -1544850.23942  22630021.0584   22630015.2874
        52.0004         44.0004
  20766247.4994      94803.86144     74137.33742  20766249.0114   20766242.7924
        57.0004         51.0004
  23814658.2984     418370.11743    290684.63642  23814659.1984   23814658.0454
        42.0004         34.0004
  20360529.3954   -1327414.27444  -1025821.85842  20360530.1904   20360525.0504
        57.0004         50.0004
  23148301.7734   -2894969.68143  -2240572.63542  23148304.6754   23148299.4594
        48.0004         42.0004
  23857214.8204    1902620.54943   1474720.28442  23857215.7894   23857211.2674
        48.0004         39.0004
 05  6 27 15 55 30.0000000  0  7G22G21G 3G18G 6G15G14
  20884376.1704   -1106973.20544   -858694.66642  20884377.1534   20884370.1194
        57.0004         51.0004
  20862239.6394     167912.07643    131267.31742  20862241.3724   20862235.7084
        56.0004         49.0004
  22618911.5734   -2047111.88843  -1590327.37742  22618914.5814   22618908.2874
        52.0004         44.0004
  20771480.8384     122304.18944     95566.14642  20771482.1534   20771475.8094
        57.0004         50.0004
  23835457.6124     527682.19443    375862.77842  23835458.6584   23835460.7094
        40.0004         34.0004
  20354254.8084   -1360384.74244  -1051513.13242  20354256.0184   20354250.7074
        57.0004         50.0004
  23128025.8454   -3001522.46643  -2323600.73442  23128028.1394   23128023.8004
        49.0004         42.0004
 05  6 27 15 56  0.0000000  0  6G22G21G 3G18G15G14
  20880304.6214   -1128374.71744   -875371.16442  20880305.2314   20880296.9004
        58.0004         50.0004
  20868032.5674     198347.07243    154982.86342  20868033.8794   20868027.1794
        56.0004         49.0004
  22607895.5134   -2105010.27543  -1635443.01142  22607896.8354   22607890.4344
        52.0004         44.0004
  20776761.7314     150053.77144    117189.18042  20776763.5184   20776756.4224
        57.0004         51.0004
  20348032.1014   -1393086.70344  -1076995.17942  20348032.9414   20348028.0544
        57.0004         50.0004
  23107787.1644   -3107878.40743  -2406475.42942  23107790.7684   23107784.2504
        49.0004         42.0004
 05  6 27 15 56 30.0000000  0  6G22G21G 3G18G15G14
  20876288.6244   -1149478.14044   -891815.40842  20876289.6604   20876280.9894
        58.0004         50.0004
  20873884.9864     229101.99743    178947.69942  20873886.1964   20873879.6524
        56.0004         49.0004
  22596964.7184   -2162450.56743  -1680201.67242  22596965.9374   22596959.3554
        52.0004         44.0004
  20782086.9274     178043.86844    138999.63442  20782089.1134   20782082.4304
        57.0004         50.0004
  20341858.7374   -1425526.37244  -1102272.85842  20341860.1984   20341854.6564
        57.0004         50.0004
  23087585.3054   -3214042.42743  -2489200.58442  23087587.4714   23087579.9994
        49.0004         42.0004
 05  6 27 15 57  0.0000000  0  6G22G21G 3G18G15G14
  20872330.0034   -1170277.97044   -908023.07842  20872330.6994   20872323.2344
        57.0004         50.0004
  20879800.1114     260184.30844    203167.64442  20879801.3134   20879794.1854
        57.0004         49.0004
  22586121.3834   -2219423.85243  -1724596.43942  22586122.7634   22586118.5174
        51.0004         44.0004
  20787460.1824     206279.79843    161001.63742  20787462.0964   20787455.3264
        56.0004         50.0004
  20335737.1804   -1457695.22244  -1127339.50042  20335738.4374   20335733.8144
        57.0004         51.0004
  23067419.7554   -3320004.84843  -2571768.63842  23067422.1524   23067416.3444
        48.0004         42.0004
 05  6 27 15 57 30.0000000  0  6G22G21G 3G18G15G14
  20868428.8324   -1190780.28244   -923998.89242  20868429.3544   20868421.5974
        57.0004         50.0004
  20885776.3764     291589.02644    227638.81642  20885777.3114   20885770.5314
        57.0004         49.0004
  22575369.5544   -2275933.53943  -1768629.95442  22575370.7344   22575364.5894
        52.0004         44.0004
  20792878.7184     234754.42843    183189.65042  20792880.2204   20792873.4584
        56.0004         50.0004
  20329667.0974   -1489597.20044  -1152198.20542  20329667.8164   20329662.7804
        57.0004         50.0004
  23047294.2724   -3425768.97843  -2654182.19642  23047296.3754   23047291.6084
        48.0004         42.0004
 05  6 27 15 58  0.0000000  0  6G22G21G 3G18G15G14
  20864585.5494   -1210977.70644   -939737.13942  20864586.1604   20864577.4804
        57.0004         50.0004
  20891814.9334     323324.77643    252367.92342  20891816.5014   20891809.5074
        56.0004         49.0004
  22564703.2594   -2331969.94043  -1812294.70842  22564705.5524   22564701.5944
        49.0004         43.0004
  20798344.5934     263474.73043    205569.09042  20798345.8134   20798339.4584
        56.0004         50.0004
  20323648.3464   -1521222.98844  -1176841.69242  20323649.3924   20323644.5994
        57.0004         51.0004
  23027208.9584   -3531324.13943  -2736432.91042  23027210.1484   23027205.8494
        50.0004         43.0004
 05  6 27 15 58 30.0000000  0  6G22G21G 3G18G15G14
  20860797.8794   -1230880.31544   -955245.65542  20860798.9634   20860790.3124
        57.0004         50.0004
  20897915.5854     355383.05643    277348.36942  20897916.7254   20897909.7994
        56.0004         49.0004
  22554133.2564   -2387540.32343  -1855596.30442  22554132.7974   22554127.7754
        52.0004         44.0004
  20803854.5844     292430.65143    228132.14042  20803855.6404   20803849.6134
        56.0004         50.0004
  20317681.7504   -1552580.27944  -1201275.96042  20317682.6784   20317677.7924
        57.0004         51.0004
  23007159.6824   -3636676.70743  -2818525.76442  23007162.9534   23007157.4504
        49.0004         43.0004
 05  6 27 15 59  0.0000000  0  6G22G21G 3G18G15G14
  20857067.3774   -1250482.48844   -970520.07842  20857068.4274   20857060.8784
        57.0004         50.0004
  20904078.3024     387770.50943    302585.29242  20904079.7594   20904073.2074
        56.0004         49.0004
  22543644.5744   -2442636.87743  -1898528.65242  22543646.7074   22543642.7704
        51.0004         44.0004
  20809410.4804     321626.82643    250882.38642  20809411.7604   20809405.0954
        56.0004         50.0004
  20311767.0564   -1583661.35844  -1225494.98742  20311767.9194   20311763.1274
        57.0004         51.0004
  22987152.3354   -3741817.98543  -2900453.96442  22987155.0864   22987151.0484
        49.0004         42.0004
 05  6 27 15 59 30.0000000  0  6G22G21G 3G18G15G14
  20853393.4224   -1269792.65044   -985566.95542  20853393.8584   20853385.9084
        58.0004         50.0004
  20910303.3634     420480.25443    328073.36442  20910304.4404   20910297.6574
        56.0004         49.0004
  22533252.0854   -2497265.56543  -1941096.48842  22533252.4564   22533246.8724
        51.0004         44.0004
  20815010.1344     351054.53543    273813.05242  20815011.9124   20815005.4724
        56.0004         50.0004
  20305903.7754   -1614472.42544  -1249503.62542  20305904.6824   20305899.4334
        57.0004         51.0004
  22967183.2864   -3846753.11143  -2982221.53142  22967185.0214   22967179.7454
        49.0004         42.0004
 05  6 27 16  0  0.0000000  0  6G22G21G 3G18G15G14
  20849776.0874   -1288802.34044  -1000379.70842  20849776.7764   20849768.8414
        58.0004         51.0004
  20916591.4494     453522.07744    353820.19542  20916592.4204   20916585.5634
        57.0004         49.0004
  22522946.0514   -2551414.95743  -1983290.81742  22522948.0494   22522942.6494
        51.0004         44.0004
  20820655.8644     380721.77543    296930.37442  20820657.5694   20820650.7384
        56.0004         50.0004
  20300094.7684   -1645002.25244  -1273293.12342  20300095.8234   20300090.2914
        58.0004         51.0004
  22947257.6284   -3951469.65943  -3063818.77442  22947258.0474   22947255.1224
        49.0004         43.0004
 05  6 27 16  0 30.0000000  0  6G22G21G 3G18G15G14
  20846214.8664   -1307515.65444  -1014961.52242  20846215.6194   20846207.9614
        57.0004         51.0004
  20922941.1274     486893.23443    379823.64942  20922942.6434   20922936.2374
        56.0004         49.0004
  22512732.4014   -2605086.78743  -2025113.04442  22512734.0944   22512728.9304
        51.0004         44.0004
  20826346.1484     410624.15543    320230.90642  20826347.6814   20826341.0264
        56.0004         50.0004
  20294337.8234   -1675253.03944  -1296865.17742  20294338.9114   20294334.0224
        57.0004         51.0004
  22927371.7924   -4055968.53643  -3145246.41142  22927372.4564   22927368.6464
        50.0004         43.0004
 05  6 27 16  1  0.0000000  0  6G22G21G 3G18G15G14
  20842710.3774   -1325931.11544  -1029311.23742  20842711.7134   20842703.0494
        57.0004         50.0004
  20929355.2694     520596.76543    406086.09742  20929356.0714   20929349.1594
        56.0004         49.0004
  22502610.5524   -2658277.11543  -2066560.04842  22502612.6134   22502607.3014
        51.0004         44.0004
  20832080.3984     440762.32943    343715.18842  20832082.6614   20832076.3964
        56.0004         50.0004
  20288634.6744   -1705220.91944  -1320216.78142  20288635.3604   20288630.5874
        57.0004         50.0004
  22907528.5024   -4160244.86343  -3226500.64842  22907531.2864   22907525.9054
        49.0004         43.0004
 05  6 27 16  1 30.0000000  0  6G22G21G 3G18G15G14
  20839262.1094   -1344052.11144  -1043431.51142  20839262.8674   20839255.2674
        57.0004         50.0004
  20935830.9314     554630.34343    432605.71642  20935833.2334   20935826.3294
        56.0004         49.0004
  22492580.9064   -2710986.99043  -2107632.68942  22492582.6044   22492577.8534
        52.0004         45.0004
  20837860.7824     471132.45343    367380.20242  20837862.3934   20837855.8234
        56.0004         50.0004
  20282985.7244   -1734907.40644  -1343349.12342  20282986.8664   20282981.6634
        57.0004         50.0004
  22887727.3464   -4264298.97743  -3307581.71742  22887729.6704   22887724.4624
        49.0004         42.0004
 05  6 27 16  2  0.0000000  0  6G22G21G 3G18G15G14
  20835869.3014   -1361879.94644  -1057323.32342  20835870.2424   20835862.7164
        57.0004         50.0004
  20942370.5164     588994.18044    459382.68242  20942372.2694   20942364.9374
        57.0004         49.0004
  22482641.9764   -2763214.72443  -2148329.61242  22482643.7564   22482638.4674
        52.0004         45.0004
  20843683.4194     501733.29343    391224.98842  20843684.9584   20843678.7454
        56.0004         50.0004
  20277390.9024   -1764311.00244  -1366261.02542  20277391.6494   20277386.2634
        58.0004         51.0004
  22867969.0874   -4368128.20743  -3388487.55042  22867970.9064   22867966.8654
        49.0004         43.0004
 05  6 27 16  2 30.0000000  0  6G22G21G 3G18G15G14
  20832533.9234   -1379410.63144  -1070983.59842  20832534.7844   20832526.2084
        57.0004         50.0004
  20948973.9804     623693.47044    486421.05142  20948974.9004   20948968.4444
        57.0004         49.0004
  22472795.5404   -2814954.15743  -2188646.06642  22472797.3694   22472793.0164
        51.0004         44.0004
  20849551.7924     532567.55944    415251.67442  20849553.2234   20849545.4894
        57.0004         50.0004
  20271850.0064   -1793425.47844  -1388947.65442  20271851.1234   20271846.1754
        57.0004         51.0004
  22848255.1844   -4471725.74343  -3469212.86242  22848256.0494   22848251.5204
        50.0004         43.0004
 05  6 27 16  3  0.0000000  0  7G22G21G 3G18G15G14G 9
  20829250.0184   -1396660.51044  -1084425.06742  20829251.0134   20829243.8334
        57.0004         50.0004
  20955636.9174     658713.13043    513709.05842  20955638.6894   20955632.2114
        56.0004         49.0004
  22463040.9364   -2866219.13743  -2228592.81942  22463042.6234   22463038.2874
        51.0004         44.0004
  20855459.8664     563618.89943    439447.50442  20855461.6884   20855455.0744
        56.0004         50.0004
  20266362.8534   -1822264.92144  -1411419.95442  20266363.4334   20266358.4154
        58.0004         51.0004
  22828582.7954   -4575104.19243  -3549767.47442  22828584.2354   22828580.0604
        49.0004         43.0004
  23923477.6254   -2172332.06253  -1677806.72352  23923478.5184   23923473.2894
        45.0004         38.0004
 05  6 27 16  3 30.0000000  0  7G22G21G 3G18G15G14G 9
  20826026.1004   -1413609.21644  -1097631.86042  20826026.6744   20826018.8794
        57.0004         50.0004
  20962366.9634     694075.18744    541263.86542  20962368.3014   20962361.8444
        57.0004         49.0004
  22453381.4524   -2916986.40643  -2268151.73742  22453383.0084   22453377.4824
        52.0004         45.0004
  20861413.9554     594907.71343    463828.39642  20861415.6444   20861409.4564
        56.0004         50.0004
  20260931.1404   -1850806.11444  -1433659.85942  20260932.3974   20260927.3684
        58.0004         51.0004
  22808956.8404   -4678239.87343  -3630132.89042  22808958.8444   22808952.7664
        49.0004         43.0004
  23911839.8604   -2233470.65643  -1725447.12042  23911841.6744   23911841.4394
        45.0004         39.0004
 05  6 27 16  4  0.0000000  0  7G22G21G 3G18G15G14G 9
  20822855.9934   -1430266.28744  -1110611.38942  20822856.9214   20822849.0434
        57.0004         50.0004
  20969159.5804     729771.23344    569078.92342  20969161.5324   20969154.3304
        57.0004         49.0004
  22443812.4314   -2967263.52943  -2307328.71242  22443815.0304   22443809.3274
        51.0004         44.0004
  20867411.8614     626423.55344    488386.16942  20867413.1494   20867406.6744
        57.0004         50.0004
  20255555.2754   -1879056.80344  -1455673.40042  20255556.4074   20255550.8004
        58.0004         51.0004
  22789374.9104   -4781138.93143  -3710313.90142  22789376.9904   22789373.9154
        48.0004         43.0004
  23900271.2804   -2294278.45543  -1772829.80342  23900272.8424   23900269.7564
        46.0004         40.0004
 05  6 27 16  4 30.0000000  0  7G22G21G 3G18G15G14G 9
  20819740.0484   -1446638.40844  -1123368.88542  20819740.8374   20819733.4074
        57.0004         50.0004
  20976014.3804     765795.94543    597150.08842  20976015.9874   20976009.3744
        56.0004         49.0004
  22434339.0234   -3017054.48943  -2346126.89442  22434340.8994   22434334.5424
        52.0004         45.0004
  20873451.0804     658159.17844    513115.21642  20873452.4444   20873446.1214
        57.0004         50.0004
  20250233.5954   -1907021.29744  -1477463.92942  20250234.8794   20250229.2454
        58.0004         51.0004
  22769839.1884   -4883804.23943  -3790312.79542  22769840.7804   22769837.1384
        49.0004         43.0004
  23888763.6324   -2354758.17143  -1819956.80942  23888764.3244   23888759.0674
        48.0004         40.0004
 05  6 27 16  5  0.0000000  0  7G22G21G 3G18G15G14G 9
  20816679.9344   -1462721.88544  -1135901.48442  20816680.8214   20816672.9324
        57.0004         50.0004
  20982933.5214     802154.39943    625481.32442  20982934.8674   20982928.3434
        56.0004         49.0004
  22424957.0254   -3066353.49843  -2384541.71542  22424958.8774   22424953.7774
        52.0004         45.0004
  20879531.8644     690118.27544    538018.39442  20879533.9114   20879527.7664
        57.0004         50.0004
  20244967.9944   -1934693.71144  -1499026.86542  20244969.1254   20244964.3764
        58.0004         51.0004
  22750348.1634   -4986228.96943  -3870124.21242  22750349.4004   22750346.0054
        49.0004         43.0004
  23877317.0844   -2414902.01043  -1866822.08842  23877319.4534   23877315.4384
        46.0004         40.0004
 05  6 27 16  5 30.0000000  0  7G22G21G 3G18G15G14G 9
  20813674.8954   -1478515.35344  -1148208.09642  20813675.8064   20813667.1594
        58.0004         50.0004
  20989916.9594     838849.09744    654074.54842  20989918.2344   20989911.3924
        57.0004         49.0004
  22415669.3094   -3115156.79043  -2422570.25642  22415671.1114   22415666.6884
        51.0004         45.0004
  20885656.3854     722301.31444    563096.06542  20885658.3584   20885652.0074
        57.0004         50.0004
  20239758.6314   -1962070.24544  -1520359.24442  20239759.8614   20239754.5464
        58.0004         51.0004
  22730904.3624   -5088408.60543  -3949744.66142  22730907.4394   22730901.2044
        50.0004         43.0004
  23865936.1994   -2474704.88843  -1913421.65742  23865937.6604   23865935.1594
        45.0004         40.0004
 05  6 27 16  6  0.0000000  0  7G22G21G 3G18G15G14G 9
  20810723.6714   -1494024.63144  -1160293.27142  20810724.4034   20810716.4584
        58.0004         51.0004
  20996961.9874     875875.60643    682926.34442  20996964.2684   20996957.5194
        56.0004         49.0004
  22406477.5144   -3163467.54443  -2460215.01742  22406478.7494   22406474.2844
        52.0004         45.0004
  20891821.4784     754702.06143    588343.38542  20891823.5504   20891817.7124
        56.0004         50.0004
  20234604.4544   -1989154.32644  -1541463.73042  20234605.4754   20234600.4254
        58.0004         51.0004
  22711505.4824   -5190345.33143  -4029175.83342  22711509.4364   22711502.6414
        50.0004         43.0004
  23854621.1384   -2534168.44743  -1959756.90342  23854623.9484   23854619.9314
        47.0004         40.0004
 05  6 27 16  6 30.0000000  0  7G22G21G 3G18G15G14G 9
  20807826.6344   -1509246.99644  -1172154.85542  20807827.3214   20807819.3634
        57.0004         50.0004
  21004071.5944     913237.94543    712039.83442  21004073.2734   21004067.6284
        56.0004         49.0004
  22397378.3644   -3211280.42543  -2497471.83942  22397380.0914   22397375.9794
        52.0004         45.0004
  20898030.5494     787323.45144    613762.63342  20898031.6304   20898024.9684
        57.0004         50.0004
  20229507.1424   -2015940.81644  -1562336.33242  20229508.5474   20229503.1664
        58.0004         50.0004
  22692155.8164   -5292032.97743  -4108412.91942  22692158.5664   22692152.0044
        50.0004         43.0004
  23843372.0264   -2593285.75143  -2005822.26442  23843372.7434   23843371.1364
        47.0004         40.0004
 05  6 27 16  7  0.0000000  0  7G22G21G 3G18G15G14G 9
  20804984.6584   -1524182.61744  -1183792.99742  20804985.6544   20804977.5304
        57.0004         50.0004
  21011246.5144     950937.24944    741415.88242  21011247.5774   21011241.3494
        57.0004         49.0004
  22388375.5684   -3258593.84243  -2534339.43042  22388377.4354   22388372.1064
        53.0004         46.0004
  20904279.2284     820164.29143    639352.88342  20904281.0144   20904274.1784
        56.0004         50.0004
  20224467.2524   -2042427.78644  -1582975.54642  20224468.5424   20224462.8964
        58.0004         51.0004
  22672852.5934   -5393468.30143  -4187453.37642  22672853.9574   22672851.3254
        50.0004         43.0004
  23832183.3674   -2652053.10343  -2051614.95342  23832185.9634   23832188.6354
        43.0004         39.0004
 05  6 27 16  7 30.0000000  0  7G22G21G 3G18G15G14G 9
  20802195.5184   -1538836.91844  -1195211.94442  20802196.3604   20802188.4004
        57.0004         50.0004
  21018483.6894     988969.52144    771051.39242  21018485.4854   21018478.6844
        57.0004         49.0004
  22379465.4774   -3305410.22243  -2570819.73542  22379467.8174   22379462.8914
        52.0004         45.0004
  20910568.8254     853219.44843    665110.13342  20910570.3964   20910564.3444
        56.0004         50.0004
  20219482.6914   -2068617.94444  -1603383.47842  20219484.1024   20219479.4284
        58.0004         51.0004
  22653598.3274   -5494653.26043  -4266298.77242  22653600.2594   22653595.9504
        50.0004         43.0004
  23821072.5064   -2710471.74343  -2097135.96042  23821074.5744   23821071.5584
        45.0004         40.0004
 05  6 27 16  8  0.0000000  0  7G22G21G 3G18G15G14G 9
  20799461.8644   -1553206.10544  -1206408.73342  20799462.5034   20799454.2004
        57.0004         50.0004
  21025785.4474    1027339.68144    800950.18442  21025786.8524   21025780.2264
        57.0004         49.0004
  22370652.5174   -3351723.62543  -2606908.12742  22370654.5374   22370649.0804
        52.0004         45.0004
  20916901.5124     886491.92744    691036.72342  20916902.8324   20916896.4724
        57.0004         50.0004
  20214557.0844   -2094505.27344  -1623555.43442  20214558.3614   20214553.0324
        58.0004         51.0004
  22634392.5754   -5595581.03543  -4344943.76142  22634394.3504   22634388.8904
        50.0004         43.0004
  23810022.1184   -2768534.02243  -2142379.21242  23810024.0734   23810020.9124
        46.0004         40.0004
 05  6 27 16  8 30.0000000  0  7G22G21G 3G18G15G14G 9
  20796780.8104   -1567294.21144  -1217386.48442  20796781.5554   20796773.5944
        57.0004         50.0004
  21033150.8014    1066045.09844    831110.22742  21033152.2904   21033145.5944
        57.0004         49.0004
  22361935.2584   -3397535.89243  -2642606.00942  22361937.6334   22361932.0994
        52.0004         45.0004
  20923273.2844     919977.40344    717129.27542  20923275.2124   20923268.2394
        57.0004         50.0004
  20209687.5794   -2120091.54044  -1643492.79142  20209689.0324   20209683.9844
        58.0004         51.0004
  22615235.6454   -5696251.94843  -4423388.60042  22615237.3474   22615233.0054
        51.0004         43.0004
  23799040.6004   -2826240.28043  -2187345.08742  23799043.1404   23799038.3474
        46.0004         40.0004
 05  6 27 16  9  0.0000000  0  7G22G21G 3G18G15G14G 9
  20794155.0464   -1581091.99844  -1228138.00442  20794155.5344   20794148.2974
        57.0004         51.0004
  21040581.5354    1105096.02343    861539.49642  21040582.9054   21040577.1584
        56.0004         49.0004
  22353315.4294   -3442835.54943  -2677904.47642  22353316.9594   22353311.6804
        53.0004         45.0004
  20929686.6844     953684.84243    743394.78942  20929688.6284   20929682.9644
        56.0004         50.0004
  20204878.8714   -2145365.10744  -1663186.49042  20204879.9104   20204874.6854
        58.0004         51.0004
  22596129.4054   -5796653.81243  -4501623.78342  22596130.5064   22596127.1314
        50.0004         43.0004
  23788130.5804   -2883577.23943  -2232023.21842  23788132.0794   23788127.6064
        46.0004         40.0004
 05  6 27 16  9 30.0000000  0  7G22G21G 3G18G15G14G 9
  20791581.7024   -1594617.05144  -1238677.01742  20791582.4214   20791573.9894
        58.0004         51.0004
  21048075.5474    1144476.50943    892225.56242  21048076.8844   21048071.6014
        56.0004         49.0004
  22344790.1494   -3487637.47043  -2712815.06742  22344791.6064   22344785.7484
        53.0004         45.0004
  20936140.8954     987596.11044    769819.13942  20936142.4154   20936135.8184
        57.0004         50.0004
  20200125.9674   -2170341.00744  -1682648.24742  20200127.4064   20200122.1464
        58.0004         51.0004
  22577071.7994   -5896800.24843  -4579659.93342  22577075.7434   22577069.4364
        50.0004         43.0004
  23777288.1094   -2940558.54343  -2276424.18142  23777289.8124   23777284.2484
        46.0004         39.0004
 05  6 27 16 10  0.0000000  0  7G22G21G 3G18G15G14G 9
  20789061.2384   -1607860.34244  -1248996.48742  20789061.7754   20789054.1194
        57.0004         50.0004
  21055633.5634    1184196.91043    923176.49342  21055635.0704   21055629.2874
        56.0004         49.0004
  22336361.0744   -3531930.42143  -2747329.05742  22336362.4114   22336357.6924
        52.0004         45.0004
  20942634.1884    1021720.37044    796409.45142  20942635.8224   20942629.1314
        57.0004         50.0004
  20195431.9794   -2195007.93044  -1701869.23342  20195433.1834   20195428.0044
        58.0004         51.0004
  22558065.4074   -5996679.11943  -4657487.57842  22558068.4754   22558063.3454
        51.0004         44.0004
  23766511.7754   -2997170.91743  -2320537.65142  23766514.9214   23766513.1644
        44.0004         39.0004
 05  6 27 16 10 30.0000000  0  7G22G21G 3G18G15G14G 9
  20786594.5624   -1620824.78744  -1259098.65542  20786594.7564   20786587.3704
        57.0004         50.0004
  21063257.6694    1224254.69544    954390.32442  21063258.9794   21063251.6864
        57.0004         49.0004
  22328028.4594   -3575715.52643  -2781447.33042  22328030.5254   22328025.8194
        52.0004         45.0004
  20949168.1064    1056053.72944    823162.69542  20949169.6844   20949163.0654
        57.0004         50.0004
  20190796.7684   -2219366.67944  -1720850.08742  20190797.8494   20190792.9064
        58.0004         51.0004
  22539109.9574   -6096289.87143  -4735106.30742  22539111.5594   22539108.0694
        50.0004         43.0004
  23755814.4044   -3053413.64143  -2364363.08742  23755814.7184   23755809.1194
        45.0004         39.0004
 05  6 27 16 11  0.0000000  0  7G22G21G 3G18G15G14G 9
  20784180.4204   -1633509.77144  -1268983.07442  20784181.2584   20784172.9954
        58.0004         51.0004
  21070945.1574    1264653.00644    985869.50642  21070946.3584   21070939.3554
        57.0004         49.0004
  22319793.4604   -3618989.39543  -2815167.24342  22319794.5914   22319791.1754
        52.0004         45.0004
  20955740.5724    1090597.15443    850079.63342  20955742.3294   20955736.3164
        56.0004         50.0004
  20186220.3474   -2243413.88844  -1739588.18542  20186221.5344   20186216.8004
        57.0004         51.0004
  22520206.6304   -6195628.44143  -4812512.95842  22520209.2224   22520203.9254
        50.0004         43.0004
  23745179.4784   -3109282.02443  -2407896.86942  23745182.3044   23745179.5884
        46.0004         40.0004
 05  6 27 16 11 30.0000000  0  7G22G21G 3G18G15G14G 9
  20781818.4514   -1645920.06144  -1278653.43242  20781818.9194   20781811.0284
        57.0004         50.0004
  21078696.0644    1305387.71243   1017610.80942  21078698.0484   21078691.2424
        56.0004         49.0004
  22311657.4704   -3661754.70343  -2848490.87542  22311658.2634   22311653.1244
        52.0004         45.0004
  20962353.9404    1125345.38444    877156.15842  20962355.4564   20962348.4484
        57.0004         50.0004
  20181704.0344   -2267152.07944  -1758085.48542  20181704.4494   20181699.6194
        58.0004         51.0004
  22501354.6054   -6294696.18143  -4889708.56242  22501356.0514   22501352.5994
        50.0004         43.0004
  23734620.7094   -3164777.12443  -2451139.73442  23734622.4094   23734617.7904
        46.0004         40.0004
 05  6 27 16 12  0.0000000  0  7G22G21G 3G18G15G14G 9
  20779510.8034   -1658049.82544  -1288105.20742  20779511.3374   20779503.2904
        57.0004         50.0004
  21086512.2724    1346465.74043   1049619.63342  21086514.1274   21086508.3174
        56.0004         48.0004
  22303615.8514   -3704003.58243  -2881412.08742  22303617.1404   22303613.2784
        52.0004         45.0004
  20969005.2474    1160303.51643    904396.24042  20969007.3684   20969000.6984
        56.0004         50.0004
  20177246.4924   -2290573.11744  -1776335.65842  20177247.5764   20177242.6484
        58.0004         51.0004
  22482555.6294   -6393484.05543  -4966686.11242  22482558.3914   22482553.2654
        50.0004         44.0004
  23724131.8564   -3219888.97143  -2494083.99242  23724133.2764   23724129.3554
        47.0004         40.0004
 05  6 27 16 12 30.0000000  0  7G22G21G 3G18G15G14G 9
  20777254.4044   -1669904.98544  -1297342.99442  20777255.3434   20777247.5784
        57.0004         50.0004
  21094395.1614    1387882.56243   1081892.47042  21094396.0414   21094389.1844
        56.0004         48.0004
  22295674.9614   -3745739.78343  -2913933.83542  22295676.1764   22295670.2294
        52.0004         44.0004
  20975697.3084    1195465.61844    931795.25242  20975699.0614   20975692.3434
        57.0004         50.0004
  20172849.4564   -2313680.72844  -1794341.60442  20172850.2444   20172845.7334
        57.0004         51.0004
  22463810.4654   -6491994.61443  -5043447.55142  22463812.1614   22463807.6804
        50.0004         44.0004
  23713716.4484   -3274619.63043  -2536731.23042  23713718.3544   23713716.3294
        45.0004         40.0004
 05  6 27 16 13  0.0000000  0  7G22G21G 3G18G15G14G 9
  20775050.8734   -1681485.03044  -1306366.41142  20775051.6254   20775043.8814
        57.0004         50.0004
  21102340.7534    1429639.99843   1114430.70242  21102342.1534   21102335.7114
        56.0004         49.0004
  22287829.8524   -3786960.38143  -2946053.77842  22287831.5504   22287827.0014
        52.0004         45.0004
  20982425.9004    1230831.71643    959353.24342  20982428.0404   20982422.2564
        56.0004         50.0004
  20168512.3674   -2336471.83644  -1812100.90542  20168513.1884   20168508.7564
        58.0004         51.0004
  22445117.9984   -6590224.13743  -5119989.99242  22445119.3124   22445116.1994
        50.0004         44.0004
  23703376.0374   -3328964.71643  -2579078.03142  23703378.2384   23703375.6814
        47.0004         40.0004
 05  6 27 16 13 30.0000000  0  8G22G21G 3G18G15G14G 9G19
  20772899.3184   -1692793.93244  -1315178.55142  20772900.0424   20772891.9814
        58.0004         51.0004
  21110351.1704    1471735.25043   1147232.17342  21110352.2154   21110346.3684
        56.0004         48.0004
  22280084.5574   -3827667.01743  -2977773.25242  22280085.3644   22280080.9134
        52.0004         45.0004
  20989194.9784    1266397.58443    987066.88142  20989196.6674   20989189.8854
        56.0004         50.0004
  20164235.1344   -2358947.94944  -1829614.77042  20164236.7004   20164231.2034
        58.0004         51.0004
  22426479.1294   -6688173.12443  -5196313.83242  22426479.7654   22426475.3804
        50.0004         44.0004
  23693106.3494   -3382924.51043  -2621124.56442  23693108.4214   23693106.3824
        46.0004         40.0004
  24284963.8474   -4569432.54253  -3495303.18252  24284964.7864   24284958.9054
        48.0004         41.0004
 05  6 27 16 14  0.0000000  0  8G22G21G 3G18G15G14G 9G19
  20770799.4824   -1703828.35544  -1323776.81742  20770799.9744   20770791.9114
        58.0004         50.0004
  21118427.1194    1514172.83143   1180300.39742  21118428.2094   21118421.8874
        56.0004         49.0004
  22272437.9814   -3867854.37143  -3009088.09542  22272439.3234   22272433.4554
        53.0004         45.0004
  20996001.5464    1302166.33943   1014938.61842  20996003.2404   20995997.2464
        56.0004         50.0004
  20160019.8374   -2381103.32944  -1846878.72042  20160020.8254   20160014.9274
        58.0004         51.0004
  22407892.5824   -6785834.56043  -5272413.62742  22407895.8494   22407890.6244
        50.0004         43.0004
  23682915.9424   -3436491.34943  -2662864.90042  23682915.7814   23682910.5934
        48.0004         40.0004
  24267676.0654   -4660267.65043  -3566083.76642  24267677.3084   24267672.3154
        46.0004         40.0004
 05  6 27 16 14 30.0000000  0  8G22G21G 3G18G15G14G 9G19
  20768751.2744   -1714586.97844  -1332160.18042  20768752.7764   20768744.7224
        57.0004         50.0004
  21126568.7814    1556955.34543   1213637.38742  21126570.0404   21126563.3724
        56.0004         49.0004
  22264888.9254   -3907519.02843  -3039995.61142  22264890.7554   22264885.6354
        53.0004         45.0004
  21002846.7564    1338139.18443   1042969.38742  21002849.0704   21002841.8974
        56.0004         50.0004
  20155864.4934   -2402934.48044  -1863890.02142  20155865.6984   20155860.5074
        57.0004         51.0004
  22389366.7514   -6883203.94643  -5348285.85042  22389368.0674   22389362.2654
        51.0004         44.0004
  23672795.8594   -3489660.22943  -2704295.17142  23672798.3784   23672797.1554
        47.0004         41.0004
  24250442.5474   -4750829.25243  -3636651.22542  24250444.8904   24250439.2634
        45.0004         40.0004
 05  6 27 16 15  0.0000000  0  8G22G21G 3G18G15G14G 9G19
  20766754.5724   -1725082.30744  -1340338.36242  20766755.4274   20766748.3374
        57.0004         51.0004
  21134773.4834    1600071.72344   1247234.54342  21134775.1234   21134767.7494
        57.0004         48.0004
  22257438.3564   -3946671.20943  -3070503.80442  22257440.4734   22257435.3814
        54.0004         45.0004
  21009728.3934    1374303.46143   1071149.33342  21009730.0524   21009723.9174
        56.0004         49.0004
  20151771.1654   -2424451.25444  -1880656.34442  20151772.1144   20151766.9954
        58.0004         51.0004
  22370889.4624   -6980290.54743  -5423937.70042  22370892.4344   22370887.9164
        50.0004         44.0004
  23662753.7944   -3542439.85943  -2745422.08842  23662755.2284   23662751.2574
        49.0004         41.0004
  24233261.9914   -4841126.27943  -3707012.52542  24233262.2944   24233257.3694
        47.0004         41.0004
 05  6 27 16 15 30.0000000  0  8G22G21G 3G18G15G14G 9G19
  20764809.5964   -1735302.41444  -1348302.08142  20764810.4224   20764802.6104
        57.0004         50.0004
  21143043.3174    1643534.90543   1281101.94742  21143045.1794   21143038.6484
        56.0004         48.0004
  22250088.0034   -3985297.10943  -3100601.93042  22250090.0814   22250084.5344
        53.0004         45.0004
  21016649.5964    1410670.33044   1099487.13142  21016650.5524   21016644.3824
        57.0004         49.0004
  20147738.4684   -2445639.55744  -1897166.71742  20147739.7644   20147735.3984
        58.0004         51.0004
  22352472.1564   -7077079.16143  -5499357.37142  22352474.7644   22352470.4194
        51.0004         44.0004
  23652786.0934   -3594814.68343  -2786233.58342  23652788.9924   23652784.3094
        47.0004         40.0004
  24216129.9664   -4931143.77043  -3777155.98442  24216132.2664   24216127.8894
        47.0004         41.0004
 05  6 27 16 16  0.0000000  0  8G22G21G 3G18G15G14G 9G19
  20762916.6614   -1745254.09844  -1356056.65642  20762917.3464   20762908.6764
        58.0004         50.0004
  21151379.3934    1687339.13243   1315235.07942  21151381.1814   21151374.0544
        56.0004         48.0004
  22242836.5054   -4023401.34143  -3130293.55742  22242839.0954   22242834.1684
        52.0004         45.0004
  21023606.7954    1447233.08143   1127977.56242  21023608.0944   21023601.7884
        56.0004         49.0004
  20143768.3504   -2466503.53544  -1913424.38042  20143769.3844   20143764.5064
        58.0004         51.0004
  22334109.2494   -7173572.93243  -5574547.28642  22334110.6174   22334106.5244
        51.0004         44.0004
  23642895.7704   -3646787.48743  -2826731.87242  23642898.8284   23642893.4024
        48.0004         41.0004
  24199053.0394   -5020884.92543  -3847084.16142  24199055.0954   24199049.2664
        47.0004         41.0004
 05  6 27 16 16 30.0000000  0  8G22G21G 3G18G15G14G 9G19
  20761074.8094   -1754933.98144  -1363599.43942  20761075.2944   20761066.8404
        57.0004         50.0004
  21159780.6564    1731489.00543   1349637.56442  21159781.9854   21159775.6124
        56.0004         48.0004
  22235686.5244   -4060978.65743  -3159574.60342  22235687.9634   22235683.5994
        52.0004         45.0004
  21030602.1274    1483994.78743   1156623.02742  21030603.6874   21030597.8224
        56.0004         50.0004
  20139861.1714   -2487037.48644  -1929424.86742  20139862.1484   20139856.8384
        58.0004         51.0004
  22315804.9834   -7269765.55043  -5649502.53042  22315806.7674   22315801.9004
        52.0004         45.0004
  23633084.0734   -3698351.02143  -2866911.22242  23633086.5604   23633083.0064
        48.0004         41.0004
  24182029.3404   -5110342.98643  -3916791.69942  24182030.7994   24182026.1914
        47.0004         41.0004
 05  6 27 16 17  0.0000000  0  8G22G21G 3G18G15G14G 9G19
  20759281.8494   -1764350.58344  -1370937.05142  20759282.9644   20759275.1674
        57.0004         50.0004
  21168247.0434    1775977.05143   1384303.54942  21168248.3004   21168241.7734
        56.0004         49.0004
  22228635.4994   -4098035.26843  -3188449.89742  22228636.9624   22228631.1264
        53.0004         45.0004
  21037633.9344    1520946.60143   1185416.62442  21037635.3374   21037629.9894
        56.0004         50.0004
  20136014.5294   -2507247.74344  -1945173.12842  20136016.4064   20136011.1114
        58.0004         51.0004
  22297557.2934   -7365662.06243  -5724227.05942  22297559.1024   22297554.4064
        52.0004         45.0004
  23623349.5764   -3749510.01243  -2906775.32142  23623350.1204   23623344.3794
        49.0004         41.0004
  24165060.7884   -5199522.98143  -3986282.58942  24165062.2854   24165055.1864
        48.0004         41.0004
 05  6 27 16 17 30.0000000  0  8G22G21G 3G18G15G14G 9G19
  20757541.6724   -1773498.85744  -1378065.58242  20757542.4364   20757534.5674
        58.0004         51.0004
  21176777.9324    1820809.68743   1419238.05142  21176779.2874   21176772.9744
        56.0004         48.0004
  22221683.4144   -4134564.16643  -3216913.99442  22221685.6134   22221680.1114
        52.0004         45.0004
  21044702.9584    1558093.01943   1214361.86042  21044704.7214   21044698.4524
        56.0004         50.0004
  20132232.1114   -2527126.89644  -1960663.40342  20132233.3574   20132228.1384
        58.0004         51.0004
  22279366.2444   -7461254.01243  -5798714.25142  22279368.3354   22279362.3014
        51.0004         45.0004
  23613692.2684   -3800255.61743  -2946317.33242  23613694.9694   23613689.4224
        48.0004         40.0004
  24148142.1914   -5288416.61343  -4055550.33042  24148143.5924   24148140.3354
        47.0004         41.0004
 05  6 27 16 18  0.0000000  0  8G22G21G 3G18G15G14G 9G19
  20755852.0464   -1782378.27144  -1384984.61242  20755852.7164   20755845.2054
        57.0004         51.0004
  21185375.4524    1865988.37943   1454442.20142  21185376.5034   21185369.9204
        56.0004         48.0004
  22214834.3464   -4170562.80943  -3244964.89542  22214835.5794   22214830.1444
        53.0004         46.0004
  21051808.2884    1595434.36243   1243458.99842  21051810.0844   21051804.3714
        56.0004         50.0004
  20128513.2424   -2546671.88344  -1975893.27342  20128514.2854   20128508.6594
        58.0004         51.0004
  22261234.1444   -7556537.82043  -5872961.32342  22261236.4304   22261230.9814
        52.0004         45.0004
  23604114.2784   -3850583.38543  -2985533.78842  23604116.5374   23604112.1194
        48.0004         41.0004
  24131280.5244   -5377019.77043  -4124591.74242  24131284.1174   24131279.2164
        46.0004         41.0004
 05  6 27 16 18 30.0000000  0  8G22G21G 3G18G15G14G 9G19
  20754212.2464   -1790994.70444  -1391698.71942  20754212.9064   20754205.2624
        57.0004         51.0004
  21194037.4344    1911508.73743   1489912.58842  21194038.6604   21194031.8934
        56.0004         48.0004
  22208083.7804   -4206034.85443  -3272605.47142  22208085.2994   22208079.2764
        53.0004         46.0004
  21058950.9174    1632964.99543   1272703.60942  21058952.3394   21058946.5294
        56.0004         50.0004
  20124856.3924   -2565886.13944  -1990865.42142  20124857.6824   20124852.8944
        58.0004         51.0004
  22243161.3864   -7651515.71143  -5946970.03342  22243162.4574   22243157.9884
        51.0004         45.0004
  23594616.0684   -3900495.42843  -3024426.25242  23594617.6154   23594618.2184
        47.0004         40.0004
  24114478.4674   -5465334.39043  -4193408.34342  24114479.6924   24114473.5104
        48.0004         41.0004
 05  6 27 16 19  0.0000000  0  8G22G21G 3G18G15G14G 9G19
  20752622.0884   -1799348.61544  -1398208.27942  20752623.1874   20752615.0924
        57.0004         50.0004
  21202765.0804    1957371.21943   1525649.54942  21202766.5914   21202759.6344
        56.0004         48.0004
  22201433.0484   -4240979.17743  -3299834.83242  22201435.7384   22201431.0674
        53.0004         46.0004
  21066128.1344    1670684.43243   1302095.36642  21066129.8504   21066123.8734
        56.0004         49.0004
  20121263.5444   -2584767.89744  -2005578.48742  20121265.0074   20121259.9464
        58.0004         51.0004
  22225144.5694   -7746185.19043  -6020738.39042  22225147.0014   22225142.7904
        52.0004         45.0004
  23585198.8864   -3949988.57543  -3062992.29442  23585200.8204   23585196.1104
        48.0004         40.0004
  24097726.1814   -5553358.01843  -4261998.16842  24097728.1124   24097721.5634
        47.0004         41.0004
 05  6 27 16 19 30.0000000  0  8G22G21G 3G18G15G14G 9G19
  20751083.4024   -1807434.63544  -1404509.09742  20751084.3284   20751076.5054
        57.0004         50.0004
  21211557.4644    2003582.30243   1561658.16542  21211559.8574   21211553.7014
        55.0004         48.0004
  22194885.1034   -4275388.47143  -3326647.29742  22194887.6394   22194881.8914
        52.0004         45.0004
  21073343.3804    1708597.33544   1331637.84942  21073344.7804   21073338.4644
        57.0004         49.0004
  20117734.8394   -2603309.37744  -2020026.40542  20117735.8894   20117731.7864
        57.0004         51.0004
  22207191.6244   -7840537.36443  -6094259.54342  22207193.3684   22207187.8614
        53.0004         46.0004
  23575860.5984   -3999053.82843  -3101224.97642  23575862.2884   23575859.6994
        48.0004         40.0004
  24081033.6534   -5641081.76143  -4330354.33942  24081035.4454   24081029.7074
        47.0004         42.0004
 05  6 27 16 20  0.0000000  0  8G22G21G 3G18G15G14G 9G19
  20749593.6344   -1815266.70644  -1410612.01142  20749594.4954   20749586.4504
        58.0004         51.0004
  21220416.7764    2050130.02343   1597929.08542  21220417.7534   21220411.3554
        56.0004         48.0004
  22188437.7394   -4309273.98943  -3353051.61142  22188439.1854   22188434.4524
        53.0004         45.0004
  21080591.7084    1746689.98743   1361320.41142  21080593.4544   21080587.5364
        56.0004         49.0004
  20114269.6604   -2621521.62944  -2034217.77042  20114269.9384   20114265.4684
        58.0004         51.0004
  22189293.7134   -7934582.44543  -6167541.37542  22189295.6564   22189291.8894
        52.0004         45.0004
  23566603.8194   -4047700.88543  -3139131.73842  23566606.2414   23566604.1364
        47.0004         40.0004
  24064397.1744   -5728515.40443  -4398484.44242  24064399.0804   24064392.1674
        49.0004         42.0004
 05  6 27 16 20 30.0000000  0  8G22G21G 3G18G15G14G 9G19
  20748154.1074   -1822831.01444  -1416506.28342  20748154.9674   20748146.6964
        57.0004         50.0004
  21229340.5544    2097028.22643   1634473.11242  21229341.6744   21229336.2224
        56.0004         48.0004
  22182092.6524   -4342620.68743  -3379036.07042  22182094.4224   22182088.9984
        54.0004         46.0004
  21087877.3344    1784975.45143   1391153.21542  21087878.8794   21087872.4444
        56.0004         49.0004
  20110870.2214   -2639388.92944  -2048140.36242  20110871.1494   20110865.0684
        58.0004         51.0004
  22171460.3884   -8028303.97443  -6240571.09742  22171462.4144   22171456.9614
        53.0004         46.0004
  23557429.5554   -4095912.64243  -3176699.31742  23557431.5814   23557429.5654
        48.0004         41.0004
  24047817.0334   -5815642.65643  -4466375.80142  24047818.2944   24047812.1164
        48.0004         42.0004
 05  6 27 16 21  0.0000000  0  8G22G21G 3G18G15G14G 9G19
  20746763.7914   -1830139.13744  -1422200.93642  20746764.2944   20746756.1534
        58.0004         50.0004
  21238329.5474    2144266.70543   1671282.29642  21238331.0924   21238325.5414
        56.0004         48.0004
  22175846.2614   -4375438.10943  -3404608.09242  22175848.7094   22175843.1774
        53.0004         46.0004
  21095197.4964    1823442.24943   1421127.31442  21095199.2934   21095192.3614
        56.0004         49.0004
  20107533.2114   -2656920.47144  -2061801.30342  20107534.5474   20107529.5014
        58.0004         51.0004
  22153684.8434   -8121710.06343  -6313355.02342  22153686.8274   22153682.0414
        52.0004         46.0004
  23548337.2024   -4143696.72043  -3213933.66542  23548339.2384   23548337.0674
        47.0004         40.0004
  24031292.2114   -5902471.06243  -4534034.26442  24031294.2174   24031290.0344
        47.0004         42.0004
 05  6 27 16 21 30.0000000  0  8G22G21G 3G18G15G14G 9G19
  20745422.9854   -1837181.65644  -1427688.63642  20745424.0694   20745416.2924
        57.0004         51.0004
  21247385.7234    2191856.20843   1708364.98442  21247386.7134   21247381.3394
        55.0004         48.0004
  22169705.2734   -4407714.83743  -3429758.79642  22169706.7814   22169701.9264
        53.0004         46.0004
  21102553.9114    1862100.14143   1451250.31142  21102555.2904   21102548.9314
        56.0004         49.0004
  20104263.3154   -2674104.43744  -2075191.41842  20104264.2064   20104259.7034
        58.0004         51.0004
  22135973.6514   -8214788.11343  -6385883.32842  22135975.7044   22135970.1414
        52.0004         46.0004
  23539326.6514   -4191040.04043  -3250824.53142  23539329.5184   23539325.2924
        47.0004         40.0004
  24014828.2394   -5988988.12143  -4601450.15442  24014830.2354   24014826.1334
        46.0004         41.0004
 05  6 27 16 22  0.0000000  0  8G22G21G 3G18G15G14G 9G19
  20744131.1844   -1843970.46344  -1432978.61842  20744131.8414   20744124.2564
        57.0004         51.0004
  21256506.7104    2239785.85943   1745712.74142  21256507.9044   21256502.2054
        55.0004         48.0004
  22163664.7434   -4439460.98243  -3454496.07242  22163666.1364   22163660.9574
        53.0004         46.0004
  21109943.9024    1900936.10444   1481512.08742  21109945.7494   21109939.0634
        57.0004         49.0004
  20101057.8594   -2690950.28544  -2088318.06342  20101058.8214   20101053.6204
        58.0004         51.0004
  22118321.5984   -8307546.66943  -6458162.66242  22118323.8024   22118318.2524
        53.0004         46.0004
  23530403.8414   -4237951.02243  -3287378.52942  23530404.8294   23530399.7754
        49.0004         41.0004
  23998423.2024   -6075202.33143  -4668630.04042  23998424.7734   23998419.0614
        46.0004         41.0004
 05  6 27 16 22 30.0000000  0  8G22G21G 3G18G15G14G 9G19
  20742889.4204   -1850498.98744  -1438065.78842  20742889.7504   20742881.4544
        58.0004         51.0004
  21265694.3044    2288063.07743   1783331.31642  21265694.8914   21265688.9454
        56.0004         48.0004
  22157724.9444   -4470668.17543  -3478813.37342  22157726.5824   22157722.0104
        52.0004         46.0004
  21117369.4624    1939956.73444   1511917.73342  21117371.5594   21117364.0934
        57.0004         49.0004
  20097917.9214   -2707449.18344  -2101174.34742  20097918.6444   20097914.4014
        57.0004         51.0004
  22100732.6184   -8399975.94643  -6530185.44142  22100733.8854   22100729.8524
        52.0004         45.0004
  23521558.9004   -4284419.25343  -3323587.52042  23521561.3834   23521555.7864
        48.0004         41.0004
  23982075.7634   -6161103.45543  -4735565.92742  23982076.4324   23982072.3984
        46.0004         41.0004
 05  6 27 16 23  0.0000000  0  8G22G21G 3G18G15G14G 9G19
  20741695.6214   -1856771.38744  -1442953.39242  20741696.3494   20741688.6534
        57.0004         51.0004
  21274946.8534    2336684.95043   1821218.45842  21274947.8774   21274941.4674
        56.0004         48.0004
  22151888.2024   -4501338.70043  -3502712.48942  22151890.1034   22151886.1104
        52.0004         46.0004
  21124828.2224    1979157.74343   1542463.95042  21124830.2074   21124824.1524
        56.0004         49.0004
  20094844.0734   -2723602.67644  -2113761.49642  20094845.3244   20094840.5454
        57.0004         51.0004
  22083206.8474   -8492076.94243  -6601952.40442  22083209.7004   22083203.2724
        53.0004         46.0004
  23512800.2924   -4330445.12743  -3359451.79542  23512802.8144   23512797.9944
        47.0004         40.0004
  23965789.3804   -6246692.04043  -4802258.34342  23965789.1684   23965785.4684
        45.0004         41.0004
 05  6 27 16 23 30.0000000  0  8G22G21G 3G18G15G14G 9G19
  20740550.2214   -1862788.96144  -1447642.41742  20740551.1614   20740543.2294
        57.0004         51.0004
  21284263.8294    2385651.31343   1859374.02542  21284265.7054   21284259.3744
        56.0004         48.0004
  22146154.7854   -4531472.25643  -3526193.18742  22146155.8654   22146151.4464
        52.0004         45.0004
  21132323.4004    2018538.03844   1573149.86142  21132325.0064   21132317.8344
        57.0004         49.0004
  20091836.3044   -2739409.94944  -2126078.86842  20091837.5634   20091832.2134
        58.0004         51.0004
  22065744.1594   -8583847.68543  -6673462.04342  22065745.6514   22065740.2854
        53.0004         46.0004
  23504126.4454   -4376026.40643  -3394969.60542  23504130.0044   23504125.2494
        48.0004         40.0004
  23949563.3624   -6331966.56543  -4868706.00242  23949564.3924   23949557.4154
        46.0004         41.0004
 05  6 27 16 24  0.0000000  0  8G22G21G 3G18G15G14G 9G19
  20739454.3164   -1868550.00944  -1452131.55542  20739455.1114   20739446.8074
        58.0004         51.0004
  21293647.9374    2434964.76043   1897800.05942  21293649.3824   21293643.7694
        56.0004         48.0004
  22140523.4214   -4561065.33243  -3549252.74042  22140525.0734   22140520.1984
        52.0004         45.0004
  21139851.1274    2058099.03943   1603976.58942  21139852.5084   21139846.0674
        56.0004         49.0004
  20088894.7954   -2754866.80644  -2138123.18142  20088895.8824   20088891.0674
        58.0004         51.0004
  22048342.7874   -8675283.32543  -6744710.55042  22048345.3914   22048340.9524
        52.0004         46.0004
  23495538.0444   -4421157.76143  -3430136.82542  23495539.8714   23495535.9004
        48.0004         40.0004
  23933393.5034   -6416921.78843  -4934904.84842  23933395.2704   23933391.3764
        45.0004         41.0004
 05  6 27 16 24 30.0000000  0  8G22G21G 3G18G15G14G 9G19
  20738405.9324   -1874055.30844  -1456421.42142  20738406.9354   20738399.4684
        57.0004         51.0004
  21303098.5014    2484625.50243   1936496.71842  21303099.8944   21303093.9004
        56.0004         48.0004
  22134995.9704   -4590116.67443  -3571890.17142  22134997.5134   22134992.8734
        53.0004         46.0004
  21147413.7984    2097839.58344   1634943.22742  21147415.5594   21147408.7724
        57.0004         49.0004
  20086020.8884   -2769971.70044  -2149893.24142  20086021.9614   20086016.6314
        58.0004         51.0004
  22031009.1664   -8766381.41443  -6815696.03942  22031010.1264   22031005.0524
        53.0004         46.0004
  23487035.6804   -4465836.21243  -3464951.14542  23487039.3334   23487035.5984
        48.0004         41.0004
  23917290.5774   -6501554.66643  -5000852.53342  23917292.0094   23917286.6784
        46.0004         41.0004
 05  6 27 16 25  0.0000000  0  8G22G21G 3G18G15G14G 9G19
  20737406.2544   -1879311.49344  -1460517.14742  20737406.6994   20737399.1514
        57.0004         50.0004
  21312614.1584    2534628.56643   1975460.10442  21312615.9434   21312608.5214
        56.0004         48.0004
  22129567.9094   -4618631.08943  -3594109.19342  22129569.9294   22129565.4084
        52.0004         46.0004
  21155009.2144    2137753.12143   1666044.65842  21155010.2464   21155003.9314
        56.0004         49.0004
  20083212.0434   -2784728.80444  -2161392.28942  20083212.9024   20083208.6034
        57.0004         51.0004
  22013736.3664   -8857144.95143  -6886420.84342  22013738.4334   22013733.4554
        53.0004         46.0004
  23478620.3524   -4510064.65843  -3499414.81442  23478621.2984   23478617.7224
        48.0004         41.0004
  23901246.3414   -6585868.29943  -5066551.46342  23901247.0954   23901241.6454
        46.0004         42.0004
 05  6 27 16 25 30.0000000  0  8G22G21G 3G18G15G14G 9G19
  20736454.4904   -1884315.57644  -1464416.43642  20736455.0134   20736446.7674
        58.0004         50.0004
  21322193.9704    2584977.44743   2014692.97142  21322195.9714   21322190.0314
        55.0004         48.0004
  22124246.5344   -4646604.08443  -3615906.35142  22124247.3254   22124243.2684
        52.0004         46.0004
  21162637.6114    2177842.52044   1697283.12942  21162639.4064   21162633.1274
        57.0004         49.0004
  20080471.0974   -2799133.08344  -2172616.40842  20080472.0444   20080467.5464
        58.0004         51.0004
  21996529.6194   -8947568.18543  -6956880.46542  21996531.1834   21996525.9734
        53.0004         46.0004
  23470290.0814   -4553836.91743  -3533523.00642  23470292.8734   23470288.9614
        48.0004         41.0004
  23885262.8524   -6669856.76743  -5131997.01542  23885264.7294   23885258.6314
        46.0004         41.0004
 05  6 27 16 26  0.0000000  0  8G22G21G 3G18G15G14G 9G19
  20735550.0844   -1889064.50744  -1468116.92842  20735551.5294   20735543.2754
        57.0004         51.0004
  21331842.6054    2635676.24343   2054198.49942  21331843.5534   21331837.4694
        56.0004         48.0004
  22119025.5984   -4674030.99243  -3637277.97242  22119027.4144   22119024.2714
        52.0004         46.0004
  21170300.5864    2218110.55744   1728660.79342  21170302.3854   21170295.6884
        57.0004         49.0004
  20077798.6344   -2813178.87544  -2183561.18842  20077799.4804   20077794.4344
        58.0004         51.0004
  21979388.5774   -9037644.81143  -7027070.01042  21979390.6994   21979385.3534
        53.0004         46.0004
  23462047.4014   -4597146.05943  -3567270.35042  23462049.2494   23462045.6734
        47.0004         40.0004
  23869343.2414   -6753513.44143  -5197183.99642  23869345.8334   23869339.4754
        46.0004         41.0004
 05  6 27 16 26 30.0000000  0  8G22G21G 3G18G15G14G 9G19
  20734694.3424   -1893565.32644  -1471624.06642  20734694.5644   20734686.9294
        57.0004         51.0004
  21341555.7024    2686718.90743   2093971.97742  21341557.3424   21341550.3174
        55.0004         48.0004
  22113910.8104   -4700917.43943  -3658228.45442  22113911.5354   22113907.3604
        53.0004         46.0004
  21177995.5474    2258549.74843   1760171.83242  21177997.1344   21177991.0464
        56.0004         49.0004
  20075192.7474   -2826871.03844  -2194230.41442  20075194.3564   20075189.0014
        58.0004         51.0004
  21962312.9984   -9127378.67843  -7096992.46342  21962315.1174   21962309.9434
        53.0004         46.0004
  23453895.5014   -4639995.62043  -3600659.57442  23453897.3254   23453891.8674
        48.0004         41.0004
  23853491.0584   -6836841.96843  -5262115.31442  23853490.3534   23853483.2434
        48.0004         41.0004
 05  6 27 16 27  0.0000000  0  8G22G21G 3G18G15G14G 9G19
  20733883.8364   -1897819.36744  -1474938.90542  20733885.1934   20733877.5924
        57.0004         51.0004
  21351333.2454    2738105.11843   2134013.15442  21351335.0444   21351329.3384
        55.0004         48.0004
  22108896.9714   -4727262.75243  -3678757.27642  22108898.6374   22108894.5004
        53.0004         46.0004
  21185723.1414    2299159.08143   1791815.44442  21185724.8144   21185719.0444
        56.0004         49.0004
  20072654.9224   -2840208.49444  -2204623.24142  20072655.9184   20072650.8934
        58.0004         51.0004
  21945302.2004   -9216768.07043  -7166646.50242  21945304.8234   21945299.6554
        53.0004         46.0004
  23445829.4944   -4682383.53443  -3633689.08742  23445830.9394   23445825.3284
        48.0004         41.0004
  23837692.6084   -6919840.10543  -5326789.16342  23837695.8084   23837688.6754
        47.0004         41.0004
 05  6 27 16 27 30.0000000  0  8G22G21G 3G18G15G14G 9G19
  20733123.6564   -1901820.01544  -1478056.32142  20733123.9634   20733115.8124
        58.0004         51.0004
  21361178.6994    2789842.21443   2174327.74542  21361180.7384   21361174.2024
        55.0004         48.0004
  22103988.0244   -4753059.05843  -3698858.33242  22103989.5544   22103985.5754
        53.0004         46.0004
  21193484.8994    2339944.82943   1823596.51242  21193486.3584   21193479.9544
        56.0004         49.0004
  20070186.4794   -2853182.24144  -2214732.66342  20070187.5864   20070182.0494
        58.0004         51.0004
  21928359.6404   -9305803.21543  -7236024.50342  21928360.9524   21928356.5894
        53.0004         46.0004
  23437851.4974   -4724299.68343  -3666350.99042  23437854.5354   23437851.1694
        48.0004         41.0004
  23821962.9354   -7002498.19343  -5391198.06242  23821963.6734   23821958.8924
        46.0004         40.0004
 05  6 27 16 28  0.0000000  0  8G22G21G 3G18G15G14G 9G19
  20732408.2864   -1905574.92144  -1480982.22642  20732409.1574   20732401.3414
        57.0004         51.0004
  21371091.4714    2841923.86443   2214910.82742  21371092.1544   21371085.2834
        56.0004         48.0004
  22099182.0794   -4778312.01643  -3718535.93542  22099183.9084   22099179.6314
        53.0004         46.0004
  21201277.5194    2380899.56343   1855509.25842  21201279.3474   21201273.7234
        55.0004         49.0004
  20067785.2974   -2865797.61044  -2224562.82642  20067786.5274   20067781.3534
        58.0004         51.0004
  21911483.5734   -9394488.49143  -7305129.88242  21911485.3844   21911480.5384
        54.0004         46.0004
  23429964.6914   -4765747.93743  -3698648.29542  23429967.0074   23429962.6794
        48.0004         41.0004
  23806302.0364   -7084820.23243  -5455345.14042  23806301.3124   23806294.8304
        47.0004         41.0004
 05  6 27 16 28 30.0000000  0  8G22G21G 3G18G15G14G 9G19
  20731740.5674   -1909086.13244  -1483718.25342  20731741.7634   20731733.4424
        58.0004         51.0004
  21381065.8294    2894348.91143   2255761.48042  21381067.7054   21381061.2714
        55.0004         47.0004
  22094481.1444   -4803022.03743  -3737790.50242  22094482.6084   22094477.5394
        54.0004         46.0004
  21209103.4174    2422020.78843   1887551.74442  21209105.9904   21209098.5504
        56.0004         49.0004
  20065453.6174   -2878054.38044  -2234113.56242  20065454.5714   20065449.1404
        58.0004         51.0004
  21894673.3724   -9482822.85743  -7373961.81842  21894675.4414   21894670.6254
        53.0004         46.0004
  23422167.5894   -4806727.00343  -3730579.99842  23422167.6774   23422164.0634
        48.0004         41.0004
  23790697.3024   -7166805.08343  -5519229.42542  23790699.8024   23790693.1774
        48.0004         41.0004
 05  6 27 16 29  0.0000000  0  8G22G21G 3G18G15G14G 9G19
  20731119.8924   -1912347.20444  -1486259.35842  20731120.5954   20731112.8184
        57.0004         50.0004
  21391108.6134    2947124.88143   2296885.58842  21391110.2704   21391104.5974
        55.0004         48.0004
  22089883.1634   -4827181.13843  -3756615.78542  22089884.7954   22089879.6794
        53.0004         46.0004
  21216960.8314    2463315.35843   1919729.29542  21216962.9904   21216956.5144
        56.0004         49.0004
  20063190.5844   -2889943.67444  -2243377.95342  20063191.8524   20063186.8524
        58.0004         51.0004
  21877932.2544   -9570796.42343  -7442512.60642  21877934.5724   21877928.6894
        53.0004         46.0004
  23414458.2764   -4847227.05143  -3762138.46342  23414460.6254   23414456.3254
        47.0004         40.0004
  23775163.7174   -7248442.48043  -5582842.98542  23775164.1154   23775158.5154
        48.0004         42.0004
 05  6 27 16 29 30.0000000  0  8G22G21G 3G18G15G14G 9G19
  20730545.8024   -1915364.83044  -1488610.77142  20730546.5234   20730538.0454
        57.0004         50.0004
  21401216.7264    3000246.18743   2338278.79042  21401218.9464   21401213.5324
        54.0004         47.0004
  22085390.0104   -4850794.40443  -3775015.75342  22085391.2824   22085386.9054
        53.0004         46.0004
  21224851.3594    2504776.17943   1952036.39842  21224853.1004   21224846.5704
        56.0004         49.0004
  20060997.0064   -2901469.80044  -2252359.36542  20060998.1714   20060993.5104
        58.0004         51.0004
  21861259.6314   -9658412.98643  -7510785.20142  21861261.6404   21861256.4724
        53.0004         46.0004
  23406841.3314   -4887251.18543  -3793326.07442  23406844.1434   23406841.2634
        46.0004         40.0004
  23759693.1334   -7329735.78943  -5646188.41642  23759694.5394   23759687.6194
        48.0004         41.0004
 05  6 27 16 30  0.0000000  0  8G22G21G 3G18G15G14G 9G19
  20730017.5184   -1918138.00944  -1490771.70342  20730018.6124   20730010.8994
        57.0004         51.0004
  21411392.5744    3053714.18843   2379942.15042  21411394.3804   21411387.9014
        55.0004         47.0004
  22081000.2594   -4873859.84543  -3792988.85442  22081002.1274   22080997.5244
        53.0004         46.0004
  21232772.4094    2546403.84943   1984473.49942  21232774.9494   21232767.8534
        56.0004         49.0004
  20058873.7764   -2912629.84344  -2261055.51242  20058874.8354   20058869.7884
        58.0004         51.0004
  21844655.9464   -9745668.81443  -7578776.73742  21844657.1674   21844652.6124
        53.0004         46.0004
  23399318.8644   -4926795.35343  -3824139.68842  23399320.3644   23399315.2994
        48.0004         41.0004
  23744290.3434   -7410681.30443  -5709262.82742  23744292.3624   23744285.5014
        49.0004         42.0004
 05  6 27 16 30 30.0000000  0  8G22G21G 3G18G15G14G 9G19
  20729535.4464   -1920671.27644  -1492745.65742  20729536.3454   20729529.0974
        57.0004         51.0004
  21421633.0654    3107525.59943   2421873.08342  21421634.4914   21421627.7584
        55.0004         47.0004
  22076716.3494   -4896380.19743  -3810537.20342  22076717.2154   22076711.4324
        53.0004         46.0004
  21240724.8974    2588193.72843   2017037.01342  21240727.1264   21240720.5234
        56.0004         49.0004
  20056819.4994   -2923425.65644  -2269467.84042  20056820.5404   20056815.2684
        58.0004         51.0004
  21828120.0164   -9832564.81443  -7646487.87342  21828121.2544   21828116.4754
        53.0004         46.0004
  23391884.4164   -4965860.39243  -3854579.98442  23391885.5234   23391882.5874
        47.0004         40.0004
  23728954.5304   -7491279.46343  -5772066.59042  23728955.5754   23728948.5544
        50.0004         43.0004
 05  6 27 16 31  0.0000000  0  8G22G21G 3G18G15G14G 9G19
  20729100.8164   -1922959.04144  -1494528.34342  20729101.5664   20729093.6924
        58.0004         51.0004
  21431938.5664    3161686.94443   2464076.71142  21431940.2034   21431934.0654
        55.0004         47.0004
  22072534.7114   -4918348.43043  -3827655.30142  22072537.0214   22072531.3034
        53.0004         46.0004
  21248709.4044    2630151.51043   2049731.36442  21248710.8564   21248704.7274
        56.0004         49.0004
  20054835.5094   -2933849.35044  -2277590.20542  20054836.5444   20054831.7604
        57.0004         51.0004
  21811654.6484   -9919092.61643  -7713912.10542  21811656.4244   21811650.6714
        53.0004         46.0004
  23384542.0424   -5004437.19743  -3884639.76442  23384543.0354   23384541.9684
        47.0004         41.0004
  23713683.5314   -7571521.66043  -5834592.97842  23713685.1274   23713678.6534
        49.0004         43.0004
 05  6 27 16 31 30.0000000  0  8G22G21G 3G18G15G14G 9G19
  20728710.1564   -1925008.53944  -1496125.35542  20728710.7404   20728703.3574
        57.0004         50.0004
  21442310.4114    3216191.90743   2506548.08242  21442312.7194   21442305.6984
        55.0004         47.0004
  22068459.2374   -4939770.36443  -3844347.74342  22068460.6164   22068454.7694
        53.0004         45.0004
  21256724.1134    2672269.86443   2082550.83042  21256725.7574   21256719.5594
        56.0004         49.0004
  20052921.7644   -2943905.97344  -2285426.55142  20052923.0444   20052918.3844
        58.0004         51.0004
  21795257.4434  -10005256.37443  -7781052.64042  21795259.7414   21795254.4724
        53.0004         47.0004
  23377295.3164   -5042529.55843  -3914322.12442  23377296.7204   23377291.4374
        46.0004         40.0004
  23698481.0114   -7651411.87143  -5896845.11842  23698482.5734   23698475.1404
        49.0004         42.0004
 05  6 27 16 32  0.0000000  0  8G22G21G 3G18G15G14G 9G19
  20728366.6994   -1926815.63944  -1497533.49542  20728367.7664   20728360.0464
        57.0004         51.0004
  21452749.5004    3271045.37243   2549291.01242  21452750.3714   21452745.0474
        55.0004         47.0004
  22064486.9304   -4960640.35143  -3860610.07742  22064489.0154   22064483.3264
        53.0004         45.0004
  21264770.2454    2714553.07243   2115498.76142  21264772.1064   21264766.0824
        56.0004         49.0004
  20051078.7604   -2953589.14144  -2292971.88542  20051080.2304   20051075.6164
        58.0004         51.0004
  21778931.4374  -10091048.94043  -7847903.95142  21778933.7164   21778927.7154
        53.0004         46.0004
  23370139.4634   -5080130.09543  -3943621.22042  23370140.6504   23370137.6324
        46.0004         41.0004
  23683347.9294   -7730942.59243  -5958817.10342  23683350.2624   23683342.5214
        49.0004         42.0004
 05  6 27 16 32 30.0000000  0  8G22G21G 3G18G15G14G 9G19
  20728068.4434   -1928382.82144  -1498754.68242  20728069.5014   20728061.8414
        57.0004         51.0004
  21463253.5584    3326245.64543   2592304.17242  21463254.1494   21463248.9734
        54.0004         47.0004
  22060621.2904   -4980959.71243  -3876443.35242  22060622.7724   22060616.4554
        54.0004         46.0004
  21272847.3324    2756998.47843   2148573.07742  21272849.5734   21272843.5924
        56.0004         49.0004
  20049308.2994   -2962899.13344  -2300226.43242  20049308.8834   20049303.7794
        58.0004         51.0004
  21762676.9094  -10176469.83843  -7914465.66342  21762679.0804   21762673.7174
        53.0004         47.0004
  23363078.9084   -5117238.18043  -3972536.58942  23363080.2844   23363076.1694
        47.0004         41.0004
  23668280.3814   -7810112.94843  -6020508.26842  23668281.9124   23668275.3944
        48.0004         42.0004
 05  6 27 16 33  0.0000000  0  8G22G21G 3G18G15G14G 9G19
  20727815.8864   -1929710.46844  -1499789.21442  20727816.4234   20727808.8044
        57.0004         50.0004
  21473824.7514    3381793.40743   2635588.10942  21473826.0834   21473819.5164
        55.0004         47.0004
  22056858.5284   -5000727.17543  -3891846.58142  22056860.2014   22056855.5604
        53.0004         45.0004
  21280955.1214    2799605.80243   2181773.56542  21280956.6874   21280951.1474
        56.0004         48.0004
  20047606.9844   -2971833.89744  -2307188.59642  20047608.4104   20047603.3584
        58.0004         51.0004
  21746492.9224  -10261516.22643  -7980735.52842  21746494.9634   21746489.3434
        54.0004         47.0004
  23356111.0154   -5153850.69743  -4001065.79342  23356113.0644   23356108.7214
        47.0004         41.0004
  23653284.8334   -7888919.95543  -6081916.33642  23653286.8214   23653279.0454
        47.0004         43.0004
 05  6 27 16 33 30.0000000  0  8G22G21G 3G18G15G14G 9G19
  20727608.3414   -1930802.04444  -1500639.80442  20727609.1754   20727600.8324
        57.0004         50.0004
  21484459.9934    3437686.02443   2679140.77642  21484462.0574   21484455.2374
        55.0004         47.0004
  22053202.3244   -5019944.78443  -3906821.34642  22053204.1024   22053198.1274
        54.0004         46.0004
  21289093.5054    2842371.20543   2215097.22842  21289095.0444   21289088.9934
        56.0004         48.0004
  20045978.5244   -2980394.41444  -2313859.13542  20045979.4634   20045974.7134
        58.0004         51.0004
  21730380.6334  -10346188.42443  -8046713.82842  21730382.4714   21730377.7654
        53.0004         47.0004
  23349235.6364   -5189967.60543  -4029208.81542  23349238.2364   23349237.4144
        46.0004         41.0004
  23638357.5434   -7967363.46243  -6143041.10042  23638358.8334   23638351.8654
        49.0004         43.0004
 05  6 27 16 34  0.0000000  0  8G22G21G 3G18G15G14G 9G19
  20727444.7324   -1931658.54944  -1501307.19942  20727445.7004   20727437.9564
        57.0004         50.0004
  21495160.9784    3493923.25943   2722961.96942  21495163.2604   21495157.2364
        55.0004         47.0004
  22049648.4534   -5038612.66043  -3921367.74842  22049650.4094   22049646.2054
        53.0004         46.0004
  21297261.2144    2885293.80543   2248543.38642  21297262.8554   21297257.2344
        55.0004         48.0004
  20044420.8604   -2988579.68744  -2320237.27942  20044422.0874   20044416.7994
        58.0004         51.0004
  21714338.9064  -10430484.79243  -8112399.26842  21714341.0024   21714336.1784
        53.0004         47.0004
  23342461.0194   -5225587.05143  -4056964.22142  23342461.6314   23342458.5224
        48.0004         41.0004
  23623499.3414   -8045441.69443  -6203881.26842  23623501.4624   23623494.5554
        49.0004         43.0004
 05  6 27 16 34 30.0000000  0  8G22G21G 3G18G15G14G 9G19
  20727328.2654   -1932274.85144  -1501787.43142  20727328.4554   20727320.7504
        57.0004         51.0004
  21505930.2664    3550510.88243   2767056.18442  21505931.4284   21505926.0474
        55.0004         47.0004
  22046203.0904   -5056724.03443  -3935480.52142  22046204.2834   22046199.7864
        53.0004         46.0004
  21305460.4194    2928378.69743   2282115.99542  21305462.5354   21305455.7694
        55.0004         48.0004
  20042935.6704   -2996382.31044  -2326317.25242  20042937.0304   20042932.2134
        58.0004         51.0004
  21698371.7784  -10514396.97443  -8177785.35142  21698373.5874   21698368.3624
        54.0004         47.0004
  23335777.7304   -5260700.38543  -4084325.25542  23335779.1074   23335777.1834
        47.0004         42.0004
  23608713.9284   -8123146.00443  -6264430.08042  23608714.9174   23608707.7084
        50.0004         43.0004
 05  6 27 16 35  0.0000000  0  8G22G21G 3G18G15G14G 9G19
  20727253.6474   -1932663.35644  -1502090.17742  20727254.4714   20727246.8394
        57.0004         50.0004
  21516763.2764    3607437.71043   2811414.70242  21516764.1254   21516758.6934
        55.0004         47.0004
  22042860.0554   -5074290.15143  -3949168.42142  22042861.5524   22042856.2624
        53.0004         46.0004
  21313687.3054    2971613.42443   2315805.37342  21313688.9104   21313682.8634
        55.0004         48.0004
  20041522.5794   -3003812.54944  -2332107.06142  20041523.6154   20041518.4574
        58.0004         51.0004
  21682475.0944  -10597934.47243  -8242879.48442  21682477.2634   21682471.8364
        54.0004         47.0004
  23329190.0044   -5295316.70743  -4111298.97242  23329191.3604   23329189.5334
        47.0004         41.0004
  23593994.3054   -8200485.30843  -6324694.46442  23593996.0774   23593990.8994
        48.0004         43.0004
 05  6 27 16 35 30.0000000  0  8G22G21G 3G18G15G14G 9G19
  20727226.2484   -1932809.94544  -1502204.41042  20727226.7774   20727218.6654
        57.0004         51.0004
  21527662.9494    3664718.17643   2856048.80142  21527665.1604   21527658.2234
        55.0004         47.0004
  22039623.8664   -5091295.91643  -3962419.68442  22039625.3294   22039620.5084
        53.0004         46.0004
  21321946.0564    3015011.63743   2349622.13242  21321947.8574   21321941.8124
        55.0004         48.0004
  20040182.5214   -3010854.09144  -2337593.98742  20040183.3984   20040178.3054
        58.0004         51.0004
  21666652.7344  -10681080.38243  -8307668.46242  21666654.8164   21666649.6054
        54.0004         47.0004
  23322700.2674   -5329418.96643  -4137872.17942  23322703.5994   23322697.7684
        47.0004         40.0004
  23579350.4074   -8277442.74743  -6384661.27342  23579352.3864   23579346.6654
        49.0004         43.0004
 05  6 27 16 36  0.0000000  0  8G22G21G 3G18G15G14G 9G19
  20727242.2544   -1932726.73744  -1502139.58242  20727243.0604   20727235.0214
        58.0004         51.0004
  21538627.9504    3722341.42443   2900949.99242  21538630.0294   21538623.9304
        54.0004         47.0004
  22036492.7664   -5107751.89543  -3975242.53942  22036494.7724   22036489.0314
        53.0004         46.0004
  21330233.4294    3058561.65743   2383557.18342  21330234.8434   21330228.8134
        56.0004         48.0004
  20038914.1964   -3017516.58444  -2342785.54942  20038915.1654   20038910.6384
        57.0004         51.0004
  21650903.6254  -10763843.56543  -8372159.21642  21650905.4094   21650900.4304
        54.0004         47.0004
  23316309.1994   -5363015.85043  -4164051.53742  23316310.2954   23316307.3464
        48.0004         41.0004
  23564776.2164   -8354026.48343  -6444336.91142  23564778.6294   23564773.2614
        49.0004         44.0004
 05  6 27 16 36 30.0000000  0  8G22G21G 3G18G15G14G 9G19
  20727300.8984   -1932415.19944  -1501896.82042  20727301.7284   20727294.5954
        57.0004         51.0004
  21549659.1214    3780306.91343   2946117.87442  21549660.3254   21549653.6114
        55.0004         47.0004
  22033466.1224   -5123658.26243  -3987637.12342  22033467.2914   22033462.5204
        53.0004         46.0004
  21338549.7914    3102262.53143   2417609.78742  21338551.8194   21338544.8524
        56.0004         49.0004
  20037718.7954   -3023799.30944  -2347681.18542  20037719.7444   20037715.2824
        57.0004         51.0004
  21635227.4624  -10846222.50543  -8436350.55942  21635229.1634   21635222.9244
        54.0004         47.0004
  23310009.4914   -5396105.56743  -4189835.69642  23310011.6194   23310008.3514
        46.0004         40.0004
  23550276.7024   -8430234.97543  -6503720.14342  23550276.9824   23550271.7934
        50.0004         44.0004
 05  6 27 16 37  0.0000000  0  8G22G21G 3G18G15G14G 9G19
  20727403.3484   -1931876.85944  -1501477.32942  20727404.0034   20727396.7544
        57.0004         50.0004
  21560753.7514    3838613.52043   2991551.56242  21560754.8144   21560749.7244
        54.0004         47.0004
  22030542.7034   -5139015.65643  -3999603.92142  22030545.0604   22030540.3194
        53.0004         46.0004
  21346893.2044    3146112.20143   2451778.33242  21346895.5204   21346889.7754
        56.0004         49.0004
  20036595.4404   -3029701.59244  -2352280.37942  20036596.2994   20036591.9694
        57.0004         51.0004
  21619624.1624  -10928215.83543  -8500241.43942  21619626.4304   21619620.2214
        55.0004         47.0004
  23303812.4974   -5428686.51843  -4215223.45142  23303813.8704   23303808.3204
        47.0004         41.0004
  23535843.6764   -8506066.55243  -6562809.66942  23535845.5274   23535841.1804
        47.0004         43.0004
 05  6 27 16 37 30.0000000  0  8G22G21G 3G18G15G14G 9G19
  20727551.0804   -1931102.26444  -1500873.76442  20727551.7544   20727543.5184
        57.0004         50.0004
  21571916.9574    3897271.20343   3037258.81942  21571917.9094   21571911.1724
        55.0004         47.0004
  22027727.5304   -5153813.11843  -4011134.40842  22027728.9504   22027724.2104
        54.0004         46.0004
  21355268.2694    3190119.43843   2486069.66342  21355269.8974   21355263.3354
        56.0004         49.0004
  20035547.3904   -3035211.54544  -2356573.86242  20035548.3414   20035543.5434
        58.0004         51.0004
  21604097.6054  -11009811.39843  -8563822.36242  21604099.5624   21604093.7454
        55.0004         48.0004
  23297709.2604   -5460746.31343  -4240205.06842  23297710.6814   23297707.3794
        46.0004         40.0004
  23521489.5844   -8581508.54843  -6621595.62042  23521489.8414   23521483.7634
        48.0004         43.0004
 05  6 27 16 38  0.0000000  0  8G22G21G 3G18G15G14G 9G19
  20727742.4794   -1930095.05444  -1500088.92742  20727743.1704   20727735.6514
        57.0004         50.0004
  21583145.5824    3956277.24043   3083237.50842  21583147.3334   21583140.3374
        55.0004         47.0004
  22025017.8544   -5168053.37443  -4022230.70542  22025019.2084   22025015.3694
        53.0004         46.0004
  21363671.8564    3234281.79343   2520481.85942  21363674.1154   21363666.7534
        56.0004         49.0004
  20034573.0014   -3040331.20944  -2360563.21442  20034574.0704   20034569.3424
        58.0004         51.0004
  21588645.0684  -11091010.09343  -8627094.03542  21588647.2824   21588642.1474
        54.0004         47.0004
  23291708.4154   -5492285.64343  -4264781.14642  23291710.0814   23291707.6454
        48.0004         41.0004
  23507204.5984   -8656561.52843  -6680078.43042  23507206.3974   23507203.0684
        47.0004         42.0004
 05  6 27 16 38 30.0000000  0  8G22G21G 3G18G15G14G 9G19
  20727977.2744   -1928859.82744  -1499126.40542  20727978.4364   20727970.9404
        57.0004         50.0004
  21594439.0354    4015628.01943   3129484.84042  21594440.6414   21594434.8214
        55.0004         47.0004
  22022414.1324   -5181740.13143  -4032895.73642  22022414.4874   22022410.6694
        53.0004         46.0004
  21372104.2784    3278593.81943   2555010.67942  21372105.9014   21372099.6764
        56.0004         49.0004
  20033672.3924   -3045062.74544  -2364250.13542  20033673.5304   20033668.8824
        58.0004         51.0004
  21573269.4784  -11171813.27243  -8690057.51642  21573271.0034   21573266.8394
        55.0004         48.0004
  23285806.2734   -5523305.95143  -4288952.77642  23285807.2584   23285802.6654
        48.0004         41.0004
  23492998.9384   -8731226.57043  -6738258.99442  23492999.7084   23492993.8934
        48.0004         43.0004
 05  6 27 16 39  0.0000000  0  8G22G21G 3G18G15G14G 9G19
  20728257.0674   -1927395.03344  -1497985.01942  20728257.6064   20728249.3754
        58.0004         51.0004
  21605799.0484    4075325.83643   3176002.58542  21605800.9354   21605795.0254
        54.0004         46.0004
  22019913.7914   -5194870.37643  -4043127.11842  22019915.5474   22019911.3414
        52.0004         45.0004
  21380564.8234    3323057.11443   2589657.39142  21380566.8804   21380561.3434
        56.0004         49.0004
  20032846.4894   -3049402.05044  -2367631.42342  20032847.7644   20032842.8474
        57.0004         51.0004
  21557968.6884  -11252216.57143  -8752709.39442  21557970.8714   21557966.4904
        54.0004         48.0004
  23280002.2824   -5553802.42443  -4312716.19642  23280002.8364   23279998.5484
        48.0004         41.0004
  23478865.0034   -8805499.16343  -6796133.73142  23478866.2054   23478860.9214
        49.0004         43.0004
 05  6 27 16 39 30.0000000  0  8G22G21G 3G18G15G14G 9G19
  20728577.6304   -1925706.04144  -1496668.91942  20728578.3764   20728570.8744
        57.0004         51.0004
  21617224.6554    4135365.68643   3222786.85842  21617226.8214   21617219.2654
        55.0004         46.0004
  22017521.5704   -5207448.50443  -4052928.28142  22017522.4404   22017518.4464
        53.0004         46.0004
  21389054.9794    3367666.51943   2624417.93042  21389056.0784   21389049.3134
        56.0004         48.0004
  20032094.9754   -3053352.40144  -2370709.62442  20032095.7074   20032091.4404
        57.0004         51.0004
  21542744.2584  -11332222.44243  -8815051.60542  21542746.0824   21542740.1094
        54.0004         47.0004
  23274298.6134   -5583777.21943  -4336073.15342  23274300.4664   23274295.4584
        49.0004         41.0004
  23464806.4084   -8879381.05143  -6853704.03942  23464807.1304   23464802.3134
        48.0004         43.0004
 05  6 27 16 40  0.0000000  0  8G22G21G 3G18G15G14G 9G19
  20728942.3454   -1923791.10244  -1495176.76542  20728942.6744   20728934.9264
        57.0004         50.0004
  21628714.5034    4195750.14643   3269839.65142  21628716.5314   21628710.2454
        54.0004         46.0004
  22015232.8664   -5219471.87043  -4062297.16142  22015234.8574   22015229.9974
        53.0004         46.0004
  21397571.8914    3412424.17344   2659294.00842  21397573.6854   21397566.4644
        57.0004         48.0004
  20031418.3454   -3056910.06044  -2373481.84042  20031419.1714   20031414.4734
        58.0004         51.0004
  21527596.0364  -11411826.58643  -8877080.78842  21527598.2884   21527592.5574
        54.0004         48.0004
  23268692.8124   -5613225.73843  -4359020.00242  23268696.6404   23268691.0134
        48.0004         41.0004
  23450822.0154   -8952867.53543  -6910966.22242  23450824.1924   23450818.0244
        48.0004         43.0004
 05  6 27 16 40 30.0000000  0  8G22G21G 3G18G15G14G 9G19
  20729350.1274   -1921648.71544  -1493507.38342  20729351.0974   20729342.8704
        57.0004         51.0004
  21640271.7774    4256481.39943   3317162.66242  21640273.7294   21640267.1034
        54.0004         46.0004
  22013051.6904   -5230938.10343  -4071231.86742  22013053.0924   22013047.7764
        54.0004         46.0004
  21406117.0894    3457331.19643   2694286.46942  21406119.5494   21406111.7174
        56.0004         48.0004
  20030816.9834   -3060071.63644  -2375945.41442  20030817.9374   20030812.7064
        58.0004         51.0004
  21512524.8894  -11491024.73543  -8938793.58642  21512527.3644   21512521.8804
        54.0004         47.0004
  23263192.2394   -5642143.66043  -4381553.43442  23263195.6304   23263188.4904
        48.0004         41.0004
  23436914.0584   -9025954.22843  -6967916.86942  23436915.9594   23436909.5904
        48.0004         43.0004
 05  6 27 16 41  0.0000000  0  8G22G21G 3G18G15G14G 9G19
  20729799.9284   -1919283.43644  -1491664.32042  20729801.2154   20729793.1684
        57.0004         51.0004
  21651894.2554    4317555.39143   3364752.75242  21651895.6404   21651888.8504
        54.0004         46.0004
  22010974.6174   -5241850.67443  -4079735.17742  22010976.7414   22010972.2524
        54.0004         47.0004
  21414689.5034    3502382.69043   2729391.50942  21414692.1014   21414684.5034
        56.0004         48.0004
  20030289.1724   -3062839.30744  -2378102.04742  20030290.5374   20030286.1324
        57.0004         51.0004
  21497531.2904  -11569818.42343  -9000191.22542  21497533.1984   21497527.5034
        55.0004         48.0004
  23257791.0734   -5670532.52943  -4403674.56342  23257791.7034   23257785.8334
        48.0004         41.0004
  23423082.2874   -9098642.21743  -7024556.85842  23423084.2664   23423077.3124
        49.0004         43.0004
 05  6 27 16 41 30.0000000  0  8G22G21G 3G18G15G14G 9G19
  20730292.3144   -1916698.48044  -1489650.06842  20730292.3994   20730285.2984
        57.0004         51.0004
  21663580.8784    4378970.06743   3412608.31342  21663583.4974   21663576.3024
        54.0004         46.0004
  22009003.4984   -5252211.62843  -4087808.65742  22009005.1984   22009001.0704
        54.0004         47.0004
  21423289.7174    3547576.28843   2764607.27142  21423291.5374   21423285.4894
        56.0004         48.0004
  20029837.8224   -3065214.21944  -2379952.62842  20029838.9934   20029834.1374
        57.0004         51.0004
  21482614.1984  -11648208.03143  -9061274.01442  21482616.5234   21482610.8004
        55.0004         48.0004
  23252488.0294   -5698392.43043  -4425383.54042  23252490.2724   23252484.0664
        48.0004         41.0004
  23409323.7594   -9170931.36343  -7080886.02942  23409326.8404   23409321.1854
        48.0004         43.0004
 05  6 27 16 42  0.0000000  0  8G22G21G 3G18G15G14G 9G19
  20730826.7174   -1913888.03644  -1487460.11942  20730827.6304   20730819.4664
        57.0004         50.0004
  21675333.9944    4440731.37443   3460733.96142  21675334.9844   21675329.0294
        53.0004         46.0004
  22007138.1124   -5262014.61343  -4095447.37342  22007139.6064   22007134.9294
        54.0004         47.0004
  21431917.6984    3592917.45343   2799938.03542  21431919.7024   21431913.5014
        56.0004         48.0004
  20029462.3794   -3067188.58844  -2381491.11442  20029463.5704   20029458.3504
        58.0004         51.0004
  21467775.2244  -11726185.12643  -9122035.34142  21467777.5114   21467772.1854
        54.0004         48.0004
  23247288.9034   -5725714.87243  -4446673.70342  23247293.7364   23247287.4044
        48.0004         41.0004
  23395648.5074   -9242812.85943  -7136897.55342  23395650.1544   23395642.1464
        49.0004         43.0004
 05  6 27 16 42 30.0000000  0  8G22G21G 3G18G15G14G 9G19
  20731404.2514   -1910853.38944  -1485095.46942  20731405.1854   20731397.4354
        57.0004         50.0004
  21687152.6534    4502838.65943   3509129.21442  21687153.9084   21687148.1934
        54.0004         46.0004
  22005377.9474   -5271259.85243  -4102651.48042  22005379.8834   22005376.5114
        54.0004         47.0004
  21440574.4104    3638404.82443   2835382.69942  21440576.3304   21440570.1324
        56.0004         48.0004
  20029162.9904   -3068761.24344  -2382716.57042  20029164.3224   20029159.2924
        58.0004         51.0004
  21453015.7854  -11803748.15943  -9182474.03042  21453017.8094   21453012.3834
        54.0004         48.0004
  23242190.9884   -5752498.11243  -4467543.72542  23242192.6104   23242190.4064
        49.0004         41.0004
  23382046.8324   -9314285.24543  -7192590.30842  23382047.9674   23382040.6474
        50.0004         43.0004
 05  6 27 16 43  0.0000000  0  8G22G21G 3G18G15G14G 9G19
  20732022.9824   -1907601.66844  -1482561.66242  20732023.8984   20732016.1014
        57.0004         51.0004
  21699035.9724    4565285.72243   3557789.23842  21699036.5494   21699031.2374
        54.0004         46.0004
  22003724.2414   -5279953.50043  -4109425.75342  22003725.7844   22003721.0974
        54.0004         47.0004
  21449255.8534    3684031.47543   2870935.92842  21449257.5754   21449252.3784
        55.0004         48.0004
  20028939.2624   -3069937.08344  -2383632.81642  20028940.2444   20028935.4334
        58.0004         51.0004
  21438334.2574  -11880901.49643  -9242593.47942  21438335.9844   21438330.5034
        54.0004         48.0004
  23237196.9834   -5778746.24343  -4487996.76942  23237200.0024   23237194.2744
        49.0004         41.0004
  23368522.0244   -9385352.24343  -7247967.17242  23368524.6354   23368516.9024
        49.0004         43.0004
 05  6 27 16 43 30.0000000  0  8G22G21G 3G18G15G14G 9G19
  20732683.8504   -1904128.19744  -1479855.05842  20732684.4024   20732677.3874
        57.0004         50.0004
  21710985.1894    4628077.51143   3606717.87042  21710985.8704   21710979.7914
        53.0004         46.0004
  22002175.5884   -5288090.30343  -4115766.12042  22002177.5064   22002172.6704
        54.0004         47.0004
  21457966.6094    3729801.75743   2906601.06042  21457968.1164   21457962.1774
        56.0004         48.0004
  20028792.7294   -3070709.65144  -2384234.82642  20028793.3504   20028788.4114
        58.0004         51.0004
  21423731.4104  -11957637.83743  -9302388.00642  21423733.5434   21423728.3064
        54.0004         48.0004
  23232304.6724   -5804451.88643  -4508027.12842  23232306.1284   23232303.1774
        48.0004         42.0004
  23355078.5074   -9456005.96843  -7303022.01642  23355078.7954   23355074.0624
        49.0004         43.0004
 05  6 27 16 44  0.0000000  0  8G22G21G 3G18G15G14G 9G19
  20733386.7754   -1900435.01144  -1476977.24942  20733387.5764   20733379.7464
        57.0004         50.0004
  21722998.9124    4691212.55743   3655913.97842  21722999.5134   21722995.4934
        53.0004         46.0004
  22000732.9464   -5295671.44843  -4121673.51542  22000734.5164   22000729.8494
        54.0004         47.0004
  21466702.9264    3775713.60243   2942376.50242  21466704.5604   21466699.2834
        56.0004         48.0004
  20028721.6134   -3071078.83544  -2384522.51842  20028723.2694   20028718.3784
        58.0004         51.0004
  21409208.1514  -12033956.54543  -9361857.10942  21409210.6294   21409205.1564
        54.0004         48.0004
  23227518.0794   -5829614.55643  -4527634.33242  23227520.5104   23227513.8624
        49.0004         42.0004
  23341710.4854   -9526245.38943  -7357754.03442  23341712.1814   23341706.9484
        48.0004         42.0004
 05  6 27 16 44 30.0000000  0  8G22G21G 3G18G15G14G 9G19
  20734131.2854   -1896525.77644  -1473931.11242  20734131.9634   20734123.7484
        58.0004         51.0004
  21735078.6754    4754687.98943   3705375.31942  21735079.1854   21735073.9974
        54.0004         46.0004
  21999395.6084   -5302699.71943  -4127150.11142  21999397.5794   21999392.4734
        54.0004         47.0004
  21475466.4184    3821763.60043   2978259.59942  21475468.3144   21475461.9404
        56.0004         48.0004
  20028727.9214   -3071046.34544  -2384497.21342  20028729.0654   20028724.5364
        58.0004         51.0004
  21394764.7934  -12109858.49743  -9421001.45742  21394767.2824   21394761.3714
        55.0004         48.0004
  23222832.1154   -5854234.99743  -4546819.11142  23222831.7804   23222829.3944
        48.0004         41.0004
  23328425.0044   -9596071.10943  -7412163.66442  23328425.8964   23328416.0864
        49.0004         43.0004
 05  6 27 16 45  0.0000000  0  8G22G21G 3G18G15G14G 9G19
  20734915.5314   -1892399.63444  -1470715.94542  20734916.4074   20734908.8034
        57.0004         50.0004
  21747222.3394    4818505.34943   3755103.09042  21747224.2114   21747217.8644
        54.0004         46.0004
  21998163.5524   -5309173.37443  -4132194.53042  21998165.4714   21998160.6744
        54.0004         47.0004
  21484255.1224    3867953.05943   3014251.36242  21484257.4394   21484252.3454
        55.0004         48.0004
  20028811.7474   -3070609.20844  -2384156.60842  20028812.6164   20028807.6194
        58.0004         51.0004
  21380401.2444  -12185340.30743  -9479818.42042  21380403.1214   21380397.4734
        55.0004         48.0004
  23218250.3094   -5878309.29443  -4565578.28342  23218250.8314   23218248.4894
        48.0004         41.0004
  23315217.3664   -9665479.30643  -7466247.94242  23315217.4154   23315211.5954
        50.0004         43.0004
 05  6 27 16 45 30.0000000  0  8G22G21G 3G18G15G14G 9G19
  20735742.9124   -1888052.98144  -1467328.93842  20735743.5954   20735736.7994
        57.0004         51.0004
  21759431.5964    4882668.52943   3805100.33642  21759433.2934   21759427.0124
        54.0004         46.0004
  21997037.5494   -5315087.92443  -4136803.30442  21997039.9384   21997035.0434
        53.0004         46.0004
  21493073.1834    3914285.46243   3050354.50642  21493074.7064   21493068.0494
        56.0004         48.0004
  20028972.3964   -3069761.80244  -2383496.30442  20028973.9774   20028968.6424
        58.0004         51.0004
  21366118.7354  -12260395.68043  -9538303.09442  21366120.4434   21366114.7984
        55.0004         48.0004
  23213772.4794   -5901831.31943  -4583907.08242  23213774.9274   23213770.5244
        46.0004         41.0004
  23302087.2104   -9734463.22343  -7520001.63942  23302088.7944   23302083.5824
        48.0004         43.0004
 05  6 27 16 46  0.0000000  0  8G22G21G 3G18G15G14G 9G19
  20736611.0004   -1883492.10744  -1463775.01542  20736611.8414   20736603.9914
        57.0004         51.0004
  21771705.9444    4947171.69443   3855362.52142  21771707.4684   21771702.2474
        53.0004         46.0004
  21996017.5744   -5320449.11843  -4140980.87842  21996019.4184   21996014.3704
        53.0004         46.0004
  21501915.3574    3960754.48443   3086564.11042  21501917.1754   21501911.5544
        55.0004         48.0004
  20029211.2884   -3068508.08744  -2382519.39942  20029212.2054   20029207.4674
        58.0004         51.0004
  21351916.6364  -12335028.01043  -9596458.12342  21351918.1654   21351912.9184
        54.0004         48.0004
  23209402.0864   -5924804.65143  -4601808.37342  23209404.1314   23209400.9434
        47.0004         41.0004
  23289041.7324   -9803026.04143  -7573427.20342  23289041.6954   23289037.3564
        49.0004         43.0004
 05  6 27 16 46 30.0000000  0  8G22G21G 3G18G15G14G 9G19
  20737519.0814   -1878720.28144  -1460056.72342  20737520.3164   20737511.7624
        57.0004         50.0004
  21784044.5054    5012012.31043   3905887.63842  21784045.7804   21784040.9794
        53.0004         46.0004
  21995102.7124   -5325259.63543  -4144729.35742  21995104.7324   21995098.9094
        53.0004         46.0004
  21510784.0944    4007357.12243   3122877.83142  21510785.7324   21510779.7474
        56.0004         48.0004
  20029526.5324   -3066849.54644  -2381227.03342  20029527.9934   20029523.3544
        58.0004         51.0004
  21337794.0644  -12409237.98243  -9654284.04842  21337796.3034   21337790.7084
        54.0004         48.0004
  23205135.6734   -5947230.01543  -4619282.64142  23205136.1874   23205132.6324
        48.0004         41.0004
  23276074.1084   -9871167.99143  -7626524.79542  23276074.7334   23276070.2114
        48.0004         43.0004
 05  6 27 16 47  0.0000000  0  8G22G21G 3G18G15G14G 9G19
  20738469.0154   -1873730.37944  -1456168.49542  20738469.4664   20738461.6704
        58.0004         50.0004
  21796449.6934    5077197.61743   3956681.35542  21796451.0684   21796445.6904
        54.0004         46.0004
  21994292.4414   -5329511.79943  -4148042.73542  21994295.1744   21994289.8604
        53.0004         46.0004
  21519677.8474    4054099.92143   3159300.76742  21519680.2794   21519673.9444
        55.0004         48.0004
  20029921.6024   -3064777.31944  -2379612.31542  20029922.7844   20029917.9164
        58.0004         51.0004
  21323755.0474  -12483016.25843  -9711773.58042  21323756.9904   21323751.4544
        55.0004         48.0004
  23200973.0484   -5969097.77643  -4636322.44142  23200976.1154   23200972.6244
        47.0004         41.0004
  23263188.7254   -9938879.21043  -7679286.78342  23263189.7104   23263183.6684
        48.0004         42.0004
 05  6 27 16 47 30.0000000  0  8G22G21G 3G18G15G14G 9G19
  20739458.2274   -1868532.32244  -1452118.05842  20739458.7504   20739450.7234
        57.0004         50.0004
  21808918.2324    5142718.79143   4007736.76842  21808919.6204   21808913.4274
        54.0004         46.0004
  21993589.1234   -5333214.61743  -4150928.05242  21993590.6994   21993586.0734
        54.0004         46.0004
  21528597.9974    4100973.84543   3195825.87642  21528599.4574   21528593.9564
        55.0004         47.0004
  20030392.3764   -3062298.93944  -2377681.12142  20030394.0054   20030389.1094
        58.0004         51.0004
  21309796.4154  -12556369.84343  -9768932.19842  21309798.2474   21309792.9454
        54.0004         48.0004
  23196918.2524   -5990414.64343  -4652932.95342  23196920.7754   23196914.8824
        48.0004         42.0004
  23250387.1034  -10006166.33543  -7731718.30542  23250387.3294   23250382.6134
        49.0004         43.0004
 05  6 27 16 48  0.0000000  0  8G22G21G 3G18G15G14G 9G19
  20740488.2234   -1863119.28644  -1447900.10442  20740488.8174   20740480.7384
        58.0004         51.0004
  21821451.5184    5208582.79643   4059059.33042  21821453.7954   21821446.2314
        53.0004         46.0004
  21992989.6054   -5336360.97043  -4153379.76642  21992991.8054   21992987.2064
        54.0004         46.0004
  21537544.4894    4147985.42743   3232458.25942  21537546.0024   21537539.5264
        55.0004         47.0004
  20030943.0494   -3059405.74344  -2375426.70742  20030944.7324   20030939.6404
        58.0004         51.0004
  21295920.3954  -12629289.47243  -9825752.65242  21295922.3804   21295917.2824
        55.0004         48.0004
  23192966.5794   -6011171.46843  -4669107.05442  23192968.9114   23192965.0444
        47.0004         41.0004
  23237661.2204  -10073019.62043  -7783811.76242  23237663.3464   23237660.7824
        48.0004         43.0004
 05  6 27 16 48 30.0000000  0  8G22G21G 3G18G15G14G 9G19
  20741557.7054   -1857496.53044  -1443518.74242  20741558.8874   20741551.0754
        58.0004         51.0004
  21834049.9944    5274784.65043   4110645.15942  21834051.3294   21834044.7714
        54.0004         46.0004
  21992495.8834   -5338955.58743  -4155401.56242  21992497.7644   21992493.2354
        54.0004         46.0004
  21546515.2384    4195129.58043   3269193.94142  21546517.1974   21546510.7904
        55.0004         47.0004
  20031572.3614   -3056100.94344  -2372851.55742  20031573.6544   20031568.1464
        58.0004         51.0004
  21282125.9014  -12701777.86043  -9882237.08742  21282128.2134   21282122.0774
        55.0004         48.0004
  23189123.9554   -6031370.96143  -4684846.93142  23189125.8834   23189121.7964
        48.0004         42.0004
  23225025.5284  -10139441.47843  -7835569.05342  23225026.4354   23225018.9474
        50.0004         43.0004
 05  6 27 16 49  0.0000000  0  9G22G21G 3G18G15G14G 9G 1G19
  20742668.4304   -1851664.29844  -1438974.15242  20742669.1674   20742660.7154
        58.0004         51.0004
  21846712.3474    5341324.50243   4162494.36242  21846713.5454   21846706.5494
        54.0004         46.0004
  21992107.7434   -5340997.85143  -4156992.93942  21992109.3134   21992104.7134
        54.0004         46.0004
  21555512.5364    4242405.85443   3306032.58542  21555513.6814   21555507.3674
        55.0004         47.0004
  20032279.6654   -3052383.06544  -2369954.52542  20032281.2284   20032276.2294
        58.0004         51.0004
  21268414.0884  -12773832.87543  -9938383.81342  21268415.9514   21268411.0414
        54.0004         48.0004
  23185386.6464   -6051010.93243  -4700150.79342  23185389.1114   23185383.7774
        48.0004         42.0004
  24007486.6614   -3546307.87553  -2726253.77552  24007487.0064   24007484.6904
        45.0004         38.0004
  23212465.3824  -10205429.28543  -7886988.10442  23212466.7934   23212462.8634
        49.0004         43.0004
 05  6 27 16 49 30.0000000  0  9G22G21G 3G18G15G14G 9G 1G19
  20743817.8594   -1845619.26744  -1434263.73442  20743818.7244   20743811.6464
        57.0004         51.0004
  21859439.0084    5408206.43543   4214610.11042  21859440.2934   21859433.3624
        53.0004         46.0004
  21991825.0154   -5342484.07943  -4158151.05342  21991826.0644   21991821.7464
        54.0004         46.0004
  21564534.1314    4289817.88543   3342977.00742  21564536.1934   21564530.0284
        55.0004         47.0004
  20033067.5854   -3048246.57344  -2366731.29442  20033068.6164   20033063.3834
        58.0004         51.0004
  21254786.4904  -12845448.17643  -9994187.91542  21254788.4724   21254782.8034
        55.0004         48.0004
  23181756.6154   -6070085.38743  -4715013.96442  23181756.6454   23181755.9964
        49.0004         42.0004
  23987044.1474   -3653738.58543  -2809965.90942  23987044.7064   23987042.8524
        45.0004         38.0004
  23199992.8694  -10270976.38243  -7938063.74742  23199994.5514   23199989.5844
        49.0004         43.0004
 05  6 27 16 50  0.0000000  0  9G22G21G 3G18G15G14G 9G 1G19
  20745007.4944   -1839369.36244  -1429393.68442  20745008.0144   20745000.6034
        57.0004         51.0004
  21872229.5774    5475423.01943   4266986.62942  21872230.6834   21872225.5314
        53.0004         45.0004
  21991646.8834   -5343421.50543  -4158881.54042  21991648.2204   21991643.3754
        54.0004         46.0004
  21573580.1694    4337357.99743   3380021.22442  21573582.4034   21573576.2844
        55.0004         47.0004
  20033932.5934   -3043697.28644  -2363186.40042  20033934.0734   20033929.6684
        58.0004         51.0004
  21241241.3914  -12916629.73443 -10049654.02942  21241243.1494   21241237.2264
        55.0004         48.0004
  23178234.0674   -6088599.46543  -4729440.51742  23178235.4644   23178232.1744
        49.0004         42.0004
  23966626.4234   -3761024.85043  -2893565.46142  23966628.9034   23966626.4934
        45.0004         38.0004
  23187603.6634  -10336087.95143  -7988800.01642  23187605.2084   23187599.4084
        50.0004         44.0004
 05  6 27 16 50 30.0000000  0  9G22G21G 3G18G15G14G 9G 1G19
  20746236.0704   -1832909.25244  -1424359.84542  20746236.9464   20746230.1544
        57.0004         50.0004
  21885086.5434    5542979.63943   4319628.12142  21885087.3184   21885080.8544
        54.0004         45.0004
  21991573.1094   -5343804.69243  -4159180.12442  21991575.7084   21991570.8314
        54.0004         46.0004
  21582652.7544    4385031.27743   3417169.21742  21582654.1594   21582648.2114
        55.0004         47.0004
  20034877.7874   -3038728.27044  -2359314.44742  20034879.0564   20034874.7994
        58.0004         51.0004
  21227779.7354  -12987369.66443 -10104776.02442  21227781.8954   21227776.2924
        55.0004         48.0004
  23174818.9544   -6106545.67443  -4743424.56542  23174819.5074   23174815.0284
        48.0004         42.0004
  23946242.2794   -3868158.54343  -2977046.12542  23946242.8674   23946239.6324
        46.0004         39.0004
  23175297.8394  -10400755.72643  -8039190.49942  23175299.2054   23175292.8014
        50.0004         44.0004
 05  6 27 16 51  0.0000000  0  9G22G21G 3G18G15G14G 9G 1G19
  20747505.2904   -1826243.86744  -1419166.03942  20747506.0514   20747498.1534
        58.0004         51.0004
  21898004.1034    5610871.60543   4372530.92742  21898005.8024   21898001.2664
        53.0004         45.0004
  21991604.7444   -5343638.20643  -4159050.41542  21991607.2544   21991602.6094
        53.0004         46.0004
  21591749.3064    4432832.83543   3454417.16542  21591750.9944   21591744.4054
        55.0004         47.0004
  20035903.4304   -3033342.93944  -2355118.10142  20035904.4574   20035899.2174
        58.0004         51.0004
  21214402.3264  -13057670.14443 -10159555.59642  21214404.2384   21214398.0094
        55.0004         48.0004
  23171511.9134   -6123926.90243  -4756968.36442  23171512.8174   23171510.0624
        49.0004         42.0004
  23925881.6544   -3975141.77743  -3060409.54742  23925882.8294   23925882.6114
        46.0004         40.0004
  23163076.0504  -10464981.95443  -8089236.87742  23163077.5144   23163071.5374
        50.0004         44.0004
 05  6 27 16 51 30.0000000  0  9G22G21G 3G18G15G14G 9G 1G19
  20748812.9314   -1819371.01944  -1413810.57942  20748813.9574   20748805.8194
        57.0004         50.0004
  21910987.8114    5679101.91043   4425697.36542  21910990.0914   21910984.7494
        52.0004         45.0004
  21991741.8224   -5342919.21943  -4158490.17642  21991744.5214   21991739.6854
        53.0004         46.0004
  21600870.1614    4480765.41043   3491767.20242  21600872.3114   21600866.0554
        55.0004         47.0004
  20037008.2284   -3027536.80944  -2350593.85742  20037009.2244   20037004.1434
        58.0004         51.0004
  21201108.4334  -13127526.81743 -10213989.34542  21201110.9484   21201105.1894
        55.0004         49.0004
  23168313.4304   -6140738.29643  -4770068.15842  23168315.1914   23168308.8604
        50.0004         42.0004
  23905551.9824   -4081969.24743  -3143651.60242  23905552.4174   23905555.4484
        46.0004         41.0004
  23150939.2294  -10528761.37643  -8138935.11842  23150940.1444   23150934.5004
        50.0004         44.0004
 05  6 27 16 52  0.0000000  0  9G22G21G 3G18G15G14G 9G 1G19
  20750160.3034   -1812291.42644  -1408294.00942  20750160.9304   20750152.9664
        58.0004         50.0004
  21924037.2494    5747669.70643   4479126.75642  21924038.8214   21924032.0614
        53.0004         45.0004
  21991982.8294   -5341648.02943  -4157499.66642  21991985.1404   21991981.3814
        52.0004         46.0004
  21610016.1694    4528828.53143   3529218.96142  21610018.3624   21610012.4734
        55.0004         47.0004
  20038193.2364   -3021308.73544  -2345740.82642  20038194.5244   20038189.5024
        58.0004         51.0004
  21187900.6344  -13196938.03343 -10268075.97742  21187902.7724   21187896.6034
        55.0004         49.0004
  23165220.7514   -6156978.30243  -4782722.69042  23165223.3454   23165219.1034
        49.0004         42.0004
  23885255.0124   -4188638.53343  -3226770.38942  23885255.9714   23885255.7784
        46.0004         41.0004
  23138888.0164  -10592092.10143  -8188283.73942  23138889.4824   23138883.8054
        50.0004         44.0004
 05  6 27 16 52 30.0000000  0  9G22G21G 3G18G15G14G 9G 1G19
  20751546.4154   -1805008.37744  -1402618.90542  20751546.9184   20751539.4914
        58.0004         51.0004
  21937148.5904    5816572.32543   4532817.07842  21937148.4404   21937142.9124
        53.0004         45.0004
  21992330.4724   -5339827.60543  -4156081.17942  21992332.2414   21992327.2864
        52.0004         46.0004
  21619186.7974    4577018.41743   3566769.49742  21619189.0064   21619183.4704
        55.0004         47.0004
  20039458.3464   -3014659.98344  -2340559.98442  20039459.5924   20039454.5024
        58.0004         51.0004
  21174776.1914  -13265904.76843 -10321816.26042  21174778.1304   21174772.9084
        55.0004         49.0004
  23162239.4954   -6172647.65643  -4794932.56842  23162242.7964   23162236.0074
        49.0004         42.0004
  23864985.6364   -4295149.85943  -3309766.09742  23864988.3194   23864986.2474
        46.0004         41.0004
  23126922.6794  -10654974.11143  -8237282.72142  23126923.1994   23126916.2714
        50.0004         44.0004
 05  6 27 16 53  0.0000000  0  9G22G21G 3G18G15G14G 9G 1G19
  20752970.5484   -1797521.35844  -1396784.86342  20752971.9064   20752963.9074
        57.0004         51.0004
  21950324.5994    5885810.42543   4586768.79742  21950325.2674   21950318.0614
        53.0004         45.0004
  21992780.2524   -5337457.16343  -4154234.09742  21992782.5534   21992778.9104
        51.0004         46.0004
  21628381.9094    4625335.90043   3604419.46142  21628383.7014   21628377.3634
        55.0004         47.0004
  20040804.2484   -3007588.16444  -2335049.49542  20040805.4234   20040800.3174
        58.0004         51.0004
  21161737.3094  -13334424.05243 -10375207.86742  21161739.8514   21161733.8144
        55.0004         49.0004
  23159368.1734   -6187743.45743  -4806695.53442  23159367.5114   23159364.8704
        50.0004         42.0004
  23844748.7744   -4401499.81943  -3392636.06442  23844749.9694   23844748.1884
        45.0004         40.0004
  23115039.8684  -10717404.44943  -8285929.69542  23115042.8824   23115036.3814
        49.0004         44.0004
 05  6 27 16 53 30.0000000  0  9G22G21G 3G18G15G14G 9G 1G19
  20754433.8064   -1789831.87644  -1390793.05842  20754434.6354   20754427.1524
        57.0004         50.0004
  21963563.4564    5955383.22643   4640981.34342  21963565.1034   21963558.7104
        53.0004         45.0004
  21993337.5644   -5334537.85143  -4151959.34742  21993338.5564   21993333.4714
        52.0004         46.0004
  21637600.0814    4673779.91143   3642168.02842  21637602.0274   21637594.8854
        55.0004         47.0004
  20042230.3434   -3000093.11544  -2329209.20142  20042231.8024   20042226.6054
        58.0004         51.0004
  21148783.0574  -13402494.75243 -10428249.94842  21148785.2154   21148780.0764
        55.0004         49.0004
  23156603.5334   -6202264.82743  -4818010.86642  23156604.8004   23156600.8024
        50.0004         42.0004
  23824542.6054   -4507686.76143  -3475379.03042  23824545.9194   23824541.1084
        46.0004         41.0004
  23103247.4944  -10779381.87343  -8334223.75642  23103249.3434   23103241.7064
        50.0004         43.0004
 05  6 27 16 54  0.0000000  0  9G22G21G 3G18G15G14G 9G 1G19
  20755935.8294   -1781939.46544  -1384643.12942  20755936.9244   20755928.9914
        57.0004         51.0004
  21976866.2954    6025291.26643   4695455.08242  21976867.7384   21976861.7454
        52.0004         45.0004
  21993997.2494   -5331068.93943  -4149256.30542  21993998.7554   21993994.0134
        53.0004         46.0004
  21646842.3934    4722350.53043   3680015.24742  21646844.2764   21646837.5464
        55.0004         47.0004
  20043737.7984   -2992172.40844  -2323037.24142  20043738.9934   20043734.1394
        58.0004         51.0004
  21135916.8304  -13470114.26843 -10480940.47142  21135918.3414   21135913.0194
        55.0004         49.0004
  23153950.0384   -6216209.20943  -4828876.60042  23153951.8864   23153947.5614
        48.0004         42.0004
  23804367.7054   -4613707.45143  -3557992.45942  23804369.1654   23804366.1284
        46.0004         40.0004
  23091540.6724  -10840902.91443  -8382162.22242  23091542.5094   23091536.8174
        50.0004         44.0004
 05  6 27 16 54 30.0000000  0  9G22G21G 3G18G15G14G 9G 1G19
  20757475.4754   -1773846.67744  -1378337.06442  20757476.0084   20757468.8994
        57.0004         50.0004
  21990233.4224    6095532.42543   4750188.39842  21990234.3304   21990228.0454
        52.0004         45.0004
  21994760.4784   -5327052.48243  -4146126.60442  21994762.7854   21994757.9774
        52.0004         46.0004
  21656108.6114    4771045.50043   3717959.36442  21656110.6674   21656104.5184
        55.0004         47.0004
  20045325.7834   -2983826.80444  -2316534.17942  20045327.3124   20045321.8874
        58.0004         51.0004
  21123134.2734  -13537282.63943 -10533279.43342  21123136.4484   21123130.7304
        55.0004         49.0004
  23151406.3394   -6229576.85143  -4839292.96342  23151407.6984   23151403.6994
        48.0004         42.0004
  23784224.0994   -4719561.35643  -3640475.88742  23784224.9744   23784221.2064
        46.0004         39.0004
  23079920.8204  -10901967.34343  -8429744.90142  23079921.8054   23079915.6704
        51.0004         44.0004
 05  6 27 16 55  0.0000000  0  9G22G21G 3G18G15G14G 9G 1G19
  20759054.5534   -1765552.23744  -1371873.86742  20759055.1084   20759047.0274
        57.0004         50.0004
  22003664.1324    6166108.13043   4805182.40742  22003664.3444   22003658.9804
        53.0004         45.0004
  21995629.4134   -5322487.15043  -4142569.21942  21995631.5214   21995627.0184
        52.0004         46.0004
  21665399.1984    4819866.63543   3756001.79042  21665401.0854   21665395.3284
        55.0004         47.0004
  20046995.0654   -2975053.27644  -2309697.66442  20046995.8734   20046992.0224
        58.0004         51.0004
  21110439.3594  -13603996.37343 -10585264.12542  21110441.3244   21110435.9454
        55.0004         49.0004
  23148972.6844   -6242364.31243  -4849257.20842  23148974.1944   23148969.6144
        48.0004         42.0004
  23764110.8234   -4825244.21643  -3722826.03642  23764113.1204   23764109.7934
        45.0004         39.0004
  23068387.7244  -10962571.11843  -8476968.60042  23068388.0624   23068380.8734
        50.0004         44.0004
 05  6 27 16 55 30.0000000  0  9G22G21G 3G18G15G14G 9G 1G19
  20760671.5904   -1757056.67844  -1365253.96242  20760672.1084   20760664.0554
        58.0004         51.0004
  22017156.6694    6237017.68143   4860436.56342  22017158.6094   22017151.4244
        53.0004         45.0004
  21996602.1724   -5317373.62643  -4138584.69042  21996604.1004   21996600.0914
        51.0004         46.0004
  21674713.1764    4868812.89643   3794141.70742  21674715.5514   21674709.4784
        55.0004         47.0004
  20048746.4014   -2965850.85744  -2302526.96642  20048747.4464   20048742.5614
        58.0004         51.0004
  21097830.7544  -13670253.97143 -10636893.40042  21097832.6684   21097827.8844
        55.0004         49.0004
  23146648.0214   -6254570.13843  -4858768.26442  23146651.9804   23146647.1914
        47.0004         42.0004
  23744035.2284   -4930753.87243  -3805041.26242  23744036.0864   23744032.1054
        47.0004         39.0004
  23056942.8714  -11022712.23543  -8523831.81242  23056943.9314   23056938.4474
        49.0004         44.0004
 05  6 27 16 56  0.0000000  0  9G22G21G 3G18G15G14G 9G 1G19
  20762325.3144   -1748364.80244  -1358481.06442  20762326.1624   20762317.7984
        58.0004         50.0004
  22030713.5124    6308256.65943   4915947.38542  22030715.4514   22030709.1764
        53.0004         45.0004
  21997680.5194   -5311716.33343  -4134176.44042  21997681.5314   21997676.6174
        53.0004         46.0004
  21684050.2424    4917880.30943   3832376.02442  21684052.2784   21684046.1064
        54.0004         47.0004
  20050578.9944   -2956222.17744  -2295024.10042  20050579.9994   20050575.0584
        58.0004         51.0004
  21085308.7184  -13736057.77543 -10688169.06542  21085311.2124   21085305.3724
        55.0004         49.0004
  23144437.2374   -6266196.82043  -4867827.98842  23144438.1894   23144435.0494
        48.0004         41.0004
  23723989.1344   -5036091.91443  -3887122.75342  23723988.9664   23723986.4824
        46.0004         39.0004
  23045586.9414  -11082392.45543  -8570335.89642  23045588.0564   23045580.8294
        50.0004         44.0004
 05  6 27 16 56 30.0000000  0  9G22G21G 3G18G15G14G 9G 1G19
  20764016.8784   -1739471.51744  -1351551.23842  20764018.1314   20764010.1914
        57.0004         50.0004
  22044332.7034    6379830.62043   4971719.24542  22044334.9054   22044328.3514
        52.0004         45.0004
  21998861.7284   -5305510.14643  -4129340.48742  21998863.3254   21998858.0004
        54.0004         47.0004
  21693412.3234    4967073.46943   3870708.35242  21693413.8414   21693407.2174
        55.0004         47.0004
  20052493.5764   -2946160.62144  -2287183.94942  20052494.9104   20052489.8364
        58.0004         51.0004
  21072874.4744  -13801400.65443 -10739085.56842  21072876.5424   21072871.1854
        55.0004         49.0004
  23142336.4244   -6277237.28843  -4876430.93842  23142337.9584   23142336.7664
        47.0004         41.0004
  23703977.3494   -5141250.40943  -3969064.33142  23703979.1284   23703977.8444
        47.0004         39.0004
  23034317.8264  -11141604.08943  -8616474.79142  23034319.9804   23034313.8554
        50.0004         44.0004
 05  6 27 16 57  0.0000000  0  9G22G21G 3G18G15G14G 9G 1G19
  20765746.5154   -1730383.60544  -1344469.74342  20765747.2904   20765739.7514
        57.0004         50.0004
  22058015.2134    6451733.25343   5027747.21342  22058016.7854   22058011.6534
        52.0004         45.0004
  22000144.8494   -5298761.46443  -4124081.79742  22000146.8224   22000142.0354
        54.0004         47.0004
  21702795.5344    5016385.82243   3909133.53242  21702798.2924   21702792.0994
        55.0004         47.0004
  20054489.0324   -2935671.11444  -2279010.31842  20054490.8184   20054486.3334
        58.0004         51.0004
  21060526.6504  -13866287.07843 -10789646.39642  21060529.2184   21060523.9304
        55.0004         49.0004
  23140346.2854   -6287696.00243  -4884580.61442  23140348.6624   23140344.6064
        49.0004         42.0004
  23683999.0134   -5246232.95443  -4050868.85642  23684001.2504   23683997.3304
        46.0004         39.0004
  23023140.2344  -11200351.39443  -8662251.90742  23023142.4264   23023135.5564
        51.0004         45.0004
 05  6 27 16 57 30.0000000  0  9G22G21G 3G18G15G14G 9G 1G19
  20767513.6534   -1721098.44944  -1337234.55942  20767514.3414   20767507.0574
        57.0004         50.0004
  22071761.7654    6523966.87943   5084033.10242  22071763.5124   22071757.4464
        52.0004         45.0004
  22001533.8174   -5291467.60643  -4118398.29442  22001535.3524   22001530.2094
        55.0004         46.0004
  21712202.8174    5065820.14643   3947653.75742  21712204.8354   21712199.4974
        55.0004         47.0004
  20056568.1384   -2924749.47044  -2270499.95642  20056569.1404   20056564.4594
        58.0004         51.0004
  21048268.2684  -13930712.25843 -10839847.81142  21048270.0874   21048264.5954
        56.0004         49.0004
  23138468.8034   -6297568.54843  -4892273.50242  23138470.3914   23138468.7964
        49.0004         43.0004
  23664056.0574   -5351034.23243  -4132532.11242  23664057.3194   23664055.5364
        45.0004         39.0004
  23012050.4994  -11258629.06043  -8707663.06742  23012052.8634   23012044.4274
        51.0004         45.0004
 05  6 27 16 58  0.0000000  0  9G22G21G 3G18G15G14G 9G 1G19
  20769317.6544   -1711620.60144  -1329849.22742  20769318.3754   20769310.4874
        57.0004         51.0004
  22085569.0544    6596527.07643   5140573.46342  22085570.8674   22085564.3664
        52.0004         44.0004
  22003023.2014   -5283633.32843  -4112293.68342  22003026.0244   22003020.8704
        54.0004         46.0004
  21721633.6694    5115372.33043   3986265.81942  21721635.4254   21721628.7364
        55.0004         47.0004
  20058727.7694   -2913398.63944  -2261655.17042  20058728.8964   20058724.1934
        58.0004         51.0004
  21036094.4544  -13994678.58443 -10889691.66942  21036097.1374   21036091.7534
        55.0004         49.0004
  23136699.4254   -6306857.52343  -4899511.63942  23136701.9554   23136697.8904
        48.0004         41.0004
  23644148.1724   -5455655.94643  -4214055.42742  23644149.2644   23644148.3874
        47.0004         40.0004
  23001048.5744  -11316439.00243  -8752709.79042  23001050.4674   23001044.8554
        50.0004         45.0004
 05  6 27 16 58 30.0000000  0  9G22G21G 3G18G15G14G 9G 1G19
  20771158.0834   -1701944.51744  -1322309.43042  20771159.3724   20771151.2564
        57.0004         50.0004
  22099440.6144    6669419.51143   5197372.69442  22099440.7424   22099435.8094
        52.0004         44.0004
  22004618.4984   -5275252.83143  -4105763.44642  22004620.5494   22004615.7424
        53.0004         46.0004
  21731084.4614    5165048.05743   4024974.16942  21731087.0144   21731080.9054
        55.0004         47.0004
  20060970.8454   -2901611.33444  -2252470.26042  20060971.8664   20060966.9644
        58.0004         51.0004
  21024011.8374  -14058178.46743 -10939172.08142  21024013.8994   21024008.6174
        56.0004         50.0004
  23135046.8024   -6315555.31743  -4906289.13542  23135048.9244   23135043.8994
        50.0004         41.0004
  23624274.0674   -5560089.57443  -4295432.19942  23624277.1984   23624275.3164
        46.0004         39.0004
  22990139.5464  -11373773.12843  -8797385.75042  22990141.2334   22990134.0604
        51.0004         44.0004
 05  6 27 16 59  0.0000000  0  9G22G21G 3G18G15G14G 9G 1G19
  20773037.0444   -1692072.36944  -1314616.85442  20773037.7454   20773030.4124
        57.0004         51.0004
  22113374.3784    6742642.62943   5254429.60842  22113375.4934   22113369.9994
        51.0004         44.0004
  22006318.0444   -5266328.26743  -4098809.25042  22006319.7104   22006314.1654
        54.0004         46.0004
  21740561.9014    5214845.34243   4063777.22142  21740564.0164   21740557.6474
        55.0004         47.0004
  20063297.5104   -2889387.78844  -2242945.43242  20063298.6454   20063293.5304
        58.0004         51.0004
  21012017.1224  -14121211.96043 -10988289.06242  21012018.8024   21012012.7404
        56.0004         49.0004
  23133502.2344   -6323661.93143  -4912605.95842  23133504.3904   23133500.3534
        49.0004         42.0004
  23604436.6504   -5664334.32643  -4376661.78442  23604438.1914   23604438.1084
        45.0004         39.0004
  22979318.9714  -11430630.60943  -8841690.26842  22979319.6544   22979312.8514
        51.0004         44.0004
 05  6 27 16 59 30.0000000  0  9G22G21G 3G18G15G14G 9G 1G19
  20774952.8124   -1682008.21944  -1306774.66342  20774953.2264   20774945.9324
        58.0004         51.0004
  22127371.0884    6816192.07743   5311740.80742  22127371.4734   22127365.8334
        52.0004         44.0004
  22008117.8604   -5256863.88743  -4091434.43142  22008120.2244   22008115.6984
        53.0004         46.0004
  21750059.4194    5264759.83343   4102671.60942  21750062.2584   21750055.1164
        54.0004         47.0004
  20065705.4284   -2876730.78244  -2233082.84242  20065707.1924   20065701.9734
        58.0004         51.0004
  21000109.4084  -14183781.10343 -11037044.21742  21000112.0124   21000106.6074
        55.0004         49.0004
  23132072.3784   -6331179.70843  -4918463.95742  23132073.9694   23132069.3654
        49.0004         42.0004
  23584635.6104   -5768391.43443  -4457745.14442  23584637.2824   23584637.1784
        46.0004         40.0004
  22968589.3094  -11487013.22743  -8885624.74842  22968591.6084   22968585.5824
        51.0004         45.0004
 05  6 27 17  0  0.0000000  0  9G22G21G 3G18G15G14G 9G 1G19
  20776903.9954   -1671751.99344  -1298782.79242  20776904.9184   20776897.2844
        58.0004         51.0004
  22141427.2594    6890067.83843   5369306.27642  22141429.4274   22141423.4604
        51.0004         44.0004
  22010022.3474   -5246859.84143  -4083639.09042  22010024.2094   22010019.4464
        54.0004         46.0004
  21759581.3944    5314791.77143   4141657.52342  21759582.8884   21759576.3204
        55.0004         47.0004
  20068196.6794   -2863638.49744  -2222881.06642  20068197.8134   20068193.7434
        58.0004         51.0004
  20988292.5214  -14245883.38643 -11085435.57242  20988294.5764   20988289.0564
        56.0004         49.0004
  23130755.5134   -6338106.66343  -4923861.59342  23130757.3454   23130750.2774
        49.0004         42.0004
  23564869.1624   -5872257.90043  -4538679.99642  23564872.7694   23564871.6164
        44.0004         39.0004
  22957952.1724  -11542918.50043  -8929187.29442  22957952.3204   22957947.1574
        51.0004         45.0004
 05  6 27 17  0 30.0000000  0  9G22G21G 3G18G15G14G 9G 1G19
  20778891.8624   -1661303.19344  -1290640.87042  20778892.9504   20778885.4684
        57.0004         50.0004
  22155548.9164    6964271.19343   5427126.97842  22155550.6944   22155544.6654
        51.0004         44.0004
  22012029.5164   -5236315.29943  -4075422.58542  22012031.2734   22012025.8794
        54.0004         46.0004
  21769124.1384    5364942.20743   4180735.76742  21769125.5454   21769119.3384
        54.0004         47.0004
  20070771.4334   -2850108.53844  -2212338.23542  20070772.7304   20070768.3734
        58.0004         51.0004
  20976563.9454  -14307516.23543 -11133461.14142  20976566.1064   20976560.7814
        56.0004         49.0004
  23129547.4364   -6344440.37043  -4928796.90642  23129550.2544   23129547.2994
        48.0004         42.0004
  23545141.6474   -5975930.23843  -4619463.52942  23545142.8724   23545140.5714
        46.0004         39.0004
  22947404.4854  -11598342.98943  -8972375.18242  22947406.4174   22947400.3484
        50.0004         45.0004
 05  6 27 17  1  0.0000000  0  9G22G21G 3G18G15G14G 9G 1G19
  20780917.3874   -1650662.52444  -1282349.44042  20780917.8844   20780910.0144
        57.0004         50.0004
  22169731.0874    7038801.11943   5485202.17942  22169732.5294   22169726.6204
        51.0004         44.0004
  22014137.7714   -5225231.22843  -4066785.68042  22014139.6854   22014135.0554
        52.0004         46.0004
  21778690.5924    5415210.62243   4219905.94542  21778692.5004   21778686.2714
        55.0004         47.0004
  20073429.7664   -2836140.24144  -2201453.85442  20073430.9084   20073426.1224
        58.0004         51.0004
  20964924.7944  -14368678.67443 -11181120.15442  20964926.7404   20964921.8034
        55.0004         49.0004
  23128455.3724   -6350179.71343  -4933269.11542  23128458.6314   23128453.8054
        47.0004         41.0004
  23525450.9254   -6079406.42443  -4700094.21142  23525452.6614   23525450.4274
        46.0004         40.0004
  22936947.6124  -11653285.12943  -9015187.24442  22936949.5454   22936943.7774
        49.0004         44.0004
 05  6 27 17  1 30.0000000  0  9G22G21G 3G18G15G14G 9G 1G19
  20782977.7924   -1639834.19644  -1273911.77842  20782978.7844   20782970.7134
        57.0004         50.0004
  22183975.8564    7113653.33343   5543528.52042  22183978.1654   22183971.4084
        52.0004         44.0004
  22016349.3364   -5213612.20143  -4057731.91142  22016351.0324   22016346.5194
        53.0004         46.0004
  21788276.1994    5465592.19443   4259164.28642  21788278.8054   21788272.6764
        54.0004         47.0004
  20076170.5064   -2821736.63444  -2190230.26842  20076171.8464   20076166.8064
        58.0004         51.0004
  20953374.3894  -14429372.84043 -11228414.28042  20953376.9244   20953372.2524
        55.0004         49.0004
  23127478.9124   -6355327.50843  -4937280.38042  23127479.4984   23127474.6354
        49.0004         42.0004
  23505797.6844   -6182688.28443  -4780573.46242  23505799.2264   23505797.9974
        47.0004         40.0004
  22926586.7064  -11707746.89143  -9057624.96242  22926588.0464   22926580.1744
        51.0004         45.0004
 05  6 27 17  2  0.0000000  0  9G22G21G 3G18G15G14G 9G 1G19
  20785075.2374   -1628811.92544  -1265323.00142  20785076.4644   20785068.0574
        57.0004         50.0004
  22198281.7374    7188834.16943   5602110.93642  22198283.8674   22198278.0834
        52.0004         44.0004
  22018663.3624   -5201451.83143  -4048256.32542  22018664.8624   22018660.2784
        53.0004         45.0004
  21797887.8954    5516094.43843   4298516.67042  21797889.2194   21797882.9224
        54.0004         46.0004
  20078995.4804   -2806889.35244  -2178660.95542  20078996.9164   20078991.5944
        58.0004         51.0004
  20941916.2004  -14489590.44043 -11275337.05942  20941918.2954   20941913.0154
        55.0004         49.0004
  23126609.8184   -6359875.35443  -4940824.12442  23126612.0894   23126610.3594
        48.0004         42.0004
  23486182.6154   -6285766.11643  -4860893.74642  23486184.5894   23486182.5114
        47.0004         40.0004
  22916314.3384  -11761719.20043  -9099681.29842  22916314.9694   22916309.5504
        50.0004         44.0004
 05  6 27 17  2 30.0000000  0  9G22G21G 3G18G15G14G 9G 1G19
  20787207.8764   -1617602.97644  -1256588.76842  20787209.1504   20787201.5284
        57.0004         50.0004
  22212649.7734    7264336.44643   5660943.82342  22212650.6114   22212645.2094
        52.0004         44.0004
  22021079.2044   -5188757.72443  -4038364.83742  22021081.6194   22021075.7214
        53.0004         45.0004
  21807518.7774    5566709.56543   4337957.01742  21807520.5954   21807514.4964
        54.0004         46.0004
  20081904.7574   -2791604.18844  -2166750.44342  20081905.8324   20081900.7594
        58.0004         51.0004
  20930546.5734  -14549336.69243 -11321892.55942  20930548.6714   20930543.5854
        55.0004         49.0004
  23125858.6834   -6363828.94543  -4943904.84642  23125861.4274   23125858.1524
        48.0004         42.0004
  23466605.7014   -6388644.34843  -4941058.52242  23466607.8304   23466605.1354
        48.0004         41.0004
  22906136.8474  -11815206.76843  -9141359.90142  22906137.2004   22906132.5284
        50.0004         44.0004
 05  6 27 17  3  0.0000000  0  9G22G21G 3G18G15G14G 9G 1G19
  20789377.4194   -1606202.77744  -1247705.49042  20789378.2564   20789370.9594
        57.0004         51.0004
  22227078.9784    7340165.03343   5720030.96742  22227080.6164   22227076.6074
        52.0004         44.0004
  22023595.6564   -5175525.33243  -4028053.88742  22023598.1804   22023593.2194
        52.0004         45.0004
  21817173.7044    5617442.57943   4377489.21542  21817175.6064   21817169.3124
        55.0004         46.0004
  20084897.9554   -2775875.04744  -2154493.97442  20084898.9104   20084894.0074
        58.0004         51.0004
  20919269.0674  -14608604.88743 -11368075.54342  20919270.6704   20919265.4044
        56.0004         50.0004
  23125219.8994   -6367181.81743  -4946517.45542  23125221.5954   23125219.0904
        47.0004         41.0004
  23447067.7994   -6491315.62443  -5021062.04942  23447069.8174   23447067.7314
        49.0004         41.0004
  22896049.0294  -11868202.42443  -9182655.19042  22896051.5494   22896047.6734
        49.0004         44.0004
 05  6 27 17  3 30.0000000  0  9G22G21G 3G18G15G14G 9G 1G19
  20791581.8974   -1594619.64144  -1238679.68242  20791582.7464   20791574.7984
        57.0004         51.0004
  22241568.8234    7416311.39143   5779365.71542  22241569.6424   22241565.1194
        51.0004         44.0004
  22026214.4804   -5161763.45443  -4017330.36242  22026217.3144   22026212.0154
        52.0004         45.0004
  21826847.9694    5668285.28643   4417106.90142  21826850.2424   21826844.6024
        54.0004         46.0004
  20087973.7714   -2759708.62644  -2141896.76442  20087975.1034   20087970.2954
        58.0004         51.0004
  20908080.1414  -14667401.66043 -11413891.19342  20908081.8204   20908076.5954
        56.0004         50.0004
  23124695.1414   -6369940.81843  -4948667.33842  23124697.4424   23124694.6234
        48.0004         42.0004
  23427569.0314   -6593785.55543  -5100908.66342  23427570.3004   23427569.0464
        49.0004         41.0004
  22886060.0724  -11920712.54643  -9223572.14042  22886060.7134   22886054.6674
        51.0004         44.0004
 05  6 27 17  4  0.0000000  0  9G22G21G 3G18G15G14G 9G 1G19
  20793821.7134   -1582846.02944  -1229505.43042  20793822.7354   20793815.4804
        57.0004         51.0004
  22256121.1654    7492783.00943   5838953.92342  22256123.4184   22256117.4534
        51.0004         44.0004
  22028935.8914   -5147464.72143  -4006188.50942  22028937.9424   22028933.6554
        52.0004         45.0004
  21836546.0204    5719245.39443   4456816.06642  21836547.4014   21836541.7994
        54.0004         46.0004
  20091135.6804   -2743095.94644  -2128951.82742  20091136.8584   20091131.8434
        58.0004         51.0004
  20896982.8874  -14725717.53943 -11459332.10642  20896985.1274   20896980.0324
        56.0004         50.0004
  23124286.5314   -6372096.44843  -4950347.05242  23124289.0814   23124283.1304
        48.0004         41.0004
  23408109.1014   -6696043.66843  -5180590.23542  23408111.2244   23408108.2624
        48.0004         41.0004
  22876158.9784  -11972726.49543  -9264102.50742  22876161.7774   22876156.9194
        49.0004         44.0004
 05  6 27 17  4 30.0000000  0  9G22G21G 3G18G15G14G 9G 1G19
  20796098.2534   -1570886.79444  -1220186.55042  20796099.2874   20796091.3194
        58.0004         51.0004
  22270735.3334    7569574.85843   5898791.67842  22270736.9354   22270730.0594
        52.0004         44.0004
  22031758.1434   -5132634.45643  -3994632.47742  22031760.5414   22031756.3844
        52.0004         45.0004
  21846264.6904    5770317.97843   4496612.85442  21846266.5264   21846260.9514
        54.0004         46.0004
  20094381.0754   -2726040.75044  -2115662.06942  20094382.2204   20094377.1994
        58.0004         51.0004
  20885976.5514  -14783555.70143 -11504400.77842  20885978.7814   20885972.8784
        56.0004         50.0004
  23123988.5774   -6373652.38943  -4951559.45142  23123991.4014   23123986.4724
        48.0004         41.0004
  23388689.6574   -6798092.46043  -5260108.72242  23388691.5374   23388689.8604
        48.0004         41.0004
  22866358.8254  -12024247.55643  -9304248.80442  22866359.9864   22866352.6284
        51.0004         45.0004
 05  6 27 17  5  0.0000000  0  9G22G21G 3G18G15G14G 9G 1G19
  20798408.4774   -1558745.80144  -1210726.04042  20798409.3684   20798401.5174
        57.0004         50.0004
  22285408.1114    7646683.49043   5958876.27442  22285410.3434   22285404.2214
        51.0004         44.0004
  22034680.6564   -5117276.56843  -3982665.31242  22034683.3954   22034678.3784
        52.0004         45.0004
  21856003.6604    5821499.90443   4536494.86342  21856005.1484   21855999.4244
        54.0004         46.0004
  20097710.5884   -2708544.86744  -2102028.92042  20097711.3304   20097706.8874
        58.0004         51.0004
  20875060.3174  -14840917.83543 -11549098.51342  20875062.8284   20875056.9924
        55.0004         50.0004
  23123807.0164   -6374610.54643  -4952306.04542  23123810.0834   23123805.0444
        48.0004         42.0004
  23369309.6664   -6899932.49743  -5339464.50442  23369311.7834   23369309.4054
        49.0004         41.0004
  22856646.5044  -12075276.85143  -9344011.88142  22856649.0494   22856640.5994
        51.0004         45.0004
 05  6 27 17  5 30.0000000  0  9G22G21G 3G18G15G14G 9G 1G19
  20800753.8614   -1546415.38044  -1201117.91042  20800755.0894   20800747.7544
        57.0004         50.0004
  22300144.2494    7724115.85743   6019213.10542  22300144.8714   22300139.4534
        52.0004         44.0004
  22037705.1044   -5101384.12843  -3970281.60642  22037707.5564   22037702.8404
        53.0004         45.0004
  21865766.3604    5872798.43943   4576467.73242  21865767.8774   21865761.4474
        54.0004         46.0004
  20101124.7964   -2690599.78944  -2088045.74242  20101126.1954   20101121.5844
        58.0004         51.0004
  20864237.4204  -14897794.72943 -11593418.14842  20864239.2984   20864234.1954
        55.0004         50.0004
  23123739.3274   -6374961.90043  -4952579.83042  23123741.0134   23123737.7394
        48.0004         41.0004
  23349973.4544   -7001553.61843  -5418649.70942  23349975.2464   23349972.2454
        49.0004         41.0004
  22847030.9044  -12125804.57343  -9383384.09242  22847033.8984   22847025.3814
        51.0004         44.0004
 05  6 27 17  6  0.0000000  0  9G22G21G 3G18G15G14G 9G 1G19
  20803135.5824   -1533904.68044  -1191369.32342  20803136.0304   20803128.0194
        57.0004         50.0004
  22314938.2744    7801862.84543   6079795.10142  22314939.6814   22314932.8874
        52.0004         43.0004
  22040829.1564   -5084966.59143  -3957488.76142  22040831.0354   22040827.0694
        52.0004         45.0004
  21875547.7964    5924205.15543   4616524.89642  21875549.4044   21875544.2674
        53.0004         46.0004
  20104624.3854   -2672213.09244  -2073718.44742  20104625.3484   20104620.2064
        58.0004         51.0004
  20853504.2654  -14954193.72543 -11637365.39342  20853506.5104   20853501.5284
        55.0004         49.0004
  23123789.6744   -6374714.17843  -4952386.81542  23123790.7954   23123785.4144
        49.0004         42.0004
  23330674.9344   -7102962.24543  -5497669.31242  23330676.2044   23330674.6214
        49.0004         41.0004
  22837509.7294  -12175837.27643  -9422370.61842  22837511.3474   22837504.1214
        50.0004         44.0004
 05  6 27 17  6 30.0000000  0  9G22G21G 3G18G15G14G 9G 1G19
  20805551.4184   -1521207.91544  -1181475.73742  20805552.0934   20805544.5714
        57.0004         50.0004
  22329793.0804    7879930.69843   6140627.14942  22329794.9734   22329788.5334
        50.0004         43.0004
  22044055.4044   -5068018.13943  -3944282.19642  22044056.5934   22044051.4904
        53.0004         45.0004
  21885352.9914    5975725.85143   4656670.87642  21885354.5664   21885347.8614
        54.0004         46.0004
  20108208.8984   -2653377.26144  -2059041.18142  20108210.0624   20108204.8844
        58.0004         51.0004
  20842865.6034  -15010106.94943 -11680934.11142  20842867.2554   20842861.7294
        56.0004         50.0004
  23123949.9874   -6373859.94543  -4951721.19242  23123952.1384   23123947.6504
        49.0004         42.0004
  23311420.6014   -7204149.57443  -5576516.53142  23311423.5094   23311419.2244
        49.0004         42.0004
  22828087.5154  -12225367.22443  -9460965.39142  22828088.2174   22828081.7644
        52.0004         45.0004
 05  6 27 17  7  0.0000000  0  9G22G21G 3G18G15G14G 9G 1G19
  20808002.7434   -1508329.21644  -1171440.39242  20808003.1774   20807995.0614
        57.0004         50.0004
  22344710.4254    7958314.75743   6201705.59142  22344712.3204   22344705.0594
        52.0004         43.0004
  22047379.4534   -5050543.87043  -3930665.91842  22047381.6314   22047376.8584
        53.0004         44.0004
  21895177.4334    6027356.17843   4696902.27842  21895178.7274   21895173.5654
        54.0004         46.0004
  20111877.5244   -2634095.16244  -2044016.17242  20111878.7584   20111873.9064
        58.0004         51.0004
  20832316.7984  -15065537.06343 -11724126.38742  20832319.0414   20832313.8264
        56.0004         50.0004
  23124226.5634   -6372402.24843  -4950585.31942  23124228.3724   23124223.8784
        48.0004         41.0004
  23292206.3384   -7305117.23243  -5655192.57642  23292207.8484   23292207.0924
        49.0004         42.0004
  22818754.8604  -12274396.12443  -9499169.71842  22818757.1984   22818750.9864
        51.0004         45.0004
 05  6 27 17  7 30.0000000  0  9G22G21G 3G18G15G14G 9G 1G19
  20810488.2984   -1495267.21244  -1161262.21042  20810489.0274   20810481.0974
        58.0004         51.0004
  22359686.3094    8037016.07243   6263031.23342  22359688.8384   22359681.9224
        51.0004         43.0004
  22050805.6014   -5032542.76843  -3916639.07942  22050807.7654   22050802.2144
        53.0004         45.0004
  21905022.4644    6079097.77043   4737220.40842  21905024.4004   21905019.2674
        53.0004         46.0004
  20115632.7204   -2614364.10744  -2028641.33342  20115633.6734   20115629.0454
        58.0004         51.0004
  20821861.7404  -15120481.02943 -11766939.83442  20821863.6434   20821858.2254
        55.0004         50.0004
  23124620.2434   -6370338.21143  -4948977.00042  23124623.6244   23124618.8364
        48.0004         41.0004
  23273034.4024   -7405861.23443  -5733694.36042  23273037.9924   23273033.3034
        48.0004         41.0004
  22809522.4864  -12322920.41843  -9536980.87442  22809523.4284   22809516.5284
        51.0004         45.0004
 05  6 27 17  8  0.0000000  0  9G22G21G 3G18G15G14G 9G 1G19
  20813008.3894   -1482023.36144  -1150942.32242  20813008.9104   20813001.5914
        58.0004         51.0004
  22374722.1444    8116033.36543   6324603.10042  22374723.8994   22374718.9854
        51.0004         43.0004
  22054330.6704   -5014016.37343  -3902202.94442  22054332.2184   22054328.7184
        53.0004         44.0004
  21914890.4774    6130949.65043   4777624.43742  21914892.7004   21914886.5844
        54.0004         46.0004
  20119472.7284   -2594184.15244  -2012916.69742  20119473.8694   20119468.8874
        58.0004         51.0004
  20811498.6404  -15174938.33643 -11809374.06242  20811500.7544   20811495.5634
        56.0004         50.0004
  23125128.9424   -6367667.65043  -4946896.02942  23125131.5194   23125127.6544
        48.0004         41.0004
  23253906.7874   -7506380.01743  -5812020.61542  23253907.6874   23253905.3834
        49.0004         41.0004
  22800384.2354  -12370939.23243  -9574398.11742  22800386.5834   22800380.5944
        51.0004         45.0004
 05  6 27 17  8 30.0000000  0  9G22G21G 3G18G15G14G 9G 1G19
  20815562.6264   -1468600.26244  -1140482.76642  20815563.8114   20815555.4524
        58.0004         51.0004
  22389819.4974    8195363.80443   6386418.96242  22389819.7044   22389815.2974
        51.0004         43.0004
  22057957.0814   -4994968.08943  -3887360.14442  22057958.5094   22057952.7564
        53.0004         44.0004
  21924779.5934    6182909.74543   4818112.78442  21924780.4904   21924773.3684
        54.0004         46.0004
  20123397.6674   -2573556.73044  -1996843.37642  20123398.5764   20123394.7854
        58.0004         51.0004
  20801227.5544  -15228909.90943 -11851429.80542  20801230.0134   20801225.0674
        56.0004         50.0004
  23125751.0704   -6364391.86243  -4944343.50442  23125752.6924   23125747.0424
        48.0004         42.0004
  23234821.4304   -7606673.58243  -5890171.35842  23234823.1774   23234819.7084
        49.0004         41.0004
  22791341.2294  -12418453.07543  -9611421.87742  22791343.0984   22791337.5934
        51.0004         45.0004
 05  6 27 17  9  0.0000000  0  9G22G21G 3G18G15G14G 9G 1G19
  20818151.1304   -1454999.08744  -1129884.45142  20818151.8004   20818143.5624
        57.0004         50.0004
  22404974.7224    8275005.97843   6448477.74242  22404976.2424   22404969.1284
        51.0004         43.0004
  22061678.4104   -4975399.98243  -3872112.26742  22061680.7474   22061677.1494
        51.0004         44.0004
  21934686.5854    6234976.34543   4858684.15142  21934688.4434   21934682.8124
        54.0004         46.0004
  20127408.4624   -2552481.62044  -1980421.22042  20127409.5444   20127404.7654
        58.0004         51.0004
  20791051.3154  -15282395.32743 -11893106.74242  20791052.9184   20791046.2484
        56.0004         50.0004
  23126492.1174   -6360510.96143  -4941319.44342  23126493.2754   23126487.3404
        49.0004         42.0004
  23215778.7254   -7706740.45543  -5968145.51042  23215781.5234   23215778.1984
        49.0004         42.0004
  22782399.2584  -12465460.74443  -9648051.23542  22782400.1714   22782391.3994
        52.0004         45.0004
 05  6 27 17  9 30.0000000  0  9G22G21G 3G18G15G14G 9G 1G19
  20820773.3064   -1441216.12444  -1119144.48242  20820774.3974   20820766.9994
        57.0004         50.0004
  22420188.9784    8354963.49143   6510782.23242  22420191.7004   22420185.9884
        50.0004         43.0004
  22065501.3524   -4955308.51143  -3856456.61342  22065503.9914   22065500.0304
        50.0004         43.0004
  21944615.3194    6287153.97943   4899342.03942  21944617.2154   21944612.0624
        54.0004         46.0004
  20131505.1214   -2530953.89244  -1963646.37442  20131506.1494   20131501.2704
        58.0004         51.0004
  20780965.6824  -15335389.62543 -11934400.97942  20780967.9074   20780962.3574
        56.0004         50.0004
  23127344.8364   -6356019.86843  -4937819.91442  23127348.3154   23127344.4724
        49.0004         42.0004
  23196781.3004   -7806574.30543  -6045938.06442  23196783.7874   23196780.0454
        50.0004         42.0004
  22773548.4924  -12511956.61143  -9684281.76442  22773550.0844   22773545.5414
        51.0004         45.0004
 05  6 27 17 10  0.0000000  0  9G22G21G 3G18G15G14G 9G 1G19
  20823429.6104   -1427256.25744  -1108266.65942  20823430.7204   20823422.9684
        57.0004         50.0004
  22435463.9894    8435231.12943   6573328.38542  22435465.2374   22435459.1384
        51.0004         43.0004
  22069424.4364   -4934699.21343  -3840397.43742  22069425.8064   22069422.4674
        50.0004         43.0004
  21954564.5184    6339437.56243   4940082.47042  21954566.7784   21954560.8314
        54.0004         47.0004
  20135686.7404   -2508977.07644  -1946521.58442  20135687.9414   20135683.1654
        58.0004         51.0004
  20770974.4614  -15387895.40843 -11975314.54942  20770976.5854   20770970.8904
        56.0004         50.0004
  23128315.4384   -6350922.14343  -4933847.70142  23128315.9754   23128312.5234
        49.0004         42.0004
  23177828.7724   -7906177.34843  -6123550.78142  23177829.7454   23177827.9034
        50.0004         42.0004
  22764798.8164  -12557943.28243  -9720115.53342  22764800.2794   22764794.1394
        51.0004         45.0004
 05  6 27 17 10 30.0000000  0  9G22G21G 3G18G15G14G 9G 1G19
  20826120.9444   -1413116.96544  -1097249.04642  20826121.5704   20826113.5554
        57.0004         50.0004
  22450799.3534    8515811.13943   6636117.95842  22450799.0564   22450793.8034
        51.0004         43.0004
  22073445.7284   -4913570.16143  -3823933.27142  22073446.4604   22073443.0894
        49.0004         43.0004
  21964534.4404    6391829.76343   4980907.53642  21964536.3134   21964531.0814
        54.0004         47.0004
  20139955.1664   -2486547.45744  -1929043.96542  20139956.3194   20139951.3764
        58.0004         51.0004
  20761076.3954  -15439908.88843 -12015844.51142  20761078.7744   20761072.8324
        56.0004         50.0004
  23129401.6104   -6345214.33843  -4929400.09542  23129402.9464   23129398.8964
        48.0004         41.0004
  23158920.3014   -8005544.40143  -6200979.59442  23158922.5674   23158918.8994
        51.0004         43.0004
  22756145.4054  -12603416.41543  -9755549.13042  22756147.4104   22756141.7114
        52.0004         45.0004
 05  6 27 17 11  0.0000000  0  9G22G21G 3G18G15G14G 9G 1G19
  20828844.2984   -1398802.64444  -1086095.02042  20828845.3164   20828837.8104
        57.0004         50.0004
  22466190.8004    8596699.07943   6699147.44642  22466192.2664   22466186.1744
        51.0004         43.0004
  22077563.5984   -4891926.40743  -3807068.03642  22077564.6154   22077561.7204
        49.0004         43.0004
  21974524.5474    6444326.55043   5021814.09742  21974526.3774   21974519.5844
        55.0004         46.0004
  20144309.4584   -2463667.86944  -1911215.71542  20144310.2944   20144305.7424
        58.0004         51.0004
  20751271.6184  -15491432.68643 -12055992.90242  20751274.0714   20751268.1504
        55.0004         50.0004
  23130602.8434   -6338899.45643  -4924479.43542  23130604.9244   23130599.0024
        48.0004         41.0004
  23140054.0554   -8104677.11143  -6278225.80642  23140057.4374   23140053.4014
        50.0004         42.0004
  22747588.9454  -12648378.12643  -9790584.23842  22747591.1114   22747584.7854
        51.0004         45.0004
 05  6 27 17 11 30.0000000  0  9G22G21G 3G18G15G14G 9G 1G19
  20831603.0184   -1384308.88644  -1074801.19842  20831603.4374   20831596.1404
        58.0004         50.0004
  22481641.0044    8677899.06743   6762420.09842  22481642.7554   22481638.5394
        49.0004         43.0004
  22081780.7514   -4869764.21643  -3789798.79642  22081782.5294   22081779.6044
        49.0004         43.0004
  21984535.1284    6496932.77343   5062805.93742  21984536.9614   21984531.0254
        54.0004         46.0004
  20148749.0584   -2440332.90144  -1893032.62942  20148750.3474   20148745.6704
        58.0004         51.0004
  20741560.6094  -15542460.98643 -12095755.18642  20741562.9714   20741557.4614
        55.0004         50.0004
  23131921.8624   -6331972.01143  -4919081.43242  23131923.9754   23131918.6614
        48.0004         42.0004
  23121237.4654   -8203568.49843  -6355283.98142  23121239.0184   23121233.7974
        49.0004         42.0004
  22739131.8214  -12692821.94743  -9825215.78242  22739132.7794   22739128.0734
        52.0004         45.0004
 05  6 27 17 12  0.0000000  0  9G22G21G 3G18G15G14G 9G 1G19
  20834393.9834   -1369641.31144  -1063371.91142  20834394.5364   20834387.0054
        58.0004         50.0004
  22497153.6494    8759405.14643   6825931.26442  22497154.1354   22497148.7574
        51.0004         44.0004
  22086095.1524   -4847090.05643  -3772130.65542  22086097.7634   22086092.8394
        48.0004         43.0004
  21994565.4964    6549642.73543   5103878.61042  21994567.5384   21994561.5724
        54.0004         46.0004
  20153275.4344   -2416546.98644  -1874498.15442  20153276.8354   20153272.4434
        58.0004         51.0004
  20731944.5604  -15592998.17243 -12135134.80142  20731946.5634   20731940.8744
        56.0004         50.0004
  23133355.5434   -6324436.51843  -4913209.64842  23133358.3764   23133352.8314
        48.0004         42.0004
  23102463.0494   -8302221.64743  -6432156.49742  23102463.0884   23102461.0694
        48.0004         41.0004
  22730773.8404  -12736751.45043  -9859446.57142  22730775.1424   22730768.8854
        53.0004         46.0004
 05  6 27 17 12 30.0000000  0  9G22G21G 3G18G15G14G 9G 1G19
  20837218.6474   -1354797.37244  -1051805.21442  20837219.9304   20837211.4244
        58.0004         51.0004
  22512720.0234    8841219.42943   6889682.60042  22512722.5254   22512718.2274
        50.0004         43.0004
  22090509.2614   -4823902.21643  -3754062.22842  22090510.0934   22090505.4454
        50.0004         43.0004
  22004615.9624    6602459.01643   5145034.13842  22004617.4234   22004612.0534
        54.0004         46.0004
  20157887.9114   -2392306.38444  -1855609.37642  20157889.6364   20157885.3774
        57.0004         51.0004
  20722421.4354  -15643040.22043 -12174128.58742  20722423.6424   20722418.1024
        55.0004         50.0004
  23134905.6064   -6316289.40243  -4906861.27042  23134907.2334   23134904.9914
        48.0004         42.0004
  23083736.5124   -8400631.32743  -6508839.33042  23083739.3794   23083734.1284
        49.0004         42.0004
  22722511.4664  -12780162.02443  -9893272.97842  22722513.8784   22722506.5854
        52.0004         45.0004
 05  6 27 17 13  0.0000000  0  9G22G21G 3G18G15G14G 9G 1G19
  20840076.7284   -1339777.79944  -1040101.65142  20840077.2294   20840069.0784
        57.0004         50.0004
  22528349.7484    8923341.15343   6953673.47642  22528351.7694   22528345.5074
        50.0004         43.0004
  22095016.7364   -4800201.75143  -3735594.36342  22095018.8554   22095016.5554
        48.0004         43.0004
  22014686.1414    6655381.56043   5186272.46442  22014688.2054   22014682.5444
        54.0004         46.0004
  20162589.0794   -2367610.71344  -1836366.00342  20162589.7064   20162584.7654
        58.0004         51.0004
  20712993.6694  -15692585.96243 -12212735.62742  20712995.5774   20712989.9004
        56.0004         50.0004
  23136570.5694   -6307530.35843  -4900036.08142  23136574.0904   23136570.4464
        47.0004         42.0004
  23065056.8284   -8498795.59243  -6585330.90542  23065059.0994   23065055.7344
        51.0004         43.0004
  22714349.8044  -12823052.73843  -9926694.30342  22714351.6294   22714344.6754
        52.0004         45.0004
 05  6 27 17 13 30.0000000  0  9G22G21G 3G18G15G14G 9G 1G19
  20842968.0834   -1324584.36144  -1028262.61342  20842968.7454   20842960.8404
        57.0004         50.0004
  22544034.6684    9005767.94443   7017902.08542  22544035.9274   22544029.6464
        50.0004         43.0004
  22099627.7424   -4775991.68743  -3716729.41342  22099628.4734   22099623.0344
        51.0004         44.0004
  22024777.7174    6708408.38143   5227592.05442  22024779.3944   22024772.6464
        54.0004         46.0004
  20167373.6124   -2342461.02744  -1816768.84242  20167374.8374   20167369.7284
        58.0004         51.0004
  20703659.6994  -15741635.95143 -12250956.37342  20703661.7204   20703655.8484
        56.0004         50.0004
  23138354.1304   -6298160.47843  -4892734.90842  23138356.1584   23138353.9044
        47.0004         41.0004
  23046422.0664   -8596713.99943  -6661630.91142  23046424.6484   23046423.5064
        49.0004         43.0004
  22706285.7934  -12865423.42043  -9959710.41842  22706288.1974   22706282.2294
        50.0004         45.0004
 05  6 27 17 14  0.0000000  0  9G22G21G 3G18G15G14G 9G 1G19
  20845893.0094   -1309216.57844  -1016287.72342  20845893.6374   20845885.5924
        58.0004         50.0004
  22559776.9994    9088499.75243   7082368.37242  22559778.7754   22559773.0924
        50.0004         43.0004
  22104329.7344   -4751272.19443  -3697467.49042  22104331.9074   22104326.8934
        51.0004         44.0004
  22034888.2784    6761540.21843   5268993.47042  22034889.5854   22034883.3184
        54.0004         46.0004
  20172246.2534   -2316855.49144  -1796816.48142  20172247.0774   20172242.8094
        57.0004         51.0004
  20694420.0784  -15790188.45043 -12288789.46242  20694422.7024   20694416.0964
        56.0004         50.0004
  23140255.2804   -6288178.18443  -4884956.52242  23140255.5114   23140253.7964
        48.0004         41.0004
  23027837.4414   -8694383.41643  -6737736.86142  23027839.4484   23027835.4934
        48.0004         42.0004
  22698323.5034  -12907271.45743  -9992319.29442  22698324.9264   22698317.4974
        51.0004         45.0004
 05  6 27 17 14 30.0000000  0  9G22G21G 3G18G15G14G 9G 1G19
  20848849.3344   -1293675.64344  -1004177.90742  20848850.2424   20848843.0234
        57.0004         50.0004
  22575579.1094    9171535.47243   7147071.48242  22575580.7944   22575575.1434
        51.0004         43.0004
  22109131.0474   -4726045.14743  -3677810.07842  22109132.5684   22109127.5734
        50.0004         44.0004
  22045017.7834    6814776.27443   5310476.08042  22045019.6934   22045014.9164
        53.0004         46.0004
  20177206.7224   -2290794.06244  -1776508.87842  20177207.3714   20177201.9034
        58.0004         51.0004
  20685275.8224  -15838243.07643 -12326234.60042  20685278.0644   20685272.1964
        56.0004         50.0004
  23142270.7134   -6277583.40743  -4876700.84342  23142273.9274   23142268.5124
        48.0004         42.0004
  23009298.3944   -8791802.35143  -6813647.65642  23009300.5734   23009298.1054
        49.0004         42.0004
  22690458.8444  -12948596.15443 -10024520.36042  22690461.4264   22690453.8874
        50.0004         44.0004
 05  6 27 17 15  0.0000000  0  9G22G21G 3G18G15G14G 9G 1G19
  20851840.7914   -1277960.58444   -991932.41842  20851841.5764   20851833.2464
        58.0004         50.0004
  22591438.3174    9254875.64443   7212011.81742  22591439.5094   22591432.9524
        51.0004         43.0004
  22114026.2404   -4700310.68843  -3657757.29242  22114028.8234   22114024.5494
        50.0004         43.0004
  22055168.6854    6868117.55143   5352040.69042  22055170.8824   22055165.2404
        53.0004         46.0004
  20182252.6194   -2264274.79844  -1755844.52642  20182253.8754   20182248.4724
        58.0004         51.0004
  20676226.5554  -15885797.58443 -12363290.03642  20676228.8024   20676223.0934
        56.0004         50.0004
  23144402.6024   -6266374.56243  -4867966.67542  23144404.8124   23144402.6344
        48.0004         42.0004
  22990807.0884   -8888967.38643  -6889360.60842  22990810.7554   22990808.0294
        48.0004         42.0004
  22682695.4144  -12989394.77343 -10056311.48842  22682697.1124   22682691.0244
        51.0004         44.0004
 05  6 27 17 15 30.0000000  0  9G22G21G 3G18G15G14G 9G 1G19
  20854862.0004   -1262076.87144   -979555.50242  20854863.1214   20854855.9924
        57.0004         50.0004
  22607352.0754    9338514.29543   7277184.74442  22607356.2674   22607349.7654
        49.0004         42.0004
  22119020.6104   -4674075.09443  -3637314.01442  22119021.2304   22119017.7664
        50.0004         43.0004
  22065339.2874    6921559.20043   5393683.51942  22065341.7934   22065334.1704
        54.0004         46.0004
  20187384.5074   -2237302.02444  -1734826.79042  20187385.7904   20187380.9974
        58.0004         51.0004
  20667271.8064  -15932856.00843 -12399958.91442  20667273.8954   20667267.9374
        56.0004         50.0004
  23146651.9714   -6254556.09443  -4858757.52242  23146653.2774   23146652.3774
        47.0004         42.0004
  22972366.5754   -8985881.34843  -6964877.90742  22972366.6744   22972365.8464
        48.0004         41.0004
  22675030.6504  -13029670.63543 -10087695.26542  22675031.5794   22675025.9144
        50.0004         45.0004
 05  6 27 17 16  0.0000000  0  9G22G21G 3G18G15G14G 9G 1G19
  20857918.9204   -1246019.34744   -967043.14942  20857919.3034   20857911.7404
        58.0004         51.0004
  22623327.4464    9422456.18743   7342593.97242  22623328.1374   22623325.2544
        49.0004         42.0004
  22124109.1744   -4647334.04643  -3616476.88742  22124110.3564   22124104.5664
        50.0004         43.0004
  22075527.1444    6975105.97443   5435408.27142  22075529.4924   22075523.6184
        53.0004         46.0004
  20192605.4694   -2209869.61244  -1713450.89042  20192606.4934   20192601.4114
        58.0004         51.0004
  20658412.5804  -15979412.31643 -12436236.53342  20658414.3134   20658408.8434
        56.0004         50.0004
  23149018.8844   -6242122.06743  -4849068.70642  23149020.9424   23149018.6814
        47.0004         42.0004
  22953973.3574   -9082536.61343  -7040193.63142  22953975.1764   22953972.9504
        48.0004         42.0004
  22667467.9694  -13069417.02143 -10118666.47142  22667469.5764   22667462.7204
        51.0004         45.0004
 05  6 27 17 16 30.0000000  0  9G22G21G 3G18G15G14G 9G 1G19
  20861005.7074   -1229795.07744   -954400.87142  20861006.8694   20860999.0974
        58.0004         51.0004
  22639358.8934    9506693.60843   7408233.47142  22639359.7624   22639354.0884
        51.0004         42.0004
  22129292.4684   -4620095.66343  -3595252.17842  22129295.6624   22129289.6994
        50.0004         43.0004
  22085737.1344    7028751.70243   5477210.12642  22085738.8454   22085732.7104
        54.0004         46.0004
  20197911.4114   -2181983.78144  -1691721.67642  20197912.5304   20197908.2304
        57.0004         51.0004
  20649646.8914  -16025471.76043 -12472126.97442  20649649.3514   20649643.8924
        56.0004         50.0004
  23151502.7224   -6229079.07243  -4838905.36042  23151503.7414   23151498.6954
        50.0004         42.0004
  22935629.4354   -9178938.03743  -7115311.57342  22935630.3354   22935628.1754
        50.0004         43.0004
  22660002.2224  -13108639.28743 -10149229.28642  22660003.3064   22660000.0744
        50.0004         44.0004
 05  6 27 17 17  0.0000000  0  9G22G21G 3G18G15G14G 9G 1G19
  20864125.4184   -1213398.98644   -941624.69742  20864126.5454   20864118.9794
        57.0004         50.0004
  22655444.6394    9591231.65143   7474107.19242  22655445.6604   22655439.7424
        49.0004         42.0004
  22134570.9184   -4592355.59743  -3573636.56342  22134572.3344   22134567.4034
        50.0004         43.0004
  22095965.1694    7082500.96943   5519092.65542  22095967.4414   22095960.7094
        54.0004         46.0004
  20203305.9444   -2153638.03744  -1669634.10042  20203307.1084   20203302.4694
        58.0004         51.0004
  20640978.7794  -16071027.87243 -12507625.22142  20640980.5664   20640974.7204
        56.0004         50.0004
  23154099.3554   -6215420.88043  -4828262.59942  23154103.0724   23154098.4604
        49.0004         42.0004
  22917334.4954   -9275077.59543  -7190225.44342  22917335.8124   22917333.6814
        48.0004         43.0004
  22652642.0364  -13147330.06343 -10179377.95142  22652642.5994   22652637.0604
        50.0004         44.0004
 05  6 27 17 17 30.0000000  0  9G22G21G 3G18G15G14G 9G 1G19
  20867277.8464   -1196835.49344   -928718.07742  20867278.6824   20867270.9524
        58.0004         50.0004
  22671587.9734    9676065.07043   7540211.07442  22671589.9424   22671584.9434
        50.0004         42.0004
  22139945.1274   -4564119.61843  -3551634.53242  22139945.6904   22139942.2334
        51.0004         43.0004
  22106211.3794    7136349.61143   5561052.61042  22106214.2924   22106208.0124
        53.0004         46.0004
  20208786.7224   -2124835.97344  -1647190.93742  20208787.9804   20208783.3594
        58.0004         51.0004
  20632404.3764  -16116084.29243 -12542734.10342  20632406.4404   20632400.8834
        56.0004         50.0004
  23156815.1354   -6201151.42543  -4817143.55642  23156816.9004   23156813.1724
        48.0004         41.0004
  22899088.3984   -9370957.44943  -7264936.94842  22899089.6294   22899089.2424
        49.0004         43.0004
  22645380.7324  -13185492.68243 -10209115.02542  22645380.8434   22645374.7374
        52.0004         45.0004
 05  6 27 17 18  0.0000000  0  9G22G21G 3G18G15G14G 9G 1G19
  20870462.6464   -1180099.66744   -915677.18742  20870463.3384   20870455.3414
        58.0004         50.0004
  22687787.0634    9761198.52243   7606548.78042  22687790.1634   22687783.0874
        50.0004         42.0004
  22145411.7404   -4535383.58443  -3529242.83642  22145414.8914   22145407.8924
        50.0004         43.0004
  22116478.6274    7190303.08143   5603094.25642  22116480.8944   22116475.2194
        53.0004         46.0004
  20214354.9634   -2095571.83544  -1624387.72542  20214356.3984   20214351.9774
        58.0004         51.0004
  20623926.7924  -16160634.65243 -12577448.64742  20623928.9504   20623923.0074
        56.0004         50.0004
  23159649.0244   -6186264.99743  -4805543.75742  23159651.2574   23159644.3544
        49.0004         41.0004
  22880894.7874   -9466569.98843  -7339440.16142  22880896.7244   22880893.8224
        49.0004         42.0004
  22638218.0234  -13223120.42443 -10238435.36242  22638219.9054   22638214.5854
        51.0004         45.0004
 05  6 27 17 18 30.0000000  0  9G22G21G 3G18G15G14G 9G 1G19
  20873678.1994   -1163203.21644   -902511.11842  20873678.8704   20873670.9354
        58.0004         50.0004
  22704043.3214    9846619.58243   7673110.59842  22704045.7494   22704037.9934
        51.0004         42.0004
  22150974.6644   -4506160.47743  -3506471.60542  22150976.6274   22150969.7864
        51.0004         43.0004
  22126764.3364    7244350.05843   5645208.77642  22126765.5224   22126760.0784
        54.0004         46.0004
  20220010.5544   -2065856.33144  -1601232.78542  20220011.6194   20220006.3814
        58.0004         51.0004
  20615542.7434  -16204689.51243 -12611777.08142  20615545.3214   20615539.3564
        55.0004         50.0004
  23162595.5794   -6170772.67443  -4793471.81642  23162597.6074   23162595.2454
        48.0004         41.0004
  22862749.3174   -9561924.62543  -7413742.44842  22862751.1654   22862746.2644
        51.0004         43.0004
  22631160.1454  -13260223.13743 -10267346.57742  22631161.3584   22631153.7374
        52.0004         46.0004
 05  6 27 17 19  0.0000000  0  9G22G21G 3G18G15G14G 9G 1G19
  20876927.0824   -1146130.99944   -889208.09642  20876927.9564   20876919.4974
        58.0004         50.0004
  22720355.7344    9932343.16843   7739908.15942  22720356.6384   22720350.9294
        50.0004         42.0004
  22156628.8464   -4476436.11743  -3483309.80842  22156631.4724   22156627.3724
        49.0004         43.0004
  22137068.9284    7298505.75643   5687408.00142  22137070.7724   22137064.8684
        53.0004         45.0004
  20225752.8214   -2035673.38544  -1577713.61242  20225754.3144   20225749.9124
        57.0004         51.0004
  20607256.8064  -16248232.73443 -12645706.84042  20607259.0634   20607253.3704
        55.0004         50.0004
  23165661.8794   -6154658.87343  -4780915.62342  23165664.9454   23165658.2044
        48.0004         41.0004
  22844656.0874   -9657003.87743  -7487830.09642  22844657.8954   22844654.0694
        50.0004         43.0004
  22624201.2174  -13296783.98643 -10295835.53542  22624204.0614   22624197.0564
        52.0004         46.0004
 05  6 27 17 19 30.0000000  0  9G22G21G 3G18G15G14G 9G 1G19
  20880206.1734   -1128892.86844   -875775.79042  20880207.4854   20880199.5644
        57.0004         50.0004
  22736723.4424   10018358.68343   7806933.18242  22736724.2324   22736720.6794
        49.0004         42.0004
  22162379.5784   -4446221.25243  -3459765.80842  22162381.3764   22162375.6304
        50.0004         43.0004
  22147394.6294    7352760.32843   5729684.27042  22147396.3614   22147390.1814
        54.0004         46.0004
  20231585.3194   -2005031.89244  -1553837.14642  20231586.1474   20231580.9014
        58.0004         51.0004
  20599066.4544  -16291272.77343 -12679244.51442  20599068.3414   20599062.7614
        55.0004         50.0004
  23168846.6324   -6137932.76643  -4767882.33242  23168848.6074   23168843.3394
        49.0004         42.0004
  22826614.8054   -9751815.02243  -7561708.85442  22826615.6254   22826614.1264
        51.0004         43.0004
  22617345.9724  -13332811.08043 -10323908.60242  22617346.8744   22617342.5584
        51.0004         45.0004
 05  6 27 17 20  0.0000000  0  9G22G21G 3G18G15G14G 9G 1G19
  20883518.5434   -1111489.89244   -862215.03442  20883519.5094   20883511.4964
        58.0004         50.0004
  22753148.3014   10104664.63543   7874184.51042  22753150.2104   22753145.8124
        49.0004         41.0004
  22168222.4984   -4415518.36343  -3435841.47642  22168224.1034   22168219.0714
        49.0004         42.0004
  22157736.4324    7407113.05643   5772037.02042  22157739.0104   22157733.7964
        53.0004         45.0004
  20237502.2244   -1973932.37044  -1529603.75942  20237503.5104   20237499.3864
        58.0004         51.0004
  20590972.4084  -16333810.15143 -12712390.50342  20590974.3264   20590968.6024
        56.0004         50.0004
  23172145.4584   -6120594.72243  -4754372.18642  23172147.5274   23172143.3274
        49.0004         43.0004
  22808623.6364   -9846356.88943  -7635377.77342  22808626.1864   22808622.8474
        51.0004         44.0004
  22610592.3774  -13368304.09843 -10351565.51542  22610594.2384   22610588.4594
        52.0004         46.0004
 05  6 27 17 20 30.0000000  0  9G22G21G 3G18G15G14G 9G 1G19
  20886861.2914   -1093923.37644   -848526.84142  20886862.3034   20886854.3874
        58.0004         50.0004
  22769627.6174   10191259.33343   7941660.82542  22769628.0374   22769623.3654
        49.0004         42.0004
  22174156.1414   -4384329.75243  -3411538.69042  22174158.4734   22174155.4834
        47.0004         42.0004
  22168098.1344    7461562.95043   5814465.49542  22168100.2304   22168093.8164
        53.0004         45.0004
  20243507.0954   -1942374.97244  -1505013.57642  20243508.6264   20243504.1404
        57.0004         51.0004
  20582973.9294  -16375844.32743 -12745144.38142  20582976.2354   20582969.8644
        56.0004         50.0004
  23175561.5314   -6102645.52943  -4740385.81042  23175563.5464   23175559.2224
        50.0004         41.0004
  22790684.0654   -9940628.24643  -7708835.90042  22790687.1474   22790683.2144
        51.0004         44.0004
  22603939.4244  -13403262.83243 -10378806.08542  22603941.3394   22603934.4454
        52.0004         46.0004
 05  6 27 17 21  0.0000000  0  9G22G21G 3G18G15G14G 9G 1G19
  20890236.8904   -1076187.34044   -834706.55642  20890237.2314   20890229.2464
        58.0004         50.0004
  22786160.9094   10278147.96243   8009366.18942  22786161.2914   22786156.9914
        49.0004         43.0004
  22180185.7794   -4352650.55543  -3386853.64542  22180188.2554   22180183.3124
        48.0004         42.0004
  22178478.9594    7516116.13543   5856974.45942  22178480.8494   22178476.1214
        53.0004         45.0004
  20249601.4004   -1910353.06044  -1480061.44342  20249602.7274   20249598.3614
        58.0004         51.0004
  20575071.8924  -16417368.60243 -12777500.93542  20575074.1854   20575067.9454
        56.0004         50.0004
  23179094.2394   -6084078.89543  -4725918.30342  23179096.3854   23179090.7004
        48.0004         41.0004
  22772797.6134  -10034620.93043  -7782076.89542  22772799.7174   22772797.1204
        50.0004         43.0004
  22597390.7174  -13437679.56043 -10405624.30842  22597392.6804   22597385.2804
        53.0004         46.0004
 05  6 27 17 21 30.0000000  0  9G22G21G 3G18G15G14G 9G 1G19
  20893642.7064   -1058287.51044   -820758.64542  20893643.9934   20893635.3424
        58.0004         50.0004
  22802749.6174   10365323.96643   8077295.46242  22802749.7414   22802747.2104
        49.0004         42.0004
  22186304.6734   -4320488.17243  -3361792.05542  22186307.8274   22186303.6284
        47.0004         41.0004
  22188879.4164    7570767.13943   5899559.64742  22188880.9464   22188874.9464
        53.0004         45.0004
  20255782.9694   -1877871.71644  -1454751.32842  20255783.9774   20255778.9154
        58.0004         51.0004
  20567265.8154  -16458387.91543 -12809464.02242  20567268.1084   20567262.1464
        56.0004         50.0004
  23182743.1104   -6064900.56743  -4710974.14642  23182744.3824   23182741.9864
        48.0004         41.0004
  22754962.4794  -10128338.56143  -7855103.56542  22754965.2034   22754961.7534
        50.0004         43.0004
  22590943.4444  -13471558.74043 -10432023.65442  22590945.3384   22590938.5214
        52.0004         45.0004
 05  6 27 17 22  0.0000000  0  9G22G21G 3G18G15G14G 9G 1G19
  20897080.2634   -1040222.31344   -806681.86642  20897081.2814   20897073.8474
        58.0004         51.0004
  22819394.6994   10452788.82743   8145449.84942  22819395.4974   22819389.2374
        50.0004         43.0004
  22192517.1674   -4287841.39743  -3336353.02042  22192519.4854   22192516.8614
        47.0004         41.0004
  22199296.9844    7625517.94643   5942222.59742  22199299.8334   22199294.1174
        53.0004         45.0004
  20262050.6254   -1844928.16544  -1429081.02442  20262052.2174   20262047.5444
        58.0004         51.0004
  20559556.2304  -16498899.25243 -12841031.27342  20559558.7384   20559553.1344
        56.0004         50.0004
  23186510.1364   -6045107.99843  -4695551.36142  23186512.8964   23186508.4254
        49.0004         41.0004
  22737185.0044  -10221776.64943  -7927912.40842  22737185.9064   22737182.8424
        52.0004         43.0004
  22584599.8804  -13504896.84943 -10458001.39242  22584600.6294   22584594.3064
        51.0004         45.0004
 05  6 27 17 22 30.0000000  0  9G22G21G 3G18G15G14G 9G 1G19
  20900548.5974   -1021995.33344   -792479.03642  20900550.0084   20900541.8644
        58.0004         50.0004
  22836093.0774   10540538.13443   8213825.83942  22836092.7734   22836089.9094
        50.0004         42.0004
  22198822.0674   -4254715.71543  -3310540.82342  22198821.7304   22198820.0734
        48.0004         41.0004
  22209734.5384    7680364.59643   5984960.22242  22209736.5624   22209731.1734
        53.0004         45.0004
  20268407.8484   -1811525.49944  -1403052.98142  20268408.9164   20268404.7344
        58.0004         51.0004
  20551944.2424  -16538905.47443 -12872204.92942  20551946.4624   20551940.4824
        56.0004         51.0004
  23190392.0834   -6024704.59443  -4679652.57642  23190393.6014   23190391.5204
        48.0004         42.0004
  22719455.0404  -10314936.97843  -8000504.81742  22719457.4974   22719454.7014
        51.0004         43.0004
  22578358.4654  -13537696.30343 -10483559.44842  22578360.1044   22578353.5374
        52.0004         46.0004
 05  6 27 17 23  0.0000000  0  9G22G21G 3G18G15G14G 9G 1G19
  20904048.8734   -1003602.89644   -778147.26842  20904049.5374   20904041.3974
        58.0004         50.0004
  22852845.4914   10628574.72243   8282425.69442  22852847.3024   22852841.4184
        50.0004         43.0004
  22205216.0274   -4221108.61943  -3284353.52542  22205217.4524   22205215.3404
        48.0004         40.0004
  22220191.4204    7735310.51943   6027775.19642  22220192.7014   22220186.9224
        54.0004         45.0004
  20274852.6424   -1777659.37544  -1376663.81142  20274853.3074   20274848.5414
        58.0004         51.0004
  20544427.7694  -16578402.00243 -12902981.43042  20544429.9794   20544424.0044
        56.0004         50.0004
  23194392.1544   -6003686.22443  -4663274.66342  23194393.6934   23194389.4064
        48.0004         42.0004
  22701779.8764  -10407813.41543  -8072875.97942  22701781.4834   22701780.2664
        50.0004         43.0004
  22572220.2454  -13569952.05143 -10508693.80742  22572220.1124   22572214.8534
        51.0004         46.0004
 05  6 27 17 23 30.0000000  0  9G22G21G 3G18G15G14G 9G 1G19
  20907580.0274    -985048.96844   -763689.66642  20907580.5504   20907572.1714
        58.0004         50.0004
  22869650.9314   10716894.10143   8351245.92442  22869653.0964   22869649.1764
        49.0004         42.0004
  22211700.7124   -4187025.10743  -3257794.97942  22211705.0364   22211699.8084
        45.0004         39.0004
  22230663.7914    7790353.33043   6070665.68442  22230666.9074   22230660.7124
        52.0004         45.0004
  20281384.1664   -1743332.96544  -1349915.96242  20281385.3324   20281380.3594
        58.0004         51.0004
  20537007.9554  -16617391.81843 -12933363.08242  20537010.3094   20537004.8104
        56.0004         50.0004
  23198508.3544   -5982056.74743  -4646420.53442  23198510.4444   23198505.6134
        48.0004         41.0004
  22684160.6114  -10500407.64443  -8145027.24042  22684162.3154   22684159.2524
        50.0004         43.0004
  22566184.5544  -13601666.81243 -10533406.60842  22566185.2684   22566179.8174
        52.0004         46.0004
 05  6 27 17 24  0.0000000  0  9G22G21G 3G18G15G14G 9G 1G19
  20911141.5814    -966329.40744   -749103.00042  20911142.6074   20911134.5934
        58.0004         50.0004
  22886512.2644   10805499.79343   8420289.25442  22886513.6644   22886509.9914
        49.0004         42.0004
  22218281.1874   -4152462.43643  -3230863.09642  22218280.7324   22218278.4894
        48.0004         39.0004
  22241159.0694    7845497.33743   6113635.01942  22241161.2654   22241153.9744
        53.0004         45.0004
  20288005.6194   -1708541.07144  -1322805.40342  20288006.1554   20288001.3344
        58.0004         51.0004
  20529686.9044  -16655869.78443 -12963345.89442  20529688.8094   20529682.7874
        56.0004         51.0004
  23202742.4704   -5959811.67943  -4629086.71442  23202743.1174   23202738.0854
        47.0004         41.0004
  22666595.9364  -10592712.99943  -8216953.40942  22666597.8644   22666594.3294
        51.0004         44.0004
  22560253.0684  -13632834.76443 -10557693.30142  22560254.0194   22560248.4134
        51.0004         45.0004
 05  6 27 17 24 30.0000000  0  9G22G21G 3G18G15G14G 9G 1G19
  20914734.4354    -947449.68744   -734391.53142  20914735.3474   20914727.4164
        57.0004         50.0004
  22903427.2964   10894385.76043   8489550.99142  22903428.5204   22903423.2334
        49.0004         42.0004
  22224949.1314   -4117427.37643  -3203563.09442  22224949.6754   22224945.6684
        48.0004         39.0004
  22251671.0954    7900736.33343   6156678.37542  22251672.1664   22251666.7104
        53.0004         45.0004
  20294712.9984   -1673288.78744  -1295336.10642  20294714.6294   20294710.0854
        58.0004         51.0004
  20522460.0784  -16693840.57543 -12992933.50842  20522462.9694   20522456.8344
        56.0004         51.0004
  23207089.4134   -5936956.11243  -4611277.22442  23207091.5124   23207088.5604
        46.0004         41.0004
  22649085.1394  -10684732.78543  -8288657.09242  22649085.9894   22649083.9874
        50.0004         44.0004
  22554424.1504  -13663459.89843 -10581557.05042  22554426.1434   22554421.2894
        50.0004         45.0004
 05  6 27 17 25  0.0000000  0  9G22G21G 3G18G15G14G 9G 1G19
  20918357.2664    -928409.93144   -719555.36242  20918358.1554   20918350.1894
        57.0004         50.0004
  22920395.4414   10983550.94843   8559030.27442  22920396.4964   22920391.9604
        50.0004         42.0004
  22231700.9364   -4081921.52243  -3175896.23142  22231705.4314   22231703.1894
        44.0004         38.0004
  22262198.6694    7956071.06043   6199796.34242  22262201.2944   22262197.0374
        52.0004         45.0004
  20301509.4034   -1637575.73744  -1267507.76742  20301510.9144   20301505.7244
        58.0004         51.0004
  20515331.8634  -16731303.44643 -13022125.32842  20515334.2084   20515327.8854
        56.0004         51.0004
  23211557.4944   -5913490.10943  -4592992.00542  23211558.6594   23211554.9714
        48.0004         40.0004
  22631629.2074  -10776465.00243  -8360136.67342  22631631.3634   22631628.6804
        51.0004         44.0004
  22548701.5724  -13693541.13043 -10604996.97742  22548702.6464   22548697.5154
        51.0004         46.0004
 05  6 27 17 25 30.0000000  0  9G22G21G 3G18G15G14G 9G 1G19
  20922011.4114    -909208.47744   -704593.19842  20922012.6284   20922004.7024
        58.0004         50.0004
  22937415.2454   11072996.14143   8628727.76042  22937416.2764   22937411.8624
        49.0004         42.0004
  22238552.4494   -4045945.00143  -3147862.65342  22238554.0744   22238546.8524
        45.0004         39.0004
  22272748.7514    8011502.92543   6242989.96942  22272751.0864   22272743.0264
        53.0004         45.0004
  20308393.4334   -1601399.81444  -1239318.74542  20308394.3144   20308389.8504
        58.0004         51.0004
  20508299.7904  -16768256.17143 -13050919.65642  20508302.0714   20508296.2064
        56.0004         51.0004
  23216137.8374   -5889412.22043  -4574229.99442  23216140.1114   23216136.2984
        48.0004         40.0004
  22614226.1064  -10867906.09743  -8431389.42642  22614229.6564   22614227.6354
        50.0004         44.0004
  22543081.7664  -13723075.77543 -10628010.96842  22543083.1704   22543076.8154
        52.0004         46.0004
 05  6 27 17 26  0.0000000  0  9G22G21G 3G18G15G14G 9G 1G19
  20925695.7964    -889845.93044   -689505.50142  20925696.7084   20925689.0294
        57.0004         50.0004
  22954489.6354   11162720.40243   8698642.67242  22954489.1784   22954487.1594
        48.0004         42.0004
  22245485.6474   -4009499.78943  -3119463.84642  22245486.6154   22245483.4194
        42.0004         37.0004
  22283314.6844    8067031.57543   6286259.03342  22283316.2884   22283310.8934
        52.0004         45.0004
  20315365.0264   -1564760.93444  -1210768.96842  20315366.2204   20315361.9624
        58.0004         51.0004
  20501365.4044  -16804698.32643 -13079316.12442  20501367.3194   20501361.1874
        56.0004         51.0004
  23220836.2754   -5864722.58843  -4554991.28742  23220839.5374   23220834.4164
        48.0004         41.0004
  22596884.4704  -10959054.10143  -8502413.79142  22596884.4964   22596882.3704
        52.0004         44.0004
  22537564.1834  -13752063.15043 -10650598.53342  22537565.3674   22537560.1154
        52.0004         46.0004
 05  6 27 17 26 30.0000000  0  9G22G21G 3G18G15G14G 9G 1G19
  20929411.3204    -870323.91744   -674293.54842  20929412.2064   20929403.5494
        58.0004         50.0004
  22971616.4044   11252721.83143   8768773.57242  22971617.4234   22971612.4294
        49.0004         42.0004
  22252506.1794   -3972588.40643  -3090701.70142  22252510.5054   22252506.0774
        39.0004         36.0004
  22293901.2284    8122656.33943   6329602.98442  22293902.8874   22293896.2734
        53.0004         45.0004
  20322426.0304   -1527659.88144  -1181859.07642  20322426.5984   20322422.0834
        58.0004         51.0004
  20494527.0704  -16840630.73543 -13107315.38542  20494529.5684   20494524.1014
        56.0004         51.0004
  23225650.5044   -5839422.60143  -4535277.01242  23225652.9374   23225649.0404
        48.0004         41.0004
  22579593.6154  -11049908.23843  -8573209.16042  22579596.6304   22579592.8774
        51.0004         44.0004
  22532152.6964  -13780503.22043 -10672759.62442  22532154.6784   22532148.9944
        52.0004         46.0004
 05  6 27 17 27  0.0000000  0  9G22G21G 3G18G15G14G 9G 1G19
  20933156.5544    -850641.87244   -658956.90042  20933157.0724   20933149.3004
        58.0004         50.0004
  22988796.6164   11342998.98943   8839119.31242  22988797.6264   22988793.8404
        49.0004         42.0004
  22259624.0224   -3935212.27543  -3061577.50442  22259624.5764   22259618.7484
        43.0004         37.0004
  22304503.0064    8178376.95443   6373021.62842  22304505.4574   22304499.9164
        53.0004         45.0004
  20329573.9064   -1490096.17444  -1152588.66742  20329575.1914   20329569.9914
        58.0004         51.0004
  20487787.0674  -16876052.44043 -13134916.69642  20487789.2204   20487783.0214
        56.0004         51.0004
  23230579.6644   -5813512.29043  -4515087.15842  23230580.9834   23230580.4974
        47.0004         41.0004
  22562360.9694  -11140466.38443  -8643773.88342  22562363.3644   22562359.9444
        51.0004         44.0004
  22526845.8814  -13808394.69943 -10694493.26742  22526846.9944   22526841.3424
        52.0004         46.0004
 05  6 27 17 27 30.0000000  0  9G22G21G 3G18G15G14G 9G 1G19
  20936932.0094    -830801.09544   -643496.56142  20936932.8604   20936924.7684
        58.0004         50.0004
  23006028.3744   11433550.71443   8909679.02442  23006031.5674   23006024.2574
        49.0004         41.0004
  22266818.5874   -3897373.64443  -3032092.87442  22266822.3914   22266821.6254
        43.0004         39.0004
  22315124.9634    8234193.48743   6416515.03542  22315127.1494   22315121.7904
        53.0004         45.0004
  20336809.4384   -1452069.63344  -1122957.60442  20336810.6834   20336806.9464
        58.0004         51.0004
  20481143.9604  -16910963.41943 -13162120.04542  20481145.7804   20481139.5294
        56.0004         51.0004
  23235624.2234   -5786992.07943  -4494422.08742  23235627.9014   23235627.7494
        45.0004         41.0004
  22545185.3704  -11230726.80243  -8714106.64242  22545187.8104   22545182.9364
        51.0004         44.0004
  22521642.5934  -13835737.27943 -10715799.17442  22521643.9294   22521637.3854
        52.0004         46.0004
 05  6 27 17 28  0.0000000  0  9G22G21G 3G18G15G14G 9G 1G19
  20940737.3344    -810802.21844   -627913.02542  20940738.2034   20940731.1594
        57.0004         50.0004
  23023311.1594   11524375.54043   8980451.51142  23023314.6004   23023308.5364
        50.0004         42.0004
  22274109.6844   -3859074.85843  -3002249.71742  22274111.4914   22274108.3414
        45.0004         40.0004
  22325764.7884    8290104.97043   6460082.40242  22325766.4564   22325760.1304
        52.0004         45.0004
  20344134.2004   -1413580.60744  -1092966.17842  20344135.3394   20344130.2604
        57.0004         51.0004
  20474597.5324  -16945363.96043 -13188925.64342  20474599.4644   20474593.5354
        56.0004         51.0004
  23240786.7224   -5759862.66843  -4473282.32042  23240790.0414   23240789.4544
        44.0004         40.0004
  22528066.4274  -11320688.30243  -8784206.44842  22528067.9674   22528064.4064
        51.0004         44.0004
  22516543.5124  -13862530.42143 -10736676.95742  22516545.6584   22516538.7184
        52.0004         46.0004
 05  6 27 17 28 30.0000000  0  9G22G21G 3G18G15G14G 9G 1G19
  20944574.7204    -790641.66044   -612203.50642  20944575.2804   20944567.6774
        58.0004         50.0004
  23040645.3824   11615476.04043   9051438.80042  23040647.0354   23040643.7094
        48.0004         42.0004
  22281481.5424   -3820313.80743  -2972046.33142  22281485.5824   22281484.1944
        43.0004         39.0004
  22336423.5854    8346115.12243   6503726.64942  22336425.1454   22336418.9184
        52.0004         45.0004
  20351547.1974   -1374625.23544  -1062611.35442  20351548.2994   20351543.7204
        58.0004         51.0004
  20468149.4094  -16979249.72543 -13215330.11742  20468151.1074   20468145.0614
        56.0004         51.0004
  23246070.3444   -5732120.88743  -4451665.37442  23246070.7394   23246066.2734
        47.0004         41.0004
  22511005.0654  -11410345.35243  -8854069.01142  22511007.9914   22511003.2574
        51.0004         44.0004
  22511550.6734  -13888769.70443 -10757123.13442  22511552.5314   22511546.2174
        53.0004         46.0004
 05  6 27 17 29  0.0000000  0  9G22G21G 3G18G15G14G 9G 1G19
  20948439.2944    -770327.90844   -596374.61842  20948440.1344   20948432.5294
        57.0004         50.0004
  23058033.7654   11706842.92243   9122633.68342  23058033.7634   23058031.9154
        50.0004         41.0004
  22288945.7774   -3781100.75543  -2941490.72242  22288946.9924   22288944.1864
        43.0004         39.0004
  22347098.0814    8402215.25143   6547441.02042  22347100.4494   22347094.0424
        52.0004         44.0004
  20359047.0564   -1335211.83244  -1031899.62142  20359048.0924   20359043.4874
        58.0004         50.0004
  20461797.5294  -17012628.95943 -13241339.89642  20461799.6364   20461794.0244
        56.0004         51.0004
  23251462.9134   -5703775.36843  -4429577.98742  23251463.5224   23251461.2794
        47.0004         41.0004
  22493999.9894  -11499704.46543  -8923699.42442  22494002.6684   22493999.6384
        52.0004         45.0004
  22506661.5314  -13914462.50543 -10777143.51942  22506663.1234   22506657.4134
        52.0004         46.0004
 05  6 27 17 29 30.0000000  0  9G22G21G 3G18G15G14G 9G 1G19
  20952335.5954    -749856.04344   -580422.53242  20952336.1964   20952327.8904
        57.0004         50.0004
  23075470.3284   11798479.94343   9194039.06242  23075473.1014   23075470.1764
        49.0004         41.0004
  22296498.4634   -3741432.20743  -2910580.22042  22296499.8194   22296494.0144
        46.0004         40.0004
  22357792.4264    8458411.05443   6591229.94542  22357793.3314   22357789.4554
        52.0004         44.0004
  20366635.8654   -1295334.69044  -1000826.53642  20366636.9234   20366632.5154
        58.0004         51.0004
  20455543.0404  -17045495.86443 -13266950.44942  20455545.1304   20455539.4694
        56.0004         51.0004
  23256973.2034   -5674821.23243  -4407016.31442  23256975.8084   23256971.2834
        47.0004         40.0004
  22477054.3274  -11588758.42943  -8993092.06942  22477055.4364   22477051.9494
        51.0004         44.0004
  22501877.6634  -13939602.91743 -10796733.44442  22501879.2184   22501872.1754
        52.0004         46.0004
 05  6 27 17 30  0.0000000  0  9G22G21G 3G18G15G14G 9G 1G19
  20956260.5824    -729226.07244   -564347.24742  20956261.7134   20956254.3554
        57.0004         50.0004
  23092961.2024   11890386.56843   9265654.53342  23092961.0714   23092953.7744
        49.0004         40.0004
  22304131.8764   -3701309.95743  -2879316.15142  22304132.9614   22304129.4194
        47.0004         40.0004
  22368503.4094    8514702.81043   6635093.61642  22368506.0854   22368499.7274
        51.0004         44.0004
  20374312.8964   -1254993.14344   -969391.57642  20374313.9534   20374308.8444
        58.0004         51.0004
  20449385.4884  -17077849.71143 -13292161.22342  20449387.9534   20449382.0024
        56.0004         51.0004
  23262597.3384   -5645258.78143  -4383980.59542  23262599.5524   23262596.0114
        45.0004         39.0004
  22460165.6164  -11677505.14343  -9062245.29342  22460168.6954   22460164.3864
        52.0004         45.0004
  22497198.7754  -13964189.77743 -10815892.05042  22497200.4244   22497194.5214
        52.0004         46.0004
 05  6 27 17 30 30.0000000  0  9G22G21G 3G18G15G14G 9G 1G19
  20960216.6264    -708440.27544   -548150.52642  20960217.5584   20960209.5734
        57.0004         50.0004
  23110499.5244   11982559.86443   9337477.79842  23110504.3524   23110497.2024
        49.0004         40.0004
  22311851.1494   -3660737.64843  -2847701.38842  22311852.1004   22311848.9114
        44.0004         39.0004
  22379234.1434    8571088.72343   6679030.67942  22379235.7834   22379230.9964
        52.0004         44.0004
  20382076.8294   -1214189.16744   -937596.28342  20382078.0024   20382073.3824
        58.0004         50.0004
  20443326.4564  -17109692.01043 -13316973.39042  20443328.8154   20443323.2104
        56.0004         51.0004
  23268339.3404   -5615089.91543  -4360472.39942  23268341.7254   23268337.8554
        47.0004         40.0004
  22443337.6974  -11765944.49743  -9131159.03642  22443339.1444   22443335.7684
        52.0004         45.0004
  22492624.7304  -13988223.99543 -10834620.02542  22492627.1184   22492618.9304
        53.0004         46.0004
 05  6 27 17 31  0.0000000  0  9G22G21G 3G18G15G14G 9G 1G19
  20964201.8434    -687498.09744   -531831.96542  20964202.5514   20964195.0614
        57.0004         50.0004
  23128090.6864   12074998.88343   9409508.11442  23128092.6084   23128088.8744
        49.0004         41.0004
  22319659.6074   -3619716.91543  -2815737.20742  22319660.6094   22319657.3264
        46.0004         40.0004
  22389982.9444    8627568.81343   6723041.10942  22389983.7374   22389979.0414
        52.0004         44.0004
  20389930.1934   -1172922.44444   -905440.41542  20389931.3434   20389926.4444
        58.0004         51.0004
  20437364.7564  -17141022.32743 -13341386.60942  20437367.0284   20437361.1954
        56.0004         51.0004
  23274196.3464   -5584314.80143  -4336491.83642  23274197.1454   23274194.3394
        46.0004         40.0004
  22426565.6314  -11854074.50443  -9199831.71742  22426567.7204   22426565.2994
        51.0004         44.0004
  22488155.9664  -14011704.75843 -10852916.70442  22488157.6844   22488152.2734
        52.0004         46.0004
 05  6 27 17 31 30.0000000  0  9G22G21G 3G18G15G14G 9G 1G19
  20968216.0614    -666401.85444   -515393.33642  20968216.7294   20968209.6584
        57.0004         50.0004
  23145732.4124   12167700.68543   9481743.16942  23145732.7694   23145728.5514
        49.0004         41.0004
  22327550.2404   -3578251.52543  -2783426.53842  22327552.0004   22327546.1984
        48.0004         40.0004
  22400747.9164    8684140.96343   6767123.27542  22400750.1804   22400743.2874
        53.0004         44.0004
  20397870.3124   -1131194.65644   -872925.27542  20397871.7954   20397867.1254
        58.0004         51.0004
  20431500.5454  -17171842.34343 -13365402.18842  20431502.4574   20431496.3054
        56.0004         51.0004
  23280166.6264   -5552935.97543  -4312040.82742  23280168.4024   23280164.9754
        46.0004         41.0004
  22409854.2664  -11941895.22743  -9268263.39042  22409856.7044   22409852.4364
        53.0004         45.0004
  22483793.9234  -14034633.07143 -10870782.92742  22483794.2244   22483788.9764
        51.0004         45.0004
 05  6 27 17 32  0.0000000  0  9G22G21G 3G18G15G14G 9G 1G19
  20972260.4114    -645149.50544   -498833.08142  20972260.8744   20972253.6014
        57.0004         50.0004
  23163422.7654   12260666.60243   9554184.03442  23163423.1744   23163418.9924
        49.0004         41.0004
  22335521.5514   -3536341.01743  -2750769.00142  22335525.0014   22335521.0594
        45.0004         40.0004
  22411530.8174    8740808.06143   6811279.42142  22411533.2614   22411527.4204
        52.0004         44.0004
  20405899.9764   -1089003.19644   -840048.82342  20405901.3044   20405896.1904
        58.0004         51.0004
  20425731.7984  -17202149.49843 -13389018.13742  20425734.3884   20425728.7314
        55.0004         51.0004
  23286253.3744   -5520951.66043  -4287118.04342  23286256.2914   23286252.2434
        47.0004         41.0004
  22393202.3814  -12029402.56043  -9336450.88542  22393204.0964   22393200.3374
        52.0004         44.0004
  22479537.1894  -14057006.16943 -10888216.55142  22479537.5114   22479531.4654
        51.0004         45.0004
 05  6 27 17 32 30.0000000  0  9G22G21G 3G18G15G14G 9G 1G19
  20976333.8904    -623740.49744   -482150.74442  20976334.8834   20976327.3094
        57.0004         50.0004
  23181163.2804   12353896.12843   9626830.33042  23181164.5684   23181161.6044
        48.0004         41.0004
  22343583.2844   -3493986.69243  -2717765.68842  22343585.5244   22343582.3394
        46.0004         40.0004
  22422331.4304    8797570.28543   6855509.70442  22422334.0524   22422328.4804
        51.0004         44.0004
  20414016.7634   -1046347.45144   -806810.59042  20414017.7744   20414013.0894
        58.0004         51.0004
  20420063.4294  -17231942.62143 -13412233.54142  20420065.3624   20420059.4744
        56.0004         51.0004
  23292454.8274   -5488361.90343  -4261723.47142  23292457.2334   23292454.8034
        47.0004         41.0004
  22376609.7974  -12116594.23543  -9404392.41142  22376612.2084   22376609.0824
        52.0004         44.0004
  22475385.5544  -14078822.53543 -10905216.33042  22475386.9324   22475380.3664
        53.0004         46.0004
 05  6 27 17 33  0.0000000  0  9G22G21G 3G18G15G14G 9G 1G19
  20980437.8094    -602178.73844   -465349.38842  20980438.6634   20980430.4264
        57.0004         50.0004
  23198954.7434   12447384.63243   9699678.42742  23198956.1604   23198952.9484
        48.0004         41.0004
  22351729.8074   -3451193.76243  -2684420.56642  22351730.6244   22351725.5404
        48.0004         40.0004
  22433151.8074    8854424.43943   6899811.63742  22433153.2094   22433148.1704
        52.0004         44.0004
  20422221.1394   -1003230.57044   -773213.03042  20422222.4404   20422218.2044
        58.0004         51.0004
  20414490.7924  -17261224.90443 -13435050.89142  20414493.1364   20414487.2574
        56.0004         51.0004
  23298771.5184   -5455170.48643  -4235860.03742  23298773.2544   23298769.4404
        48.0004         40.0004
  22360078.1614  -12203471.70343  -9472089.09142  22360079.8724   22360076.2154
        52.0004         45.0004
  22471338.4074  -14100084.78943 -10921784.33242  22471339.5224   22471333.9234
        52.0004         46.0004
 05  6 27 17 33 30.0000000  0  9G22G21G 3G18G15G14G 9G 1G19
  20984569.1124    -580464.75944   -448429.40642  20984570.0964   20984562.9344
        57.0004         50.0004
  23216794.0924   12541130.38343   9772726.97842  23216794.2624   23216789.7084
        48.0004         41.0004
  22359950.6344   -3407964.73943  -2650735.67642  22359953.3354   22359953.1734
        45.0004         40.0004
  22443988.9094    8911370.02143   6944184.80442  22443991.2824   22443984.9694
        52.0004         44.0004
  20430513.8074    -959652.93744   -739256.44642  20430515.4184   20430510.1704
        58.0004         51.0004
  20409016.0104  -17289996.91743 -13457470.62342  20409017.6394   20409011.4534
        56.0004         50.0004
  23305200.7014   -5421378.32543  -4209528.50842  23305203.5274   23305200.7164
        46.0004         40.0004
  22343606.0774  -12290033.78743  -9539540.01642  22343607.7724   22343604.8824
        52.0004         45.0004
  22467399.6874  -14120792.96043 -10937920.56042  22467400.1324   22467393.8764
        53.0004         46.0004
 05  6 27 17 34  0.0000000  0  9G22G21G 3G18G15G14G 9G 1G19
  20988731.1594    -558596.81844   -431389.46642  20988731.9674   20988723.7654
        57.0004         50.0004
  23234681.5434   12635134.08843   9845976.51442  23234683.5444   23234679.0294
        46.0004         41.0004
  22368263.2254   -3364299.81043  -2616711.13342  22368264.9574   22368261.0264
        46.0004         40.0004
  22454842.7474    8968408.93443   6988630.68342  22454844.4054   22454836.8274
        52.0004         44.0004
  20438893.8014    -915613.06144   -704939.67942  20438895.2444   20438890.3934
        58.0004         50.0004
  20403637.8934  -17318256.64143 -13479491.18442  20403640.4074   20403634.0454
        56.0004         51.0004
  23311746.6554   -5386984.58943  -4182728.22442  23311748.7654   23311744.0544
        47.0004         40.0004
  22327194.4544  -12376276.93543  -9606742.40542  22327196.2944   22327192.5834
        52.0004         45.0004
  22463563.0064  -14140944.86143 -10953623.33442  22463564.9664   22463558.9504
        52.0004         46.0004
 05  6 27 17 34 30.0000000  0  9G22G21G 3G18G15G14G 9G 1G19
  20992922.1404    -536572.67544   -414227.80842  20992922.9164   20992915.1864
        57.0004         50.0004
  23252620.8724   12729397.15643   9919428.09442  23252620.8804   23252618.0564
        47.0004         40.0004
  22376653.7024   -3320198.37943  -2582346.41342  22376655.4504   22376653.7124
        44.0004         39.0004
  22465713.4164    9025543.74543   7033151.30142  22465715.6704   22465708.7354
        52.0004         44.0004
  20447363.7544    -871108.07244   -670260.47642  20447364.3954   20447359.3174
        58.0004         50.0004
  20398358.3534  -17346001.40643 -13501110.45842  20398360.3074   20398354.5844
        55.0004         50.0004
  23318406.8404   -5351987.04843  -4155457.44142  23318408.8104   23318404.7204
        47.0004         40.0004
  22310844.0584  -12462196.73443  -9673692.85142  22310845.0364   22310842.1634
        52.0004         45.0004
  22459835.2554  -14160536.92243 -10968889.91342  22459836.3524   22459830.3294
        52.0004         45.0004
 05  6 27 17 35  0.0000000  0  9G22G21G 3G18G15G14G 9G 1G19
  20997141.5104    -514400.15244   -396950.52342  20997142.0724   20997134.4894
        58.0004         50.0004
  23270605.9484   12823910.80243   9993074.96642  23270606.5444   23270601.5154
        46.0004         40.0004
  22385131.4294   -3275669.84943  -2547648.89942  22385130.9034   22385128.1574
        46.0004         40.0004
  22476603.0434    9082766.65843   7077740.55342  22476606.1104   22476600.7724
        52.0004         44.0004
  20455919.5244    -826145.61144   -635224.80642  20455920.5134   20455915.5574
        58.0004         50.0004
  20393175.1264  -17373238.35443 -13522334.04542  20393177.6624   20393171.3414
        55.0004         50.0004
  23325177.8414   -5316394.06843  -4127722.69342  23325178.3504   23325178.0164
        46.0004         40.0004
  22294554.7174  -12547799.02343  -9740395.88542  22294556.4794   22294553.0124
        53.0004         46.0004
  22456211.5444  -14179576.29843 -10983725.78742  22456213.3874   22456207.0824
        51.0004         45.0004
 05  6 27 17 35 30.0000000  0  9G22G21G 3G18G15G14G 9G 1G19
  21001388.8454    -492074.29144   -379553.75042  21001390.3074   21001382.5524
        57.0004         50.0004
  23288639.0794   12918678.92643  10066920.15042  23288640.9084   23288636.6344
        47.0004         40.0004
  22393679.4504   -3230711.46443  -2512616.43942  22393683.1394   22393682.8064
        43.0004         39.0004
  22487510.3974    9140082.97843   7122402.60842  22487510.5594   22487506.4104
        52.0004         44.0004
  20464563.8954    -780720.84544   -599828.89942  20464564.6634   20464560.0384
        58.0004         51.0004
  20388089.7334  -17399962.61643 -13543158.13642  20388092.1994   20388085.9414
        55.0004         51.0004
  23332067.3934   -5280201.28043  -4099520.57042  23332068.6834   23332065.6164
        47.0004         41.0004
  22278326.9894  -12633077.08143  -9806846.27042  22278328.0044   22278324.9924
        52.0004         46.0004
  22452694.9624  -14198057.64543 -10998126.84542  22452695.7264   22452690.4914
        51.0004         46.0004
 05  6 27 17 36  0.0000000  0  9G22G21G 3G18G15G14G 9G 1G19
  21005669.0734    -469588.52744   -362032.39542  21005669.5954   21005662.3914
        58.0004         50.0004
  23306724.1204   13013706.68343  10140967.65242  23306724.1714   23306717.9994
        48.0004         40.0004
  22402323.0364   -3185318.58743  -2477245.45642  22402323.4214   22402319.8334
        46.0004         40.0004
  22498436.4094    9197499.33443   7167142.60942  22498437.6364   22498431.8364
        52.0004         43.0004
  20473297.0614    -734827.07944   -564067.54342  20473298.7544   20473293.2534
        58.0004         51.0004
  20383103.3274  -17426167.34643 -13563577.39342  20383105.7044   20383099.6344
        56.0004         51.0004
  23339070.1834   -5243403.02743  -4070846.63342  23339070.3024   23339067.4064
        47.0004         41.0004
  22262161.6954  -12718022.37943  -9873037.34842  22262163.4674   22262160.6784
        52.0004         46.0004
  22449285.7674  -14215973.84443 -11012087.53142  22449286.8224   22449281.1394
        51.0004         46.0004
 05  6 27 17 36 30.0000000  0  9G22G21G 3G18G15G14G 9G 1G19
  21009974.5784    -446959.90644   -344399.71042  21009975.3204   21009968.4164
        57.0004         50.0004
  23324852.0974   13108976.25343  10215203.60842  23324853.4574   23324848.6354
        48.0004         40.0004
  22411040.2424   -3139510.18843  -2441550.63142  22411041.2944   22411036.9294
        48.0004         42.0004
  22509379.5144    9254998.85343   7211947.39142  22509380.9664   22509375.2594
        53.0004         44.0004
  20482116.1914    -688480.99444   -527953.72142  20482117.4974   20482112.3144
        58.0004         50.0004
  20378212.4614  -17451869.19143 -13583604.79142  20378214.8494   20378208.4654
        56.0004         51.0004
  23346183.4764   -5206016.65043  -4041714.41742  23346185.9994   23346182.1794
        47.0004         41.0004
  22246058.3374  -12802650.09543  -9938980.97242  22246059.4924   22246056.3364
        53.0004         45.0004
  22445979.5184  -14233341.01043 -11025620.41042  22445982.2124   22445976.5074
        50.0004         45.0004
 05  6 27 17 37  0.0000000  0  9G22G21G 3G18G15G14G 9G 1G19
  21014310.3044    -424175.78244   -326645.85442  21014311.3314   21014303.6914
        57.0004         50.0004
  23343028.4784   13204499.18143  10289636.94942  23343030.2394   23343023.6444
        47.0004         40.0004
  22419836.5334   -3093275.37943  -2405523.52742  22419837.9424   22419835.1364
        47.0004         41.0004
  22520337.2734    9312594.72143   7256827.27242  22520339.9404   22520334.9054
        51.0004         44.0004
  20491024.3674    -641669.90144   -491477.54742  20491025.5454   20491020.7764
        58.0004         50.0004
  20373419.2544  -17477055.35943 -13603230.37942  20373422.0644   20373415.4864
        55.0004         50.0004
  23353414.9574   -5168029.97143  -4012114.45142  23353415.8744   23353410.0794
        48.0004         41.0004
  22230016.2604  -12886945.72243 -10004665.82242  22230018.5164   22230015.9904
        52.0004         45.0004
  22442784.3354  -14250145.76743 -11038715.05642  22442785.2284   22442779.5844
        52.0004         46.0004
 05  6 27 17 37 30.0000000  0  9G22G21G 3G18G15G14G 9G 1G19
  21018674.9274    -401239.49244   -308773.42542  21018676.0634   21018668.1464
        57.0004         50.0004
  23361255.0734   13300271.15143  10364264.34842  23361256.2014   23361250.3264
        46.0004         39.0004
  22428716.1834   -3046619.21343  -2369168.11442  22428717.2484   22428714.6234
        48.0004         42.0004
  22531316.1334    9370283.76843   7301779.76842  22531318.2114   22531312.9044
        52.0004         44.0004
  20500020.1024    -594396.96544   -454641.52142  20500021.3304   20500016.4254
        57.0004         50.0004
  20368724.3974  -17501729.20143 -13622456.73942  20368726.9544   20368720.4744
        55.0004         51.0004
  23360753.4034   -5129447.15443  -3982049.90942  23360756.1844   23360753.2754
        47.0004         41.0004
  22214039.2464  -12970910.87143 -10070093.18342  22214040.7534   22214037.7584
        53.0004         45.0004
  22439690.7284  -14266391.14343 -11051373.79942  22439693.1344   22439687.3194
        52.0004         46.0004
 05  6 27 17 38  0.0000000  0  9G22G21G 3G18G15G14G 9G 1G19
  21023067.9544    -378153.33744   -290784.22142  21023068.7464   21023061.8514
        57.0004         50.0004
  23379525.2174   13396288.63343  10439083.01442  23379527.1224   23379522.8824
        48.0004         40.0004
  22437673.6134   -2999546.29143  -2332487.97242  22437674.5014   22437672.2604
        47.0004         41.0004
  22542311.4784    9428063.62243   7346803.00542  22542313.9174   22542307.6954
        52.0004         44.0004
  20509103.2684    -546664.56244   -417447.45942  20509104.6094   20509099.0824
        57.0004         50.0004
  20364126.2314  -17525892.74143 -13641285.46442  20364128.2714   20364122.6214
        55.0004         51.0004
  23368211.0044   -5090271.30943  -3951523.34142  23368213.8454   23368207.3714
        48.0004         41.0004
  22198123.2294  -13054546.13843 -10135263.46542  22198125.0104   22198122.5034
        52.0004         45.0004
  22436706.4584  -14282079.02943 -11063598.13442  22436708.0204   22436701.5254
        52.0004         46.0004
 05  6 27 17 38 30.0000000  0  9G22G21G 3G18G15G14G 9G 1G19
  21027489.1784    -354920.41544   -272680.64842  21027489.6354   21027482.2874
        57.0004         50.0004
  23397843.4354   13492547.56143  10514089.85642  23397844.8474   23397839.4604
        47.0004         40.0004
  22446708.4934   -2952061.51843  -2295486.85542  22446711.3414   22446708.4454
        46.0004         41.0004
  22553322.4784    9485931.54343   7391894.86842  22553324.4024   22553319.5234
        52.0004         44.0004
  20518272.9714    -498475.60044   -379897.63642  20518274.0424   20518269.7214
        57.0004         50.0004
  20359624.2124  -17549549.00143 -13659718.89042  20359626.3304   20359620.4414
        55.0004         50.0004
  23375776.0954   -5050506.10443  -3920537.49242  23375778.2264   23375774.1544
        47.0004         41.0004
  22182271.4374  -13137852.71543 -10200177.62142  22182273.2564   22182268.5334
        54.0004         46.0004
  22433826.9764  -14297211.65243 -11075389.77742  22433828.4014   22433822.2864
        53.0004         46.0004
 05  6 27 17 39  0.0000000  0  9G22G21G 3G18G15G14G 9G 1G19
  21031939.8884    -331532.07444   -254455.97242  21031940.9134   21031932.8294
        57.0004         50.0004
  23416209.3514   13589055.68643  10589290.88442  23416211.0084   23416203.2064
        47.0004         39.0004
  22455826.8904   -2904157.87543  -2258159.41342  22455827.5674   22455823.7184
        46.0004         41.0004
  22564354.2324    9543896.52843   7437062.35442  22564355.5214   22564349.4364
        51.0004         44.0004
  20527532.2154    -449821.15644   -341985.09642  20527532.9754   20527528.6144
        57.0004         50.0004
  20355221.7354  -17572688.75043 -13677749.86742  20355223.6394   20355216.9944
        55.0004         50.0004
  23383456.7414   -5010143.52643  -3889086.15842  23383459.9104   23383455.6304
        46.0004         41.0004
  22166482.1914  -13220819.89043 -10264827.31642  22166484.3924   22166480.8384
        53.0004         46.0004
  22431055.0434  -14311779.64843 -11086741.48342  22431055.9104   22431051.4614
        53.0004         47.0004
 05  6 27 17 39 30.0000000  0  9G22G21G 3G18G15G14G 9G 1G19
  21036418.7444    -307996.46444   -236116.54142  21036419.3584   21036411.6294
        57.0004         50.0004
  23434618.4804   13685803.38643  10664678.59042  23434618.9014   23434616.2284
        47.0004         39.0004
  22465019.3554   -2855846.14943  -2220513.93642  22465022.9844   22465016.2784
        46.0004         40.0004
  22575401.4254    9601950.38343   7482299.09942  22575402.9684   22575398.0404
        52.0004         44.0004
  20536878.0454    -400709.87844   -303716.58842  20536878.7934   20536874.2014
        58.0004         50.0004
  20350913.9624  -17595320.64343 -13695385.08442  20350916.4684   20350910.6534
        55.0004         51.0004
  23391251.8284   -4969192.72543  -3857176.46242  23391253.3264   23391247.6924
        48.0004         41.0004
  22150757.4134  -13303454.46643 -10329217.85242  22150759.0474   22150756.2444
        52.0004         46.0004
  22428388.5324  -14325791.28743 -11097659.66042  22428389.7574   22428384.7104
        53.0004         47.0004
 05  6 27 17 40  0.0000000  0  9G22G21G 3G18G15G14G 9G 1G19
  21040925.2514    -284312.79844   -217661.73242  21040925.8344   21040918.3914
        57.0004         50.0004
  23453072.8024   13782790.30743  10740252.70642  23453074.5584   23453073.2624
        45.0004         39.0004
  22474288.8454   -2807127.47743  -2182551.38042  22474291.2054   22474288.3344
        45.0004         40.0004
  22586465.7714    9660094.30143   7527606.00342  22586467.2014   22586463.3654
        51.0004         44.0004
  20546309.3684    -351140.93444   -265091.45442  20546310.6984   20546306.6184
        57.0004         50.0004
  20346704.7084  -17617443.30843 -13712623.53142  20346706.9224   20346700.3394
        55.0004         51.0004
  23399154.1144   -4927653.56343  -3824808.26942  23399155.7294   23399150.5974
        47.0004         40.0004
  22135097.3494  -13385753.78443 -10393347.14642  22135099.3694   22135095.3804
        53.0004         46.0004
  22425828.8454  -14339245.13343 -11108143.19342  22425829.7714   22425823.2544
        53.0004         46.0004
 05  6 27 17 40 30.0000000  0  9G22G21G 3G18G15G14G 9G 1G19
  21045461.4444    -260476.11844   -199087.71042  21045462.1474   21045454.0994
        57.0004         50.0004
  23471578.4364   13880020.20743  10816016.14242  23471577.1044   23471575.8314
        45.0004         38.0004
  22483640.4804   -2757998.96343  -2144269.44042  22483642.6494   22483635.8304
        47.0004         41.0004
  22597547.9524    9718333.30543   7572987.01642  22597548.9964   22597544.6934
        51.0004         43.0004
  20555830.4934    -301109.52744   -226105.96242  20555831.8724   20555827.2054
        57.0004         50.0004
  20342592.5604  -17639052.16743 -13729461.60042  20342594.7124   20342588.4124
        55.0004         51.0004
  23407172.7484   -4885522.03243  -3791978.50842  23407174.3974   23407172.1244
        48.0004         41.0004
  22119500.5134  -13467711.34643 -10457210.11842  22119501.9244   22119498.6784
        53.0004         46.0004
  22423374.3654  -14352135.75343 -11118187.82542  22423376.1594   22423370.6924
        52.0004         46.0004
 05  6 27 17 41  0.0000000  0  9G22G21G 3G18G15G14G 9G 1G19
  21050024.5514    -236494.22544   -180400.52942  21050025.8134   21050018.2084
        57.0004         50.0004
  23490126.3404   13977484.13543  10891961.94842  23490125.7054   23490121.4944
        47.0004         39.0004
  22493061.6794   -2708470.45743  -2105675.79342  22493064.2674   22493061.9674
        46.0004         41.0004
  22608647.3264    9776659.48443   7618435.97442  22608648.7004   22608642.7104
        51.0004         44.0004
  20565438.0904    -250623.66244   -186766.34242  20565438.7374   20565433.9094
        57.0004         50.0004
  20338577.0344  -17660155.20443 -13745905.51842  20338578.8734   20338573.1014
        56.0004         51.0004
  23415302.3284   -4842806.97143  -3758694.04142  23415302.1054   23415299.4534
        49.0004         41.0004
  22103969.2164  -13549333.22043 -10520811.53142  22103970.8094   22103966.2324
        53.0004         46.0004
  22421028.4904  -14364470.77043 -11127799.54142  22421030.4714   22421022.6564
        53.0004         46.0004
 05  6 27 17 41 30.0000000  0  9G22G21G 3G18G15G14G 9G 1G19
  21054615.4284    -212369.81444   -161602.28642  21054617.1904   21054608.6934
        57.0004         50.0004
  23508712.6784   14075178.29443  10968087.15042  23508713.7524   23508712.3464
        45.0004         39.0004
  22502565.5514   -2658546.29543  -2066773.89042  22502566.0174   22502562.3934
        47.0004         41.0004
  22619762.9774    9835070.82243   7663951.24842  22619764.8814   22619759.5994
        52.0004         44.0004
  20575131.1744    -199685.53944   -147074.31642  20575131.9064   20575127.5054
        57.0004         50.0004
  20334657.1924  -17680754.61243 -13761956.99142  20334659.1744   20334653.4874
        55.0004         51.0004
  23423540.0684   -4799511.56143  -3724957.37642  23423541.2964   23423537.3274
        48.0004         41.0004
  22088499.1104  -13630620.06743 -10584151.87942  22088501.1944   22088497.1594
        52.0004         45.0004
  22418785.7194  -14376252.31343 -11136979.96842  22418787.5684   22418780.0694
        53.0004         46.0004
 05  6 27 17 42  0.0000000  0  9G22G21G 3G18G15G14G 9G 1G19
  21059236.0054    -188088.06544   -142681.44542  21059237.0314   21059229.2324
        57.0004         50.0004
  23527353.6814   14173116.56543  11044402.55242  23527353.7834   23527348.9224
        47.0004         39.0004
  22512140.8254   -2608214.11043  -2027554.03842  22512143.4244   22512140.6084
        48.0004         42.0004
  22630896.7364    9893582.36343   7709544.64342  22630899.2964   22630892.3874
        52.0004         44.0004
  20584913.7224    -148280.60444   -107018.55542  20584914.4614   20584910.1524
        57.0004         50.0004
  20330835.1624  -17700835.72343 -13777604.59842  20330837.5304   20330831.6234
        55.0004         51.0004
  23431892.1454   -4755622.22643  -3690757.89142  23431894.7634   23431887.9694
        48.0004         41.0004
  22073098.3784  -13711555.51643 -10647218.40842  22073099.9914   22073096.6454
        52.0004         45.0004
  22416653.1134  -14387465.16343 -11145717.29542  22416654.5434   22416647.7164
        53.0004         46.0004
 05  6 27 17 42 30.0000000  0  9G22G21G 3G18G15G14G 9G 1G19
  21063885.1684    -163660.05444   -123646.64342  21063885.8674   21063878.0884
        57.0004         50.0004
  23546033.8104   14271286.02343  11120898.10042  23546034.1354   23546031.3464
        45.0004         39.0004
  22521795.2624   -2557487.17343  -1988026.61242  22521796.8344   22521791.8074
        49.0004         41.0004
  22642048.0844    9952182.56743   7755207.12142  22642050.5054   22642045.2634
        52.0004         44.0004
  20594782.4064     -96420.37044    -66607.99842  20594783.2284   20594779.2704
        57.0004         50.0004
  20327111.3274  -17720409.93243 -13792857.22342  20327113.7954   20327106.7224
        56.0004         51.0004
  23440353.5254   -4711151.10643  -3656105.06642  23440356.9344   23440351.3314
        48.0004         41.0004
  22057761.0514  -13792149.26243 -10710018.66442  22057762.8544   22057760.3644
        52.0004         45.0004
  22414624.1484  -14398120.59143 -11154020.25342  22414625.7714   22414619.6764
        53.0004         46.0004
 05  6 27 17 43  0.0000000  0  9G22G21G 3G18G15G14G 9G 1G19
  21068561.7564    -139081.09344   -104494.20942  21068562.7504   21068555.5784
        57.0004         50.0004
  23564756.9494   14369690.44343  11197576.72642  23564760.5064   23564757.2844
        44.0004         39.0004
  22531523.7844   -2506362.62543  -1948189.32842  22531524.0284   22531522.6974
        49.0004         41.0004
  22653217.1444   10010877.03843   7800943.03342  22653219.7254   22653214.7644
        51.0004         44.0004
  20604737.8494     -44099.97344    -25838.87942  20604739.0754   20604734.5774
        57.0004         50.0004
  20323483.5774  -17739472.47243 -13807711.15042  20323485.7014   20323479.3024
        56.0004         51.0004
  23448928.1594   -4666094.11843  -3620995.73342  23448930.7934   23448927.8144
        48.0004         41.0004
  22042491.8664  -13872394.72143 -10772547.53942  22042493.0734   22042489.5884
        52.0004         45.0004
  22412703.7804  -14408213.26843 -11161884.70142  22412705.9354   22412700.2964
        53.0004         47.0004
 05  6 27 17 43 30.0000000  0  9G22G21G 3G18G15G14G 9G 1G19
  21073267.0184    -114355.59144    -85227.60142  21073268.0094   21073260.9704
        57.0004         50.0004
  23583529.3594   14468324.08943  11274433.95942  23583528.0594   23583525.5854
        44.0004         39.0004
  22541328.1114   -2454847.40743  -1908047.67042  22541328.8174   22541324.8684
        50.0004         41.0004
  22664404.3464   10069661.26543   7846748.90642  22664404.8394   22664398.2154
        51.0004         43.0004
  20614780.6364       8675.60744     15284.93442  20614781.9384   20614777.3174
        57.0004         50.0004
  20319952.5304  -17758027.95243 -13822169.94942  20319954.7574   20319948.4874
        56.0004         51.0004
  23457612.1904   -4620457.24043  -3585434.55542  23457615.3354   23457609.8084
        48.0004         41.0004
  22027287.1944  -13952295.01343 -10834807.46142  22027288.8504   22027284.6034
        53.0004         46.0004
  22410890.0294  -14417747.63743 -11169314.10842  22410890.9384   22410884.9624
        53.0004         46.0004
 05  6 27 17 44  0.0000000  0  9G22G21G 3G18G15G14G 9G 1G19
  21077999.8954     -89483.89844    -65847.06542  21078000.8074   21077993.4684
        57.0004         50.0004
  23602340.7434   14567185.29843  11351468.53042  23602341.2224   23602338.4694
        45.0004         39.0004
  22551201.4594   -2402944.02843  -1867603.49342  22551204.1104   22551201.2464
        48.0004         41.0004
  22675605.4754   10128535.27643   7892624.71642  22675607.8674   22675601.8604
        50.0004         43.0004
  20624910.1594      61905.92344     56763.07942  20624911.4334   20624906.3204
        57.0004         49.0004
  20316518.2984  -17776076.95443 -13836234.10442  20316520.2384   20316513.5554
        56.0004         51.0004
  23466407.4934   -4574241.59043  -3549422.36042  23466410.2464   23466406.2234
        48.0004         41.0004
  22012147.9404  -14031848.69943 -10896797.27942  22012150.5414   22012147.4834
        53.0004         46.0004
  22409182.9094  -14426723.60643 -11176308.37442  22409183.7534   22409176.6584
        53.0004         46.0004
 05  6 27 17 44 30.0000000  0  9G22G21G 3G18G15G14G 9G 1G19
  21082762.1004     -64462.45644    -46349.85642  21082762.6264   21082755.5324
        57.0004         50.0004
  23621197.5864   14666276.63743  11428682.43642  23621198.8424   23621193.6974
        47.0004         40.0004
  22561153.6944   -2350651.00643  -1826855.73342  22561155.4664   22561150.9494
        48.0004         41.0004
  22686828.9684   10187502.56743   7938573.21342  22686830.3874   22686824.5544
        51.0004         44.0004
  20635127.1154     115594.01444     98597.92642  20635128.3074   20635123.1904
        57.0004         50.0004
  20313180.3134  -17793616.24343 -13849901.07742  20313182.6534   20313176.1864
        56.0004         51.0004
  23475311.9824   -4527444.98543  -3512957.49542  23475315.1224   23475310.6724
        48.0004         41.0004
  21997077.6944  -14111050.78843 -10958513.12742  21997078.1614   21997075.8834
        54.0004         46.0004
  22407580.4794  -14435137.83343 -11182864.90942  22407582.3504   22407575.0104
        53.0004         46.0004
 05  6 27 17 45  0.0000000  0  9G22G21G 3G18G15G14G 9G 1G19
  21087550.5904     -39298.32544    -26741.45142  21087550.7994   21087543.2754
        57.0004         50.0004
  23640097.0904   14765589.69643  11506069.10242  23640099.0034   23640094.4744
        49.0004         41.0004
  22571177.8294   -2297977.55943  -1785811.49242  22571179.4774   22571177.8484
        50.0004         42.0004
  22698066.5584   10246556.57143   7984589.30442  22698067.5624   22698061.5814
        51.0004         43.0004
  20645429.9194     169732.88544    140784.03342  20645430.8044   20645425.8144
        57.0004         50.0004
  20309938.3044  -17810653.14643 -13863176.57142  20309940.7454   20309933.8804
        56.0004         51.0004
  23484326.0624   -4480075.26943  -3476046.01642  23484329.0634   23484325.2814
        48.0004         40.0004
  21982070.8714  -14189906.53343 -11019959.10342  21982073.3434   21982069.4614
        54.0004         46.0004
  22406085.5594  -14442996.91343 -11188988.86742  22406087.0424   22406080.1654
        53.0004         45.0004
 05  6 27 17 45 30.0000000  0  9G22G21G 3G18G15G14G 9G 1G19
  21092367.2534     -13985.54944     -7017.21242  21092368.0684   21092359.8094
        57.0004         50.0004
  23659037.0754   14865128.67043  11583631.79542  23659039.1974   23659035.9734
        49.0004         40.0004
  22581275.0754   -2244920.07143  -1744468.04742  22581275.5114   22581273.4284
        50.0004         42.0004
  22709321.7974   10305703.40143   8030677.71142  22709324.9844   22709317.6994
        52.0004         44.0004
  20655818.4274     224328.14544    183325.77542  20655819.7134   20655815.3684
        57.0004         50.0004
  20306793.0444  -17827181.18143 -13876055.55642  20306795.2774   20306788.6724
        56.0004         51.0004
  23493449.9534   -4432127.82443  -3438684.37042  23493452.2574   23493448.3894
        48.0004         40.0004
  21967132.4124  -14268408.64943 -11081129.54642  21967133.7484   21967130.1834
        53.0004         46.0004
  22404695.5894  -14450295.04543 -11194675.73642  22404697.5124   22404691.2354
        52.0004         45.0004
 05  6 27 17 46  0.0000000  0  9G22G21G 3G18G15G14G 9G 1G19
  21097212.5544      11477.08844     12823.79042  21097213.8494   21097205.8134
        58.0004         50.0004
  23678021.4694   14964893.78143  11661370.72542  23678024.1594   23678021.2604
        47.0004         40.0004
  22591443.0334   -2191479.41443  -1702825.95842  22591445.3684   22591442.4944
        51.0004         42.0004
  22720594.8534   10364943.98943   8076839.18042  22720597.5464   22720591.8934
        52.0004         44.0004
  20666294.8824     279380.53044    226223.71642  20666295.9074   20666291.1874
        57.0004         49.0004
  20303745.3384  -17843199.50743 -13888537.35442  20303747.4184   20303741.3534
        56.0004         51.0004
  23502684.6474   -4383602.62543  -3400872.52142  23502687.1724   23502683.7444
        48.0004         40.0004
  21952262.3184  -14346554.34043 -11142022.24742  21952264.4574   21952259.6634
        54.0004         46.0004
  22403413.9994  -14457030.83443 -11199924.41742  22403415.2434   22403410.0834
        51.0004         46.0004
 05  6 27 17 46 30.0000000  0  9G22G21G 3G18G15G14G 9G 1G19
  21102084.8434      37084.94544     32777.96142  21102086.5384   21102078.6194
        57.0004         50.0004
  23697049.1244   15064878.90543  11739281.06142  23697050.2254   23697047.0344
        47.0004         40.0004
  22601685.7734   -2137662.75343  -1660890.92642  22601687.7254   22601685.7364
        52.0004         43.0004
  22731884.1434   10424273.85643   8123070.23542  22731885.9314   22731879.6494
        51.0004         44.0004
  20676856.5204     334885.15043    269474.05342  20676857.9784   20676853.1604
        56.0004         49.0004
  20300792.8544  -17858713.74543 -13900626.36742  20300794.9424   20300788.8864
        56.0004         51.0004
  23512026.8934   -4334505.77343  -3362615.21642  23512029.5604   23512023.5844
        47.0004         40.0004
  21937458.0004  -14424346.91443 -11202639.79142  21937459.9974   21937457.5944
        54.0004         47.0004
  22402238.0394  -14463208.97943 -11204738.57142  22402239.2594   22402233.3824
        52.0004         46.0004
 05  6 27 17 47  0.0000000  0  9G22G21G 3G18G15G14G 9G 1G19
  21106985.1964      62836.55244     52844.15142  21106986.0414   21106979.1514
        57.0004         50.0004
  23716116.0614   15165081.42443  11817360.81842  23716117.2624   23716113.1224
        45.0004         38.0004
  22611994.2044   -2083473.65143  -1618665.67642  22611996.2674   22611995.4954
        49.0004         42.0004
  22743191.5484   10483692.26843   8169370.27842  22743193.7884   22743187.0184
        51.0004         44.0004
  20687504.5534     390840.27044    313075.41942  20687505.9634   20687501.5524
        57.0004         49.0004
  20297935.8204  -17873725.47843 -13912323.81242  20297937.9254   20297931.7674
        55.0004         51.0004
  23521479.7714   -4284839.79543  -3323914.46842  23521482.3784   23521476.7404
        47.0004         40.0004
  21922722.4044  -14501786.25843 -11262982.08842  21922723.6754   21922720.7154
        54.0004         47.0004
  22401168.1884  -14468830.98443 -11209119.35242  22401170.0014   22401165.3004
        53.0004         47.0004
 05  6 27 17 47 30.0000000  0  9G22G21G 3G18G15G14G 9G 1G19
  21111913.8854      88734.08944     73024.04742  21111915.0164   21111907.2024
        57.0004         50.0004
  23735224.9384   15265502.17343  11895610.62542  23735228.8904   23735222.5514
        44.0004         38.0004
  22622378.4974   -2028912.24943  -1576150.33242  22622379.2914   22622377.5714
        49.0004         42.0004
  22754515.6314   10543201.31343   8215740.92342  22754518.3514   22754511.9184
        51.0004         43.0004
  20698238.0704     447247.77643    357029.29342  20698239.7524   20698235.1474
        56.0004         49.0004
  20295175.4514  -17888232.56643 -13923628.02442  20295177.5334   20295171.5944
        56.0004         51.0004
  23531038.4104   -4234603.70543  -3284769.49342  23531039.9194   23531035.5214
        45.0004         39.0004
  21908053.9014  -14578868.61443 -11323046.23142  21908056.0164   21908051.4104
        54.0004         47.0004
  22400204.3104  -14473894.61543 -11213065.06942  22400205.2504   22400201.4004
        52.0004         46.0004
 05  6 27 17 48  0.0000000  0  9G22G21G 3G18G15G14G 9G 1G19
  21116869.9074     114777.14044     93317.30942  21116870.6104   21116863.5154
        57.0004         50.0004
  23754378.8094   15366139.20543  11974028.96942  23754380.3834   23754374.1854
        45.0004         37.0004
  22632834.2174   -1973981.38043  -1533347.11242  22632836.3614   22632832.7344
        51.0004         43.0004
  22765857.2454   10602800.76843   8262182.01342  22765859.6814   22765853.2714
        51.0004         43.0004
  20709059.2364     504106.81344    401335.01342  20709060.4124   20709055.2174
        57.0004         49.0004
  20292510.5854  -17902235.90743 -13934539.71742  20292512.9954   20292506.7264
        56.0004         51.0004
  23540704.1094   -4183799.09643  -3245181.52342  23540706.2374   23540705.0354
        44.0004         39.0004
  21893454.1664  -14655592.93643 -11382831.35942  21893455.7704   21893451.7774
        55.0004         47.0004
  22399348.7384  -14478400.35343 -11216576.03942  22399349.2944   22399343.8754
        52.0004         46.0004
 05  6 27 17 48 30.0000000  0  9G22G21G 3G18G15G14G 9G 1G19
  21121853.5734     140967.78844    113725.62442  21121854.2884   21121847.2114
        57.0004         50.0004
  23773570.2694   15466993.23043  12052616.44042  23773570.7094   23773563.0164
        46.0004         36.0004
  22643353.0094   -1918681.34743  -1490256.21142  22643356.9614   22643354.6404
        50.0004         43.0004
  22777216.7474   10662493.15443   8308695.53542  22777219.1414   22777212.3054
        51.0004         43.0004
  20719964.9054     561419.22244    445994.00842  20719966.4314   20719961.1324
        57.0004         49.0004
  20289941.8594  -17915733.67643 -13945057.44942  20289944.2254   20289938.1354
        55.0004         51.0004
  23550481.2834   -4132425.34143  -3205150.10142  23550482.8514   23550480.4644
        45.0004         40.0004
  21878922.6744  -14731955.81743 -11442334.84942  21878924.5954   21878919.9694
        55.0004         47.0004
  22398595.8794  -14482346.04643 -11219650.62642  22398598.3164   22398592.7774
        52.0004         46.0004
 05  6 27 17 49  0.0000000  0  9G22G21G 3G18G15G14G 9G 1G19
  21126864.6304     167297.73544    134242.43942  21126865.6584   21126857.5684
        57.0004         50.0004
  23792799.8824   15568054.65443  12131365.49342  23792801.4584   23792796.1204
        45.0004         36.0004
  22653947.7834   -1863023.07443  -1446886.15642  22653949.4064   22653946.0614
        52.0004         44.0004
  22788591.8984   10722269.95443   8355274.82142  22788593.1534   22788587.6924
        51.0004         43.0004
  20730955.4634     619175.74243    490999.06842  20730956.9594   20730952.0354
        56.0004         49.0004
  20287467.9894  -17928734.70143 -13955188.11242  20287470.1824   20287464.0284
        55.0004         51.0004
  23560363.8864   -4080492.38043  -3164682.86242  23560366.5234   23560365.1234
        45.0004         40.0004
  21864458.0854  -14807964.37843 -11501562.27342  21864460.9534   21864456.4274
        55.0004         47.0004
  22397951.4284  -14485740.25343 -11222295.47742  22397953.2074   22397947.1154
        52.0004         46.0004
 05  6 27 17 49 30.0000000  0  9G22G21G 3G18G15G14G 9G 1G19
  21131901.7324     193775.09644    154874.15342  21131902.8654   21131896.2724
        57.0004         50.0004
  23812075.2254   15669330.61543  12210281.71542  23812076.5964   23812071.8484
        47.0004         38.0004
  22664607.7954   -1806999.95643  -1403231.82442  22664610.1094   22664607.2084
        52.0004         44.0004
  22799983.3184   10782140.24843   8401926.98942  22799984.6534   22799980.3484
        50.0004         43.0004
  20742032.9324     677384.59044    536356.58842  20742033.9724   20742029.4134
        57.0004         49.0004
  20285089.2574  -17941231.03043 -13964925.50742  20285091.6224   20285086.1774
        55.0004         51.0004
  23570356.1494   -4027992.91343  -3123774.24442  23570357.2184   23570353.4954
        47.0004         40.0004
  21850063.9224  -14883608.72743 -11560505.90042  21850065.4884   21850060.7244
        55.0004         47.0004
  22397410.6474  -14488574.98343 -11224504.38742  22397413.2274   22397407.1924
        51.0004         46.0004
 05  6 27 17 50  0.0000000  0  9G22G21G 3G18G15G14G 9G 1G19
  21136970.6184     220400.68344    175621.36542  21136970.4204   21136962.5604
        58.0004         50.0004
  23831384.5484   15770819.62643  12289363.94342  23831385.2034   23831384.9064
        46.0004         38.0004
  22675338.0614   -1750614.29243  -1359294.95942  22675340.4924   22675336.8314
        52.0004         44.0004
  22811396.0534   10842104.21143   8448652.14842  22811396.5704   22811390.6024
        51.0004         43.0004
  20753195.0084     736045.73543    582066.54242  20753196.3614   20753192.1794
        56.0004         49.0004
  20282808.2584  -17953223.04943 -13974269.93242  20282809.7934   20282803.9434
        55.0004         51.0004
  23580452.5154   -3974928.27843  -3082425.20642  23580454.0564   23580451.7504
        46.0004         40.0004
  21835738.8434  -14958887.22843 -11619164.43342  21835741.1964   21835735.8754
        55.0004         47.0004
  22396979.8094  -14490850.01443 -11226277.16042  22396981.0204   22396974.3114
        52.0004         46.0004
 05  6 27 17 50 30.0000000  0  9G22G21G 3G18G15G14G 9G 1G19
  21142063.6714     247172.82744    196482.76742  21142064.8594   21142057.0594
        57.0004         50.0004
  23850738.3024   15872518.85743  12368609.92842  23850739.1724   23850736.4854
        44.0004         38.0004
  22686134.5514   -1693870.14443  -1315078.77542  22686138.0834   22686135.4214
        52.0004         44.0004
  22822823.0884   10902160.14443   8495448.95142  22822824.2004   22822818.9004
        51.0004         43.0004
  20764442.9584     795156.94643    628127.20742  20764444.7764   20764440.6724
        56.0004         49.0004
  20280621.2274  -17964712.11443 -13983222.44842  20280623.4484   20280617.8264
        55.0004         51.0004
  23590658.5484   -3921301.21243  -3040637.90042  23590659.9484   23590654.9064
        47.0004         40.0004
  21821483.5164  -15033799.84743 -11677537.87342  21821485.7894   21821480.6994
        56.0004         47.0004
  22396652.6604  -14492566.76043 -11227614.90842  22396654.0704   22396647.7724
        52.0004         46.0004
 05  6 27 17 51  0.0000000  0  9G22G21G 3G18G15G14G 9G 1G19
  21147185.4374     274086.97244    217454.82342  21147186.5764   21147178.4904
        57.0004         50.0004
  23870132.0204   15974422.44443  12448015.18442  23870131.3944   23870128.8764
        45.0004         38.0004
  22697001.0784   -1636774.01143  -1270588.32042  22697003.2114   22696999.9384
        52.0004         44.0004
  22834269.0754   10962303.99043   8542314.24642  22834272.1974   22834264.1274
        52.0004         43.0004
  20775777.4194     854713.35744    674534.77242  20775778.5224   20775773.7324
        57.0004         49.0004
  20278529.7154  -17975703.29243 -13991786.99142  20278532.0904   20278526.1124
        55.0004         51.0004
  23600969.6024   -3867117.88443  -2998417.17342  23600970.8104   23600966.9784
        48.0004         40.0004
  21807297.4784  -15108349.66943 -11735628.62342  21807299.3524   21807294.8324
        55.0004         47.0004
  22396432.6074  -14493730.02843 -11228521.37442  22396433.4204   22396427.6224
        52.0004         46.0004
 05  6 27 17 51 30.0000000  0  8G22G 3G18G15G14G 9G 1G19
  21152333.8084     301140.37044    238535.38742  21152334.6954   21152326.5074
        57.0004         50.0004
  22707931.1654   -1579331.79343  -1225828.15942  22707934.3164   22707931.0374
        52.0004         44.0004
  22845728.9694   11022533.12143   8589246.00242  22845731.4274   22845724.7404
        50.0004         43.0004
  20787194.3044     914711.31943    721286.41142  20787195.1674   20787190.8584
        56.0004         49.0004
  20276532.4864  -17986200.50443 -13999966.63542  20276534.5314   20276528.4004
        55.0004         51.0004
  23611383.9054   -3812383.00243  -2955766.61142  23611385.5954   23611382.7874
        46.0004         39.0004
  21793178.2874  -15182538.71943 -11793438.23142  21793180.7564   21793176.6674
        54.0004         46.0004
  22396314.6594  -14494343.49243 -11228999.42042  22396316.5774   22396309.8044
        52.0004         46.0004
 05  6 27 17 52  0.0000000  0  8G22G 3G18G15G14G 9G 1G19
  21157509.6714     328343.70044    259732.78942  21157510.8164   21157502.9704
        57.0004         50.0004
  22718928.6184   -1521534.60143  -1180791.42342  22718931.2664   22718928.0074
        51.0004         43.0004
  22857208.4394   11082858.52643   8636252.76742  22857210.2334   22857206.2414
        49.0004         42.0004
  20798697.6274     975161.20243    768390.18942  20798698.7654   20798694.2294
        56.0004         49.0004
  20274630.9744  -17996193.36443 -14007753.27342  20274632.8834   20274626.8524
        55.0004         51.0004
  23621907.2054   -3757086.63143  -2912678.54742  23621908.1144   23621904.8454
        45.0004         39.0004
  21779132.8844  -15256354.55343 -11850957.02642  21779134.6934   21779130.5134
        54.0004         46.0004
  22396304.2764  -14494396.23543 -11229040.53642  22396306.0694   22396299.2044
        52.0004         46.0004
 05  6 27 17 52 30.0000000  0  8G22G 3G18G15G14G 9G 1G19
  21162713.1754     355685.64044    281038.18042  21162714.0914   21162706.4714
        57.0004         50.0004
  22729993.9904   -1463396.45443  -1135488.95942  22729995.6734   22729991.6534
        52.0004         44.0004
  22868704.7454   11143268.99143   8683325.82442  22868705.7354   22868701.8454
        50.0004         43.0004
  20810283.8844    1036051.03843    815836.78642  20810285.3334   20810280.7504
        56.0004         49.0004
  20272823.3584  -18005693.52143 -14015155.97842  20272825.7544   20272819.0074
        55.0004         51.0004
  23632534.1444   -3701242.00343  -2869163.28042  23632538.1814   23632529.7144
        46.0004         38.0004
  21765154.6084  -15329807.14443 -11908192.79442  21765157.2614   21765152.3454
        53.0004         46.0004
  22396398.4874  -14493900.01643 -11228653.89742  22396399.6164   22396394.1424
        51.0004         46.0004
 05  6 27 17 53  0.0000000  0  8G22G 3G18G15G14G 9G 1G19
  21167944.4594     383173.05444    302456.93642  21167944.8474   21167937.2974
        57.0004         50.0004
  22741122.7384   -1404912.69143  -1089917.24942  22741124.8474   22741121.9094
        52.0004         44.0004
  22880217.6754   11203771.57743   8730470.67942  22880220.8734   22880214.4154
        51.0004         43.0004
  20821956.9174    1097387.21643    863631.18942  20821957.1784   20821952.7074
        56.0004         49.0004
  20271110.5694  -18014694.75643 -14022169.93542  20271113.1134   20271106.0634
        56.0004         51.0004
  23643266.2344   -3644843.72743  -2825216.58342  23643265.8734   23643265.7104
        44.0004         38.0004
  21751247.3954  -15402888.53343 -11965139.28542  21751249.1704   21751246.0564
        54.0004         47.0004
  22396599.8824  -14492848.32643 -11227834.40642  22396600.8014   22396594.5574
        52.0004         46.0004
 05  6 27 17 53 30.0000000  0  8G22G 3G18G15G14G 9G 1G19
  21173201.7054     410804.15044    323987.66542  21173202.9834   21173195.9704
        57.0004         50.0004
  22752316.0774   -1346088.11043  -1044079.94642  22752318.6304   22752313.9874
        53.0004         44.0004
  22891749.3714   11264364.59243   8777685.98342  22891750.8524   22891744.3854
        52.0004         43.0004
  20833712.4894    1159166.97243    911771.22242  20833713.6704   20833709.5504
        56.0004         48.0004
  20269490.9454  -18023199.65943 -14028797.12442  20269493.6764   20269487.6944
        55.0004         51.0004
  23654103.0734   -3587895.49743  -2780841.36842  23654106.4604   23654102.4184
        44.0004         39.0004
  21737411.8674  -15475599.40343 -12021797.09042  21737413.6604   21737408.2214
        55.0004         47.0004
  22396903.3414  -14491243.41443 -11226583.85142  22396904.9484   22396899.8294
        51.0004         45.0004
 05  6 27 17 54  0.0000000  0  9G22G 3G18G25G15G14G 9G 1G19
  21178487.0194     438579.43944    345630.73842  21178488.2934   21178480.5754
        57.0004         50.0004
  22763575.4814   -1286924.46943   -997978.44742  22763577.6174   22763573.7634
        53.0004         45.0004
  22903296.1054   11325048.85043   8824972.38942  22903297.3424   22903292.3534
        51.0004         43.0004
  23929160.8574   -1320657.40953  -1000154.73852  23929162.9684   23929158.5024
        47.0004         37.0004
  20845552.6184    1221390.42243    960257.00642  20845553.8284   20845549.8224
        55.0004         48.0004
  20267968.0664  -18031208.14143 -14035037.48742  20267969.8614   20267964.1454
        55.0004         51.0004
  23665045.7324   -3530397.97343  -2736038.14742  23665046.9784   23665043.5894
        45.0004         39.0004
  21723645.7284  -15547937.82243 -12078164.66742  21723647.7624   21723644.0444
        55.0004         47.0004
  22397315.7394  -14489085.14243 -11224902.10942  22397316.8524   22397309.4984
        51.0004         45.0004
 05  6 27 17 54 30.0000000  0  9G22G 3G18G25G15G14G 9G 1G19
  21183800.4194     466500.15744    367387.14142  21183801.8364   21183793.7414
        57.0004         50.0004
  22774896.5414   -1227423.40043   -951614.01042  22774899.0114   22774896.2304
        51.0004         44.0004
  22914860.6784   11385825.47243   8872330.77542  22914862.0444   22914858.3434
        49.0004         43.0004
  23909786.3984   -1422471.56443  -1079490.34542  23909788.6384   23909781.5004
        46.0004         35.0004
  20857478.9534    1284057.75443   1009088.67142  20857479.0964   20857475.2904
        55.0004         48.0004
  20266538.1244  -18038719.96743 -14040890.84642  20266540.2874   20266534.1984
        55.0004         51.0004
  23676090.9114   -3472352.33543  -2690807.80642  23676092.7384   23676090.0854
        48.0004         40.0004
  21709952.0164  -15619901.90043 -12134240.53442  21709954.5754   21709949.6764
        55.0004         48.0004
  22397830.3864  -14486373.01143 -11222788.77442  22397832.0714   22397825.9154
        51.0004         45.0004
 05  6 27 17 55  0.0000000  0  9G22G 3G18G25G15G14G 9G 1G19
  21189141.0054     494563.19844    389254.45442  21189142.0044   21189134.3974
        57.0004         50.0004
  22786281.5324   -1167589.96043   -904990.60342  22786283.9444   22786282.4784
        49.0004         44.0004
  22926444.5104   11446691.67143   8919758.95142  22926446.3334   22926439.6224
        50.0004         42.0004
  23890413.9544   -1524264.65243  -1158809.50642  23890416.1674   23890412.8874
        46.0004         37.0004
  20869487.7864    1347165.44843   1058263.44942  20869488.1924   20869484.4604
        55.0004         48.0004
  20265202.5584  -18045738.52343 -14046359.84042  20265204.5834   20265198.6584
        55.0004         51.0004
  23687240.9024   -3413762.67943  -2645153.57042  23687241.5444   23687238.2094
        47.0004         40.0004
  21696329.0264  -15691493.07743 -12190025.84242  21696330.5704   21696326.5424
        55.0004         47.0004
  22398451.1974  -14483110.12043 -11220246.29542  22398453.0124   22398448.3094
        50.0004         45.0004
 05  6 27 17 55 30.0000000  0  9G22G 3G18G25G15G14G 9G 1G19
  21194507.4194     522768.23644    411232.39042  21194509.0204   21194500.9454
        57.0004         49.0004
  22797733.7454   -1107427.72243   -858110.95842  22797733.5944   22797730.0014
        52.0004         44.0004
  22938042.8304   11507647.00843   8967256.58242  22938046.3024   22938038.2904
        50.0004         42.0004
  23871049.2384   -1626034.41143  -1238110.47442  23871053.6054   23871044.6044
        47.0004         37.0004
  20881579.7034    1410712.12043   1107780.32142  20881580.3924   20881577.5174
        55.0004         48.0004
  20263960.9444  -18052265.18743 -14051445.54142  20263963.1204   20263957.1274
        55.0004         51.0004
  23698491.3814   -3354631.70043  -2599077.50142  23698493.8304   23698490.6624
        47.0004         41.0004
  21682775.3804  -15762710.84743 -12245520.17142  21682777.3674   21682774.0514
        54.0004         47.0004
  22399177.5224  -14479297.76143 -11217275.64942  22399178.3094   22399172.3444
        50.0004         45.0004
 05  6 27 17 56  0.0000000  0  9G22G 3G18G25G15G14G 9G 1G19
  21199902.2584     551118.76743    433323.71142  21199903.6024   21199896.1004
        56.0004         49.0004
  22809243.8134   -1046935.51143   -810974.19442  22809246.0384   22809242.3684
        52.0004         44.0004
  22949660.6464   11568695.26043   9014826.59842  22949662.4934   22949657.2934
        50.0004         43.0004
  23851687.0934   -1727774.82243  -1317388.61142  23851690.3834   23851686.5734
        47.0004         38.0004
  20893757.0474    1474700.55443   1157641.39242  20893758.1884   20893753.8584
        56.0004         49.0004
  20262813.4024  -18058297.16743 -14056145.77442  20262815.5314   20262808.8854
        56.0004         51.0004
  23709847.5984   -3294957.62943  -2552578.26842  23709849.2564   23709846.0914
        47.0004         41.0004
  21669295.1934  -15833550.65343 -12300719.98542  21669297.4484   21669293.3034
        55.0004         47.0004
  22400007.4554  -14474933.12343 -11213874.64842  22400009.1014   22400003.2034
        50.0004         45.0004
 05  6 27 17 56 30.0000000  0  9G22G 3G18G25G15G14G 9G 1G19
  21205325.1674     579610.74544    455525.25742  21205325.7334   21205318.3614
        57.0004         49.0004
  22820814.3374    -986119.63243   -763585.24042  22820817.4344   22820814.8854
        50.0004         44.0004
  22961295.6894   11629832.93643   9062466.32642  22961297.7834   22961292.3864
        51.0004         44.0004
  23832333.5054   -1829486.72943  -1396644.51542  23832334.9064   23832332.7384
        48.0004         39.0004
  20906017.0794    1539126.40943   1207843.32842  20906018.0494   20906013.6674
        56.0004         48.0004
  20261758.7224  -18063838.82643 -14060463.94142  20261760.7774   20261754.2894
        56.0004         51.0004
  23721304.9344   -3234745.62043  -2505659.89042  23721306.9214   23721303.8404
        47.0004         41.0004
  21655887.0584  -15904014.99143 -12355627.23242  21655889.2254   21655884.5014
        56.0004         48.0004
  22400943.1644  -14470020.16743 -11210046.40842  22400944.3634   22400937.6024
        52.0004         46.0004
 05  6 27 17 57  0.0000000  0  9G22G 3G18G25G15G14G 9G 1G19
  21210774.4214     608247.53044    477839.61942  21210775.2644   21210767.7774
        57.0004         49.0004
  22832450.8624    -924979.51743   -715943.65442  22832452.0934   22832449.7714
        49.0004         43.0004
  22972947.1484   11691063.04543   9110178.06642  22972949.3084   22972944.4044
        51.0004         44.0004
  23812983.9264   -1931164.22643  -1475873.61242  23812984.8934   23812983.7524
        48.0004         39.0004
  20918360.2194    1603991.92643   1258387.84442  20918361.6064   20918356.1324
        55.0004         48.0004
  20260798.0574  -18068888.08543 -14064398.42042  20260800.2324   20260793.3564
        56.0004         51.0004
  23732866.1424   -3173994.70643  -2458321.53542  23732869.7784   23732863.9644
        47.0004         41.0004
  21642550.1474  -15974099.68943 -12410238.65842  21642552.1914   21642547.4394
        56.0004         48.0004
  22401982.7104  -14464556.93043 -11205789.34942  22401983.4834   22401978.3974
        51.0004         46.0004
 05  6 27 17 57 30.0000000  0  8G22G 3G18G25G15G14G 1G19
  21216250.8614     637027.67944    500265.70842  21216251.4934   21216244.4964
        57.0004         49.0004
  22844145.5444    -863519.24643   -668052.58642  22844147.4124   22844144.0354
        49.0004         43.0004
  22984614.6884   11752384.23943   9157960.79942  22984616.2324   22984612.5384
        50.0004         43.0004
  23793641.8474   -2032805.75043  -1555074.69142  23793643.0404   23793642.1694
        47.0004         39.0004
  20930787.3254    1669294.80243   1309273.17242  20930787.9744   20930784.0284
        56.0004         48.0004
  20259930.2414  -18073447.04643 -14067950.85342  20259932.4554   20259925.7824
        55.0004         51.0004
  21629284.7834  -16043805.09843 -12464554.51842  21629287.0564   21629283.3674
        55.0004         47.0004
  22403127.0834  -14458544.94843 -11201104.71442  22403128.5664   22403123.3324
        52.0004         46.0004
 05  6 27 17 58  0.0000000  0  8G22G 3G18G25G15G14G 1G19
  21221754.0784     665946.37744    522799.74642  21221755.4714   21221746.9674
        57.0004         49.0004
  22855901.9364    -801746.49043   -619917.99242  22855904.5284   22855900.1584
        50.0004         43.0004
  22996300.7854   11813792.03243   9205811.00042  22996303.5374   22996297.5394
        50.0004         43.0004
  23774307.6364   -2134412.68943  -1634248.81942  23774310.9214   23774306.2874
        47.0004         40.0004
  20943295.6234    1735029.54243   1360495.02242  20943296.9144   20943291.9554
        55.0004         48.0004
  20259154.4554  -18077521.35443 -14071125.62542  20259156.2724   20259150.5784
        55.0004         51.0004
  21616092.9074  -16113134.98543 -12518577.75742  21616094.0644   21616089.4214
        55.0004         47.0004
  22404373.6484  -14451989.84143 -11195996.84442  22404375.5864   22404370.2324
        52.0004         46.0004
 05  6 27 17 58 30.0000000  0  8G22G 3G18G25G15G14G 1G19
  21227284.6264     695010.52544    545447.13142  21227285.3554   21227277.5494
        57.0004         49.0004
  22867715.4304    -739656.72543   -571536.40142  22867717.7844   22867717.3884
        50.0004         44.0004
  23008004.9214   11875293.69943   9253734.32142  23008006.8424   23008001.3324
        51.0004         43.0004
  23754979.0304   -2235975.78743  -1713388.76642  23754983.4674   23754980.7114
        45.0004         39.0004
  20955888.8844    1801202.27043   1412058.15842  20955889.3704   20955885.9204
        56.0004         49.0004
  20258472.7914  -18081105.02543 -14073918.07942  20258474.5604   20258468.8584
        55.0004         51.0004
  21602971.7334  -16182081.30743 -12572302.13742  21602973.8564   21602969.7044
        55.0004         47.0004
  22405726.4804  -14444885.34243 -11190460.90742  22405727.1014   22405721.9804
        52.0004         46.0004
 05  6 27 17 59  0.0000000  0  8G22G 3G18G25G15G14G 1G19
  21232841.8794     724215.86144    568204.52442  21232843.0304   21232835.6294
        57.0004         50.0004
  22879591.8074    -677257.09043   -522913.32242  22879594.3514   22879589.6414
        51.0004         44.0004
  23019725.8504   11936884.92443   9301727.43542  23019727.3954   23019722.0944
        51.0004         43.0004
  23735660.3404   -2337496.62443  -1792495.78342  23735660.8844   23735659.9364
        46.0004         39.0004
  20968562.0574    1867807.53343   1463958.32042  20968563.8694   20968559.9684
        56.0004         48.0004
  20257882.6184  -18084203.21643 -14076332.24542  20257884.8674   20257879.2324
        55.0004         51.0004
  21589924.2384  -16250647.42443 -12625730.26642  21589926.4364   21589921.4724
        55.0004         47.0004
  22407181.6044  -14437236.72343 -11184500.95242  22407182.6814   22407178.0884
        52.0004         47.0004
 05  6 27 17 59 30.0000000  0  8G22G 3G18G25G15G14G 1G19
  21238427.6134     753565.24044    591074.17142  21238428.2454   21238420.0144
        57.0004         50.0004
  22891524.7994    -614547.28943   -474048.53842  22891525.6264   22891522.0874
        50.0004         43.0004
  23031463.3474   11998568.78443   9349792.75342  23031465.5294   23031459.3644
        50.0004         43.0004
  23716350.8264   -2438969.30443  -1871565.29342  23716353.6454   23716349.5324
        46.0004         39.0004
  20981320.6384    1934847.48943   1516197.22142  20981321.5064   20981316.9344
        56.0004         48.0004
  20257386.4214  -18086813.52843 -14078366.25442  20257388.7234   20257382.6674
        55.0004         51.0004
  21576950.6564  -16318829.46543 -12678859.09142  21576951.7994   21576947.8494
        55.0004         47.0004
  22408741.3654  -14429041.63043 -11178115.20342  22408742.3944   22408737.3194
        52.0004         46.0004
 05  6 27 18  0  0.0000000  0  8G22G 3G18G25G15G14G 1G19
  21244039.2524     783055.79944    614053.81342  21244040.3814   21244032.2264
        57.0004         50.0004
  22903515.4364    -551532.87643   -424946.45042  22903516.5384   22903513.3154
        50.0004         43.0004
  23043217.1184   12060342.39043   9397928.01042  23043219.3824   23043215.4984
        49.0004         43.0004
  23697050.8824   -2540393.89143  -1950597.32542  23697051.6954   23697050.6524
        46.0004         39.0004
  20994158.8224    2002318.01543   1568771.63042  20994160.6174   20994156.1534
        56.0004         48.0004
  20256981.9144  -18088940.25543 -14080023.44042  20256984.2074   20256978.1744
        55.0004         51.0004
  21564047.5754  -16386629.43743 -12731690.19942  21564050.4734   21564045.8824
        55.0004         48.0004
  22410404.7694  -14420304.15743 -11171306.79942  22410405.9334   22410399.5314
        52.0004         47.0004
 05  6 27 18  0 30.0000000  0  8G22G 3G18G25G15G14G 1G19
  21249678.5354     812691.15744    637146.28542  21249679.4024   21249672.1294
        57.0004         50.0004
  22915566.8554    -488212.95243   -375606.27142  22915568.0654   22915562.7314
        52.0004         44.0004
  23054992.5224   12122209.54443   9446136.13042  23054993.6324   23054988.3644
        51.0004         43.0004
  23677761.7474   -2641763.97143  -2029586.87142  23677761.9654   23677760.3474
        45.0004         39.0004
  21007081.5074    2070221.98243   1621683.78042  21007082.6234   21007077.8794
        56.0004         48.0004
  20256669.2324  -18090580.53743 -14081301.56842  20256671.5524   20256665.1174
        55.0004         51.0004
  21551219.8184  -16454042.79243 -12784220.04842  21551221.5534   21551217.7174
        55.0004         47.0004
  22412170.5874  -14411021.23243 -11164073.39842  22412172.3024   22412166.9704
        52.0004         47.0004
 05  6 27 18  1  0.0000000  0  8G22G 3G18G25G15G14G 1G19
  21255344.4044     842463.26344    660345.32042  21255344.9694   21255337.6744
        57.0004         49.0004
  22927670.5334    -424597.94343   -326036.20742  22927672.5364   22927670.1074
        52.0004         44.0004
  23066779.1204   12184162.03543   9494410.77042  23066781.9164   23066776.7634
        50.0004         43.0004
  23658480.4994   -2743084.13143  -2108537.50642  23658481.0314   23658480.2294
        45.0004         39.0004
  21020083.5204    2138550.61143   1674926.84042  21020084.5264   21020080.2634
        56.0004         48.0004
  20256448.0294  -18091743.42043 -14082207.70842  20256450.3034   20256444.7124
        55.0004         51.0004
  21538464.0914  -16521076.48843 -12836454.05742  21538465.7624   21538460.9174
        56.0004         47.0004
  22414038.7744  -14401201.59943 -11156421.75142  22414040.6334   22414035.1934
        53.0004         47.0004
 05  6 27 18  1 30.0000000  0  8G22G 3G18G25G15G14G 1G19
  21261036.9554     872383.70343    683659.93342  21261038.2114   21261031.4234
        56.0004         49.0004
  22939834.9054    -360679.41243   -276229.60642  22939836.7304   22939832.4914
        53.0004         45.0004
  23078587.6734   12246211.74843   9542761.15742  23078589.7314   23078584.0554
        50.0004         43.0004
  23639210.8444   -2844340.66043  -2187438.54142  23639213.9674   23639209.6694
        44.0004         39.0004
  21033168.7024    2207314.17843   1728508.79842  21033169.7274   21033165.7764
        55.0004         48.0004
  20256319.6034  -18092418.35343 -14082733.62142  20256321.4414   20256316.2394
        55.0004         51.0004
  21525780.6734  -16587718.33743 -12888382.71542  21525783.4684   21525779.3484
        55.0004         47.0004
  22416011.5364  -14390834.95343 -11148343.87342  22416013.5094   22416008.3064
        53.0004         46.0004
 05  6 27 18  2  0.0000000  0  8G22G 3G18G25G15G14G 1G19
  21266758.7934     902443.65844    707083.27142  21266759.3364   21266751.3384
        57.0004         49.0004
  22952053.3774    -296468.87343   -226195.43142  22952056.1704   22952050.8914
        52.0004         44.0004
  23090412.4104   12308349.94643   9591180.48342  23090415.3864   23090410.4064
        49.0004         42.0004
  23619952.5454   -2945539.35143  -2266294.52142  23619956.2984   23619952.1974
        44.0004         39.0004
  21046334.3944    2276502.76243   1782421.95642  21046335.9754   21046331.6024
        55.0004         48.0004
  20256282.5384  -18092615.04843 -14082886.88642  20256285.1314   20256278.3664
        55.0004         51.0004
  21513172.9254  -16653976.16443 -12940012.14042  21513175.2304   21513170.9254
        55.0004         48.0004
  22418087.5224  -14379931.08543 -11139847.37442  22418088.6814   22418082.0734
        54.0004         46.0004
 05  6 27 18  2 30.0000000  0  8G22G 3G18G25G15G14G 1G19
  21272506.1954     932647.75644    730618.91642  21272506.7054   21272498.7784
        57.0004         49.0004
  22964327.1964    -231963.87443   -175931.83242  22964329.2364   22964326.5834
        50.0004         44.0004
  23102253.5644   12370581.57343   9639672.62142  23102256.2514   23102251.0154
        49.0004         42.0004
  23600710.0854   -3046672.32943  -2345099.27442  23600710.8464   23600707.9424
        45.0004         39.0004
  21059582.5164    2346120.47743   1836669.49142  21059583.3704   21059579.8914
        55.0004         48.0004
  20256336.2854  -18092329.77343 -14082664.58842  20256338.9424   20256332.4934
        55.0004         51.0004
  21500640.0084  -16719844.01644 -12991337.69942  21500641.8594   21500636.7134
        57.0004         48.0004
  22420265.0784  -14368485.73143 -11130928.91542  22420267.2744   22420259.8854
        54.0004         46.0004
 05  6 27 18  3  0.0000000  0  8G22G 3G18G25G15G14G 1G19
  21278279.8684     962992.88144    754264.45242  21278280.8444   21278273.2674
        57.0004         49.0004
  22976658.3044    -167170.88843   -125443.84542  22976660.1244   22976657.3804
        51.0004         44.0004
  23114113.7664   12432903.53743   9688235.15842  23114115.8304   23114111.7194
        49.0004         43.0004
  23581475.5594   -3147740.27243  -2423853.37042  23581478.2914   23581475.4404
        46.0004         39.0004
  21072911.1944    2416162.63643   1891247.76942  21072912.5024   21072908.3294
        55.0004         48.0004
  20256482.1354  -18091566.92443 -14082070.15242  20256484.3944   20256477.8434
        55.0004         51.0004
  21488177.9904  -16785324.67943 -13042361.55942  21488180.4664   21488176.1084
        56.0004         48.0004
  22422545.0184  -14356503.41643 -11121592.04342  22422547.2184   22422540.8114
        54.0004         46.0004
 05  6 27 18  3 30.0000000  0  8G22G 3G18G25G15G14G 1G19
  21284081.8234     993479.76044    778020.45842  21284082.4914   21284074.5054
        57.0004         49.0004
  22989043.8094    -102091.99643    -74733.02542  22989045.7214   22989039.6474
        52.0004         44.0004
  23125991.4654   12495316.71143   9736868.76842  23125992.5364   23125988.3054
        50.0004         43.0004
  23562255.9964   -3248739.32843  -2502553.76342  23562258.2714   23562256.4304
        45.0004         39.0004
  21086321.1834    2486629.07443   1946156.66142  21086321.3404   21086317.4654
        55.0004         47.0004
  20256717.7324  -18090326.57043 -14081103.63942  20256719.7914   20256713.5024
        55.0004         50.0004
  21475792.3054  -16850416.47643 -13093082.40342  21475793.8014   21475790.0434
        56.0004         48.0004
  22424926.9814  -14343984.27543 -11111836.88442  22424928.6644   22424923.9074
        53.0004         46.0004
 05  6 27 18  4  0.0000000  0  8G22G 3G18G25G15G14G 1G19
  21289910.0924    1024109.48744    801887.74942  21289911.4824   21289903.7384
        57.0004         49.0004
  23001479.2614     -36728.64743    -23800.57242  23001482.6334   23001478.9284
        50.0004         44.0004
  23137885.9504   12557822.00543   9785574.15142  23137887.4114   23137881.1554
        50.0004         43.0004
  23543049.8914   -3349665.87143  -2581197.67642  23543054.2054   23543049.3234
        45.0004         39.0004
  21099810.8464    2557519.64943   2001396.02942  21099811.4244   21099808.3784
        55.0004         48.0004
  20257044.3444  -18088609.23443 -14079765.45042  20257046.5114   20257040.5544
        55.0004         51.0004
  21463479.8044  -16915117.57043 -13143498.78642  21463481.5364   21463477.8614
        55.0004         48.0004
  22427410.6074  -14330928.49043 -11101663.56342  22427412.5294   22427406.3184
        50.0004         45.0004
 05  6 27 18  4 30.0000000  0  8G22G 3G18G25G15G14G 1G19
  21295767.0364    1054882.75644    825866.92242  21295767.6284   21295759.6274
        57.0004         49.0004
  23013971.7754      28916.72243     27351.58042  23013974.4824   23013971.0774
        51.0004         44.0004
  23149796.7724   12620420.04843   9834351.80142  23149799.1224   23149793.5774
        48.0004         41.0004
  23523860.1184   -3450516.20243  -2659782.18342  23523862.8944   23523857.6214
        46.0004         39.0004
  21113381.7934    2628833.90643   2056965.54842  21113382.2864   21113378.4404
        55.0004         47.0004
  20257462.1704  -18086415.13943 -14078055.76042  20257464.5854   20257457.7044
        55.0004         51.0004
  21451240.7874  -16979426.65743 -13193609.71242  21451243.0464   21451240.0724
        54.0004         48.0004
  22429999.2034  -14317336.41043 -11091072.34742  22430000.8784   22429993.5744
        50.0004         45.0004
 05  6 27 18  5  0.0000000  0  8G22G 3G18G25G15G14G 1G19
  21301649.2224    1085800.45744    849958.62842  21301650.4354   21301643.2264
        57.0004         49.0004
  23026518.5034      94842.64943     78722.41342  23026520.0894   23026515.2414
        52.0004         44.0004
  23161726.9464   12683112.75343   9883203.19242  23161729.6034   23161724.2584
        48.0004         41.0004
  23504683.1124   -3551286.31843  -2738304.17542  23504685.3124   23504682.3474
        46.0004         40.0004
  21127032.4504    2700572.09043   2112865.41342  21127033.3054   21127029.0334
        55.0004         47.0004
  20257970.6244  -18083743.88843 -14075974.27542  20257972.8524   20257966.0584
        55.0004         50.0004
  21439079.2594  -17043341.57243 -13243413.49142  21439081.0754   21439077.3094
        55.0004         48.0004
  22432687.1054  -14303207.55743 -11080062.89642  22432686.7774   22432680.9044
        49.0004         43.0004
 05  6 27 18  5 30.0000000  0  8G22G 3G18G25G15G14G 1G19
  21307559.4824    1116857.51743    874158.90742  21307559.9564   21307553.0364
        56.0004         49.0004
  23039113.1124     161041.21843    130305.69242  23039116.5174   23039113.0734
        49.0004         42.0004
  23173674.2854   12745894.81243   9932124.23942  23173677.5484   23173673.4844
        49.0004         42.0004
  23485521.5554   -3651978.93243  -2816765.80642  23485524.5104   23485521.6414
        46.0004         40.0004
  21140762.6814    2772727.64143   2169090.48142  21140763.8264   21140760.5924
        54.0004         47.0004
  20258568.0454  -18080602.47743 -14073526.41942  20258570.4614   20258564.4714
        55.0004         51.0004
  21426990.4034  -17106866.88443 -13292913.71342  21426992.6204   21426987.8474
        55.0004         48.0004
  22435476.4654  -14288548.74043 -11068640.45442  22435477.7054   22435471.2874
        48.0004         42.0004
 05  6 27 18  6  0.0000000  0  8G22G 3G18G25G15G14G 1G19
  21313496.4914    1148058.00343    898470.96342  21313497.5744   21313490.0044
        56.0004         49.0004
  23051764.2784     227513.56343    182102.28042  23051764.3854   23051762.8704
        49.0004         42.0004
  23185640.6804   12808770.22143   9981117.99342  23185642.4694   23185636.5344
        50.0004         42.0004
  23466376.6124   -3752587.17343  -2895161.69842  23466378.3904   23466375.8884
        46.0004         40.0004
  21154575.3404    2845303.40943   2225642.98442  21154575.3674   21154570.5114
        55.0004         48.0004
  20259256.2854  -18076988.16143 -14070710.06142  20259258.5304   20259252.3934
        55.0004         51.0004
  21414976.8954  -17169997.82843 -13342106.62042  21414979.1914   21414975.0094
        56.0004         48.0004
  22438367.0914  -14273356.89143 -11056802.67842  22438366.9174   22438361.7674
        47.0004         42.0004
 05  6 27 18  6 30.0000000  0  8G22G 3G18G25G15G14G 1G19
  21319460.9754    1179395.98144    922890.16042  21319461.5774   21319453.1734
        57.0004         49.0004
  23064464.4424     294250.75743    234105.23342  23064466.1794   23064462.7024
        50.0004         42.0004
  23197621.7174   12871732.86143  10030179.76942  23197622.5784   23197618.8014
        50.0004         42.0004
  23447246.8764   -3853114.09743  -2973494.18742  23447247.9544   23447244.3924
        46.0004         39.0004
  21168463.8364    2918292.24443   2282517.38442  21168464.7454   21168460.4154
        55.0004         47.0004
  20260032.3944  -18072907.46943 -14067530.29642  20260034.8054   20260028.4894
        55.0004         51.0004
  21403037.7204  -17232739.58143 -13390996.27142  21403039.7254   21403036.1024
        56.0004         48.0004
  22441356.3604  -14257639.26143 -11044555.17342  22441357.3774   22441352.4544
        45.0004         41.0004
 05  6 27 18  7  0.0000000  0  8G22G 3G18G25G15G14G 1G19
  21325451.3664    1210879.46244    947422.74042  21325452.4394   21325444.4934
        57.0004         49.0004
  23077214.7124     361258.02643    286318.63542  23077217.3884   23077212.3414
        49.0004         42.0004
  23209619.4974   12934791.05343  10079315.97942  23209621.6194   23209616.6064
        49.0004         41.0004
  23428134.7804   -3953548.79243  -3051754.80442  23428136.7994   23428133.7424
        47.0004         40.0004
  21182433.1414    2991700.94943   2339718.93642  21182433.7284   21182429.7234
        55.0004         47.0004
  20260899.3454  -18068353.73343 -14063981.92842  20260901.5144   20260895.2054
        55.0004         51.0004
  21391174.1454  -17295083.57543 -13439575.95542  21391175.9994   21391171.8674
        56.0004         48.0004
  22444451.0744  -14241389.30243 -11031892.88742  22444450.8704   22444446.3214
        46.0004         41.0004
 05  6 27 18  7 30.0000000  0  8G22G 3G18G25G15G14G 1G19
  21331469.2774    1242507.14143    972067.66842  21331470.3244   21331464.1554
        56.0004         49.0004
  23090016.6284     428531.30143    338739.35642  23090017.4414   23090015.0764
        50.0004         42.0004
  23221638.0864   12997943.77743  10128525.87042  23221639.0514   23221635.8054
        48.0004         41.0004
  23409041.6904   -4053889.57743  -3129942.24342  23409042.0464   23409037.3124
        47.0004         40.0004
  21196481.8894    3065527.09143   2397245.77542  21196483.1404   21196478.6164
        55.0004         48.0004
  20261855.1904  -18063329.46843 -14060066.91842  20261857.8474   20261851.4534
        55.0004         51.0004
  21379386.0044  -17357030.35443 -13487846.11942  21379387.8064   21379383.8644
        56.0004         49.0004
  22447643.9464  -14224609.13543 -11018817.44642  22447644.2264   22447638.6404
        47.0004         42.0004
 05  6 27 18  8  0.0000000  0  8G22G 3G18G25G15G14G 1G19
  21337514.8354    1274273.92343    996820.98942  21337516.0234   21337508.4384
        56.0004         48.0004
  23102865.7884     496062.99743    391361.43342  23102869.4354   23102865.6384
        49.0004         42.0004
  23233672.9024   13061185.84043  10177805.34842  23233674.4824   23233668.4764
        48.0004         40.0004
  23389962.4744   -4154138.90043  -3208058.41642  23389965.9844   23389961.4324
        46.0004         40.0004
  21210608.2544    3139764.31243   2455092.94042  21210608.7984   21210605.3644
        54.0004         47.0004
  20262899.3814  -18057841.07643 -14055790.24842  20262901.4774   20262895.4924
        54.0004         50.0004
  21367672.5654  -17418584.29343 -13535810.17442  21367674.6874   21367669.9044
        56.0004         48.0004
  22450934.8964  -14207305.27943 -11005333.92442  22450936.1334   22450931.1804
        47.0004         41.0004
 05  6 27 18  8 30.0000000  0  8G22G 3G18G25G15G14G 1G19
  21343586.7914    1306179.97744   1021682.84642  21343587.9124   21343580.2654
        57.0004         49.0004
  23115765.4634     563850.03643    444182.43942  23115766.7844   23115765.5804
        50.0004         43.0004
  23245724.2834   13124517.41443  10227154.55042  23245726.6894   23245722.5404
        49.0004         42.0004
  23370904.8494   -4254294.20543  -3286101.35542  23370906.6674   23370904.3874
        46.0004         40.0004
  21224812.9824    3214411.17443   2513259.30142  21224814.0844   21224810.3904
        55.0004         47.0004
  20264032.1254  -18051889.74343 -14051152.83342  20264034.3204   20264028.4294
        55.0004         51.0004
  21356035.5254  -17479744.87044 -13583467.73142  21356036.9224   21356032.7334
        57.0004         49.0004
  22454328.1334  -14189478.79643 -10991443.17842  22454329.6184   22454324.3364
        48.0004         43.0004
 05  6 27 18  9  0.0000000  0  8G22G 3G18G25G15G14G 1G19
  21349684.6784    1338227.03043   1046654.56442  21349685.6534   21349677.8444
        56.0004         49.0004
  23128715.5684     631891.23843    497201.53442  23128717.1394   23128713.6554
        50.0004         43.0004
  23257793.4414   13187940.15543  10276574.83442  23257795.4284   23257792.4754
        49.0004         42.0004
  23351863.8184   -4354350.40543  -3364067.07142  23351865.8954   23351863.5854
        46.0004         41.0004
  21239096.5914    3289468.21343   2571745.28742  21239097.2344   21239093.3544
        55.0004         47.0004
  20265253.3054  -18045475.39243 -14046154.64642  20265255.5974   20265248.6354
        55.0004         51.0004
  21344471.2644  -17540509.60743 -13630816.83042  21344473.3464   21344469.3334
        56.0004         49.0004
  22457820.8194  -14171129.13243 -10977144.74642  22457822.7804   22457815.1364
        49.0004         43.0004
 05  6 27 18  9 30.0000000  0  8G22G 3G18G25G15G14G 1G19
  21355810.5904    1370422.14843   1071741.65842  21355811.9214   21355804.7954
        56.0004         49.0004
  23141711.3234     700190.87143    550422.02242  23141712.5634   23141708.1394
        50.0004         42.0004
  23269882.0584   13251461.70843  10326072.09842  23269883.7824   23269878.9964
        49.0004         42.0004
  23332843.8334   -4454297.38943  -3441947.69442  23332847.6354   23332844.2444
        46.0004         41.0004
  21253458.1994    3364941.64143   2630555.70942  21253459.8364   21253455.3644
        55.0004         47.0004
  20266562.7634  -18038591.26143 -14040790.38742  20266564.5764   20266558.6214
        55.0004         51.0004
  21332984.9144  -17600870.47344 -13677851.23342  21332987.0784   21332982.5154
        57.0004         49.0004
  22461412.0404  -14152250.38643 -10962434.05342  22461414.4984   22461408.2184
        50.0004         43.0004
 05  6 27 18 10  0.0000000  0  8G22G 3G18G25G15G14G 1G19
  21361965.2014    1402759.79143   1096939.80742  21361966.4734   21361958.5444
        56.0004         49.0004
  23154754.8644     768740.17943    603837.00442  23154755.9554   23154756.0604
        48.0004         42.0004
  23281988.0144   13315076.55643  10375642.07442  23281988.0114   23281985.2174
        50.0004         42.0004
  23313844.6174   -4554138.50543  -3519745.80742  23313846.9684   23313844.2494
        46.0004         41.0004
  21267898.9004    3440823.73143   2689684.59742  21267900.1884   21267895.3604
        55.0004         47.0004
  20267960.5544  -18031244.88043 -14035065.93442  20267962.7774   20267956.9194
        55.0004         51.0004
  21321574.1024  -17660833.00143 -13724575.24342  21321576.5264   21321571.6724
        56.0004         49.0004
  22465105.2524  -14132850.13243 -10947316.97642  22465106.3934   22465100.1094
        51.0004         44.0004
 05  6 27 18 10 30.0000000  0  8G22G 3G18G25G15G14G 1G19
  21368146.2714    1435240.26643   1122249.25042  21368146.9674   21368139.4164
        56.0004         49.0004
  23167847.4864     837536.48843    657444.48942  23167848.7244   23167846.1564
        50.0004         43.0004
  23294110.4034   13378784.55443  10425284.60242  23294112.7314   23294107.1594
        49.0004         42.0004
  23294866.4854   -4653870.54843  -3597458.90442  23294867.8894   23294864.8524
        47.0004         41.0004
  21282415.6314    3517113.89943   2749131.46642  21282416.8634   21282412.5324
        54.0004         47.0004
  20269446.1044  -18023437.42943 -14028982.19442  20269448.1644   20269442.4024
        55.0004         51.0004
  21310239.7254  -17720396.20043 -13770988.08442  21310241.1294   21310237.9434
        56.0004         49.0004
  22468894.1524  -14112929.46743 -10931794.41842  22468895.5754   22468890.7374
        50.0004         44.0004
 05  6 27 18 11  0.0000000  0  8G22G 3G18G25G15G14G 1G19
  21374352.5154    1467860.48943   1147667.59642  21374353.4214   21374346.5944
        56.0004         49.0004
  23180986.8964     906573.98943    711239.88442  23180987.8434   23180983.3504
        52.0004         43.0004
  23306250.6664   13442582.84743  10474997.52342  23306251.7224   23306246.7134
        49.0004         41.0004
  23275908.6384   -4753493.83643  -3675087.28442  23275910.5624   23275907.7744
        48.0004         41.0004
  21297010.9044    3593807.72243   2808892.84942  21297010.8424   21297007.2034
        54.0004         47.0004
  20271019.0804  -18015173.28443 -14022542.59542  20271021.2074   20271015.0574
        55.0004         51.0004
  21298980.8714  -17779562.54443 -13817091.68842  21298982.6054   21298978.6824
        56.0004         49.0004
  22472786.0454  -14092492.81843 -10915869.76042  22472786.4074   22472779.2094
        51.0004         44.0004
 05  6 27 18 11 30.0000000  0  8G22G 3G18G25G15G14G 1G19
  21380587.5974    1500624.62143   1173198.07442  21380588.2724   21380581.8004
        56.0004         49.0004
  23194169.1684     975853.98543    765224.27442  23194172.2314   23194166.3974
        51.0004         43.0004
  23318409.5504   13506475.76043  10524784.17242  23318410.9084   23318405.6924
        49.0004         42.0004
  23256973.7234   -4853001.27643  -3752625.39042  23256975.1754   23256972.1434
        48.0004         41.0004
  21311682.1224    3670908.08343   2868971.04342  21311682.4704   21311679.4604
        54.0004         47.0004
  20272679.5784  -18006449.58343 -14015744.91442  20272681.7234   20272675.0214
        55.0004         51.0004
  21287798.6024  -17838327.32543 -13862882.39342  21287800.3054   21287796.8214
        56.0004         49.0004
  22476771.9224  -14071537.05843 -10899540.64042  22476773.0884   22476770.8704
        50.0004         44.0004
 05  6 27 18 12  0.0000000  0  8G22G 3G18G25G15G14G 1G19
  21386850.5694    1533532.05943   1198840.22342  21386850.7674   21386844.1794
        56.0004         49.0004
  23207396.8614    1045373.08443    819394.96442  23207399.1104   23207396.0194
        49.0004         43.0004
  23330585.7254   13570462.70043  10574644.07342  23330587.4314   23330582.5434
        50.0004         42.0004
  23238059.6454   -4952390.43943  -3830071.31542  23238060.4984   23238058.8454
        48.0004         41.0004
  21326430.2684    3748412.95543   2929364.41642  21326431.1144   21326427.7644
        54.0004         47.0004
  20274426.3084  -17997268.05943 -14008590.47342  20274428.5124   20274422.5784
        55.0004         51.0004
  21276691.6594  -17896690.62743 -13908360.24342  21276693.1174   21276690.0724
        55.0004         48.0004
  22480858.6674  -14050064.08943 -10882808.49842  22480860.5464   22480854.1644
        52.0004         45.0004
 05  6 27 18 12 30.0000000  0  8G22G 3G18G25G15G14G 1G19
  21393140.1984    1566584.80743   1224595.59642  21393140.7584   21393133.8804
        56.0004         49.0004
  23220672.6834    1115130.30243    873751.22642  23220674.7654   23220671.0194
        50.0004         43.0004
  23342779.9534   13634545.95843  10624579.04542  23342781.8944   23342778.9764
        49.0004         41.0004
  23219170.3464   -5051656.71243  -3907421.51442  23219171.8944   23219168.1474
        49.0004         41.0004
  21341256.2384    3826322.68443   2990073.24742  21341258.0674   21341253.7534
        54.0004         47.0004
  20276260.6694  -17987628.37543 -14001079.02942  20276262.9124   20276256.2634
        55.0004         50.0004
  21265662.5964  -17954650.21543 -13953523.51642  21265663.8124   21265659.8924
        56.0004         48.0004
  22485041.9424  -14028073.90143 -10865673.31942  22485044.2534   22485039.0634
        51.0004         45.0004
 05  6 27 18 13  0.0000000  0  8G22G 3G18G25G15G14G 1G19
  21399456.3494    1599777.65143   1250460.13642  21399457.4714   21399449.1134
        56.0004         48.0004
  23233989.5234    1185117.35443    928286.57442  23233991.6024   23233987.7224
        49.0004         43.0004
  23354992.2144   13698720.82143  10674585.39442  23354994.4104   23354989.4964
        50.0004         41.0004
  23200303.4654   -5150802.73643  -3984678.01842  23200305.2784   23200301.4424
        49.0004         41.0004
  21356158.1944    3904630.61243   3051092.39742  21356158.5774   21356154.1204
        54.0004         47.0004
  20278180.8654  -17977537.12343 -13993215.70942  20278182.8994   20278176.7684
        55.0004         51.0004
  21254708.2744  -18012210.79743 -13998375.86442  21254710.2104   21254707.0904
        55.0004         48.0004
  22489325.4034  -14005573.23743 -10848140.36242  22489326.7594   22489322.5594
        53.0004         46.0004
 05  6 27 18 13 30.0000000  0  8G22G 3G18G25G15G14G 1G19
  21405799.9454    1633111.82043   1276434.78742  21405800.3364   21405793.0754
        56.0004         49.0004
  23247351.5094    1255332.22243    982999.41842  23247352.5614   23247349.5224
        50.0004         42.0004
  23367221.2544   13762987.60943  10724663.33642  23367224.5684   23367218.6464
        49.0004         41.0004
  23181460.0074   -5249824.40443  -4061837.64142  23181460.2964   23181457.0644
        48.0004         41.0004
  21371135.6024    3983336.40243   3112421.55642  21371136.8784   21371132.3104
        54.0004         47.0004
  20280187.1644  -17966994.87543 -13985000.97142  20280189.4514   20280182.9884
        55.0004         51.0004
  21243831.5444  -18069371.02543 -14042916.25842  21243833.1464   21243829.3804
        55.0004         48.0004
  22493702.5634  -13982562.56843 -10830209.97742  22493705.1934   22493699.5404
        52.0004         45.0004
 05  6 27 18 14  0.0000000  0  8G22G 3G18G25G15G14G 1G19
  21412170.0844    1666590.52043   1302522.08342  21412171.0054   21412164.4974
        56.0004         49.0004
  23260757.8254    1325775.70043   1037890.41042  23260759.8674   23260754.3534
        51.0004         43.0004
  23379470.7814   13827350.04343  10774815.83542  23379471.6534   23379467.3344
        50.0004         41.0004
  23162642.3564   -5348715.56743  -4138895.55342  23162643.8974   23162640.7054
        49.0004         41.0004
  21386188.3834    4062442.08443   3174062.31842  21386189.8014   21386185.9694
        54.0004         47.0004
  20282279.1314  -17955999.59243 -13976433.20642  20282281.3284   20282275.4224
        55.0004         51.0004
  21233031.6454  -18126126.98043 -14087141.63842  21233032.6924   21233029.1044
        56.0004         48.0004
  22498180.2364  -13959040.06643 -10811880.80442  22498181.4514   22498175.8964
        52.0004         45.0004
